[[{"header":{"parameterUnit":"m.s-1","parameterCategory":1,"la1":31.0,"la2":29.5877,"lo1":-88.7671,"lo2":-86.6584,"dy":0.0162,"dx":0.0185,"nx":115,"ny":88,"refTime":"2024-09-02T06:00:00:Z","depth":0,"parameterNumber":2,"parameterNumberName":"U-component_of_WINDS"},"data":[0.0,0.0,0.0,0.0,0.0,0.0,0.0,0.0,0.0,0.0,0.0,0.0,0.0,0.0,0.0,0.0,0.0,0.0,0.0,0.0,0.0,0.0,0.0,0.0,0.0,0.0,0.0,0.0,0.0,0.0,0.0,0.0,0.0,0.0,0.0,0.0,0.0,0.0,0.0,0.0,0.0,0.0,0.0,0.0,0.0,0.0,0.0,0.0,0.0,0.0,0.0,0.0,0.0,0.0,0.0,0.0,0.0,0.0,0.0,0.0,0.0,0.0,0.0,0.0,0.0,0.0,0.0,0.0,0.0,0.0,0.0,0.0,0.0,0.0,0.0,0.0,0.0,0.0,0.0,0.0,0.0,0.0,0.0,0.0,0.0,0.0,0.0,0.0,0.0,0.0,0.0,0.0,0.0,0.0,0.0,0.0,0.0,0.0,0.0,0.0,0.0,0.0,0.0,0.0,0.0,0.0,0.0,0.0,0.0,0.0,0.0,0.0,0.0,0.0,0.0,0.0,0.0,0.0,0.0,0.0,0.0,0.0,0.0,0.0,0.0,0.0,0.0,0.0,0.0,0.0,0.0,0.0,0.0,0.0,0.0,0.0,0.0,0.0,0.0,0.0,0.0,0.0,0.0,0.0,0.0,0.0,0.0,0.0,0.0,0.0,0.0,0.0,0.0,0.0,0.0,0.0,0.0,0.0,0.0,0.0,0.0,0.0,0.0,0.0,0.0,0.0,0.0,0.0,0.0,0.0,0.0,0.0,0.0,0.0,0.0,0.0,0.0,0.0,0.0,0.0,0.0,0.0,0.0,0.0,0.0,0.0,0.0,0.0,0.0,0.0,0.0,0.0,0.0,0.0,0.0,0.0,0.0,0.0,0.0,0.0,0.0,0.0,0.0,0.0,0.0,0.0,0.0,0.0,0.0,0.0,0.0,0.0,0.0,0.0,0.0,0.0,0.0,0.0,0.0,0.0,0.0,0.0,0.0,0.0,0.0,0.0,0.0,0.0,0.0,0.0,0.0,0.0,0.0,0.0,0.0,0.0,0.0,0.0,0.0,0.0,0.0,0.0,0.0,0.0,0.0,0.0,0.0,0.0,0.0,0.0,0.0,0.0,0.0,0.0,0.0,0.0,0.0,0.0,0.0,0.0,0.0,0.0,0.0,0.0,0.0,0.0,0.0,0.0,0.0,0.0,0.0,0.0,0.0,0.0,0.0,0.0,0.0,0.0,0.0,0.0,0.0,0.0,0.0,0.0,0.0,0.0,0.0,0.0,0.0,0.0,0.0,0.0,0.0,0.0,0.0,0.0,0.0,0.0,0.0,0.0,0.0,0.0,0.0,0.0,0.0,0.0,0.0,0.0,0.0,0.0,0.0,0.0,0.0,0.0,0.0,0.0,0.0,0.0,0.0,0.0,0.0,0.0,0.0,0.0,0.0,0.0,0.0,0.0,0.0,0.0,0.0,0.0,0.0,0.0,0.0,0.0,0.0,0.0,0.0,0.0,0.0,0.0,0.0,0.0,0.0,0.0,0.0,0.0,0.0,0.0,0.0,0.0,0.0,0.0,0.0,0.0,0.0,0.0,0.0,0.0,0.0,0.0,0.0,0.0,0.0,0.0,0.0,0.0,0.0,0.0,0.0,0.0,0.0,0.0,0.0,0.0,0.0,0.0,0.0,0.0,0.0,0.0,0.0,0.0,0.0,0.0,0.0,0.0,0.0,0.0,0.0,0.0,0.0,0.0,0.0,0.0,0.0,0.0,0.0,0.0,0.0,0.0,0.0,0.0,0.0,0.0,0.0,0.0,0.0,0.0,0.0,0.0,0.0,0.0,0.0,0.0,0.0,0.0,0.0,0.0,0.0,0.0,0.0,0.0,0.0,0.0,0.0,0.0,0.0,0.0,0.0,0.0,0.0,0.0,0.0,0.0,0.0,0.0,0.0,0.0,0.0,0.0,0.0,0.0,0.0,0.0,0.0,0.0,0.0,0.0,0.0,0.0,0.0,0.0,0.0,0.0,0.0,0.0,0.0,0.0,0.0,0.0,0.0,0.0,0.0,0.0,0.0,0.0,0.0,0.0,0.0,0.0,0.0,0.0,0.0,0.0,0.0,0.0,0.0,0.0,0.0,0.0,0.0,0.0,0.0,0.0,0.0,0.0,0.0,0.0,0.0,0.0,0.0,0.0,0.0,0.0,0.0,0.0,0.0,0.0,0.0,0.0,0.0,0.0,0.0,0.0,0.0,0.0,0.0,0.0,0.0,0.0,0.0,0.0,0.0,0.0,0.0,0.0,0.0,0.0,0.0,0.0,0.0,0.0,0.0,0.0,0.0,0.0,0.0,0.0,0.0,0.0,0.0,0.0,0.0,0.0,0.0,0.0,0.0,0.0,0.0,0.0,0.0,0.0,0.0,0.0,0.0,0.0,0.0,0.0,0.0,0.0,0.0,0.0,0.0,0.0,0.0,0.0,0.0,0.0,0.0,0.0,0.0,0.0,0.0,0.0,0.0,0.0,0.0,0.0,0.0,0.0,0.0,0.0,0.0,0.0,0.0,0.0,0.0,0.0,0.0,0.0,0.0,0.0,0.0,0.0,0.0,0.0,0.0,0.0,0.0,0.0,0.0,0.0,0.0,0.0,0.0,0.0,0.0,0.0,0.0,0.0,0.0,0.0,0.0,0.0,0.0,0.0,0.0,0.0,0.0,0.0,0.0,0.0,0.0,0.0,0.0,0.0,0.0,0.0,0.0,0.0,0.0,0.0,0.0,0.0,0.0,0.0,0.0,0.0,0.0,0.0,0.0,0.0,0.0,0.0,0.0,0.0,0.0,0.0,0.0,0.0,0.0,0.0,0.0,0.0,0.0,0.0,0.0,0.0,0.0,0.0,0.0,0.0,0.0,0.0,0.0,0.0,0.0,0.0,0.0,0.0,0.0,0.0,0.0,0.0,0.0,0.0,0.0,0.0,0.0,0.0,0.0,0.0,0.0,0.0,0.0,0.0,0.0,0.0,0.0,0.0,0.0,0.0,0.0,0.0,0.0,0.0,0.0,0.0,0.0,0.0,0.0,0.0,0.0,0.0,0.0,0.0,0.0,0.0,0.0,0.0,0.0,0.0,0.0,0.0,0.0,0.0,0.0,0.0,0.0,0.0,0.0,0.0,0.0,0.0,0.0,0.0,0.0,0.0,0.0,0.0,0.0,0.0,0.0,0.0,0.0,0.0,0.0,0.0,0.0,0.0,0.0,0.0,0.0,0.0,0.0,0.0,0.0,0.0,0.0,0.0,0.0,0.0,0.0,0.0,0.0,0.0,0.0,0.0,0.0,0.0,0.0,0.0,0.0,0.0,0.0,0.0,0.0,0.0,0.0,0.0,0.0,0.0,0.0,0.0,0.0,0.0,0.0,0.0,0.0,0.0,0.0,0.0,0.0,0.0,0.0,0.0,0.0,0.0,0.0,0.0,0.0,0.0,0.0,0.0,0.0,0.0,0.0,0.0,0.0,0.0,0.0,0.0,0.0,0.0,0.0,0.0,0.0,0.0,0.0,0.0,0.0,0.0,0.0,0.0,0.0,0.0,0.0,0.0,0.0,0.0,0.0,0.0,0.0,0.0,0.0,0.0,0.0,0.0,0.0,0.0,0.0,0.0,0.0,0.0,0.0,0.0,0.0,0.0,0.0,0.0,0.0,0.0,0.0,0.0,0.0,0.0,0.0,0.0,0.0,0.0,0.0,0.0,0.0,0.0,0.0,0.0,0.0,0.0,0.0,0.0,0.0,0.0,0.0,0.0,0.0,0.0,0.0,0.0,0.0,0.0,0.0,0.0,0.0,0.0,0.0,0.0,0.0,0.0,0.0,0.0,0.0,0.0,0.0,0.0,0.0,0.0,0.0,0.0,0.0,0.0,0.0,0.0,0.0,0.0,0.0,0.0,0.0,0.0,0.0,0.0,0.0,0.0,0.0,0.0,0.0,0.0,0.0,0.0,0.0,0.0,0.0,0.0,0.0,0.0,0.0,0.0,0.0,0.0,0.0,0.0,0.0,0.0,0.0,0.0,0.0,0.0,0.0,0.0,0.0,0.0,0.0,0.0,0.0,0.0,0.0,0.0,0.0,0.0,0.0,0.0,0.0,0.0,0.0,0.0,0.0,0.0,0.0,0.0,0.0,0.0,0.0,0.0,0.0,0.0,0.0,0.0,0.0,0.0,0.0,0.0,0.0,0.0,0.0,0.0,0.0,0.0,0.0,0.0,0.0,0.0,0.0,0.0,0.0,0.0,0.9484,0.0,0.0,0.0,0.0,0.0,0.0,0.0,0.0,0.0,0.0,0.0,0.0,0.0,0.0,0.0,0.0,0.0,0.0,0.0,0.0,0.0,0.0,0.0,0.0,0.0,0.0,0.0,0.0,0.0,0.0,0.0,0.0,0.0,0.0,0.0,0.0,0.0,0.0,0.0,0.0,0.0,0.0,0.0,0.0,0.0,0.0,0.0,0.0,0.0,0.0,0.0,0.0,0.0,0.0,0.0,0.0,0.0,0.0,0.0,0.0,0.0,0.0,0.0,0.0,0.0,0.0,0.0,0.0,0.0,0.0,0.0,0.0,0.0,0.0,0.0,0.0,0.0,0.0,0.0,0.0,0.0,0.0,0.0,0.0,0.0,0.0,0.0,0.0,0.0,0.0,0.0,0.0,0.0,0.0,0.0,0.0,0.0,0.0,0.0,0.0,0.0,0.0,0.0,0.0,0.0,0.0,0.0,0.0,0.0,0.0,0.9793,0.9937,0.9937,0.9937,0.9937,0.0,0.0,0.0,0.0,0.0,0.0,0.0,0.0,0.0,0.0,0.0,0.0,0.0,0.0,0.0,0.0,0.0,0.0,0.0,0.0,0.0,0.0,0.0,0.0,0.0,0.0,0.0,0.0,0.0,0.0,0.0,0.0,0.0,0.0,0.0,0.0,0.0,0.0,0.0,0.0,0.0,0.0,0.0,0.0,0.0,0.0,0.0,0.0,0.0,0.0,0.0,0.0,0.0,0.0,0.0,0.0,0.0,0.0,0.0,0.0,0.0,0.0,0.0,0.0,0.0,0.0,0.0,0.0,0.0,0.0,0.0,0.0,0.0,0.0,0.0,0.0,0.0,0.0,0.0,0.0,0.0,0.0,0.0,0.0,0.0,0.0,0.0,0.0,0.0,0.0,0.0,0.0,0.0,0.0,0.0,0.0,0.0,0.0,0.0,0.0,0.0,0.0,0.0,0.0,0.0,0.0,0.0,0.0,0.0,0.0,0.0,0.0,1.0461,1.039,1.0355,0.0,0.0,0.0,0.0,0.0,0.0,0.0,0.0,0.0,0.0,0.0,0.0,0.0,0.0,0.0,0.0,0.0,0.0,0.0,0.0,0.0,0.0,0.0,0.0,0.0,0.0,0.0,0.0,0.0,0.0,0.0,0.0,0.0,0.0,0.0,0.0,0.0,0.0,0.0,0.0,0.0,0.0,0.0,0.0,0.0,0.0,0.0,0.0,0.0,0.0,0.0,0.0,0.0,0.0,0.0,0.0,0.0,0.0,0.0,0.0,0.0,0.0,0.0,0.0,0.0,0.0,0.0,0.0,0.0,0.0,0.0,0.0,0.0,0.0,0.0,0.0,0.0,0.0,0.0,0.0,0.0,0.0,0.0,0.0,0.0,0.0,0.0,0.0,0.0,0.0,0.0,0.0,0.0,0.0,0.0,0.0,0.0,0.0,0.0,0.0,0.0,0.0,0.0,0.0,0.0,0.0,0.0,0.0,0.0,0.0,1.0766,1.1291,1.0991,0.0,1.0563,0.0,0.0,0.0,0.0,0.0,0.0,0.0,0.0,0.0,0.0,0.0,0.0,0.0,0.0,0.0,0.0,0.0,0.0,0.0,0.0,0.0,0.0,0.0,0.0,0.0,0.0,0.0,0.0,0.0,0.0,0.0,0.0,0.0,0.0,0.0,0.0,0.0,0.0,0.0,0.0,0.0,0.0,0.0,0.0,0.0,0.0,0.0,0.0,0.0,0.0,0.0,0.0,0.0,0.0,0.0,0.0,0.0,0.0,0.0,0.0,0.0,0.0,0.0,0.0,0.0,0.0,0.0,0.0,0.0,0.0,0.0,0.0,0.0,0.0,0.0,0.0,0.0,0.0,0.0,0.0,0.0,0.0,0.0,0.0,0.0,0.0,0.0,0.0,0.0,0.0,0.0,0.0,0.0,0.0,0.0,0.0,0.0,0.0,0.0,0.0,0.0,0.0,0.0,0.0,0.0,0.0,0.0,0.0,0.0,0.0,0.0,1.1877,1.1737,1.156,0.0,0.0,0.0,0.0,0.0,0.0,0.0,0.0,0.0,0.0,0.0,0.0,0.0,0.0,0.0,0.0,0.0,0.0,0.0,0.0,0.0,0.0,0.0,0.0,0.0,0.0,0.0,0.0,0.0,0.0,0.0,0.0,0.0,0.0,0.0,0.0,0.0,0.0,0.0,0.0,0.0,0.0,0.0,0.0,0.0,0.0,0.0,0.0,0.0,0.0,0.0,0.0,0.0,0.0,0.0,0.0,0.0,0.0,0.0,0.0,0.0,0.0,0.0,0.0,0.0,0.0,0.0,0.0,0.0,0.0,0.0,0.0,0.0,0.0,0.0,0.0,0.0,0.0,0.0,0.0,0.0,0.0,0.0,0.0,0.0,0.0,0.0,0.0,0.0,0.0,0.0,0.0,0.0,0.0,0.0,0.0,0.0,0.0,0.0,0.0,0.0,0.0,0.0,0.0,0.0,0.0,0.0,0.0,0.0,0.0,1.1655,0.0,1.2454,1.2467,1.2324,1.199,0.0,0.0,0.0,0.0,0.0,0.0,0.0,0.0,0.0,0.0,0.0,0.0,0.0,0.0,0.0,0.0,0.0,0.0,0.0,0.0,0.0,0.0,0.0,0.0,0.0,0.0,0.0,0.0,0.0,0.0,0.0,0.0,0.0,0.0,0.0,0.0,0.0,0.0,0.0,0.0,0.0,0.0,0.0,0.0,0.0,0.0,0.0,0.0,0.0,0.0,0.0,0.0,0.0,0.0,0.0,0.0,0.0,0.0,0.0,0.0,0.0,0.0,0.0,0.0,0.0,0.0,0.0,0.0,0.0,0.0,0.0,0.0,0.0,0.0,0.0,0.0,0.0,0.0,0.0,0.0,0.0,0.0,0.0,0.0,0.0,0.0,0.0,0.0,0.0,0.0,0.0,0.0,0.0,0.0,0.0,0.0,0.0,0.0,0.0,0.0,0.0,0.0,0.0,0.0,0.0,0.0,0.0,0.0,0.0,1.2046,1.2712,1.3147,1.316,1.2935,0.0,0.0,0.0,0.0,0.0,0.0,0.0,0.0,0.0,0.0,0.0,0.0,0.0,0.0,0.0,0.0,0.0,0.0,0.0,0.0,0.0,0.0,0.0,0.0,0.0,0.0,0.0,0.0,0.0,0.0,0.0,0.0,0.0,0.0,0.0,0.0,0.0,0.0,0.0,0.0,0.0,0.0,0.0,0.0,0.0,0.0,0.0,0.0,0.0,0.0,0.0,0.0,0.0,0.0,0.0,0.0,0.0,0.0,0.0,0.0,0.0,0.0,0.0,0.0,0.0,0.0,0.0,0.0,0.0,0.0,0.0,0.0,0.0,0.0,0.0,0.0,0.0,0.0,0.0,0.0,0.0,0.0,0.0,0.0,0.0,0.0,0.0,0.0,0.0,0.0,0.0,0.0,0.0,0.0,0.0,0.0,0.0,0.0,0.0,0.0,0.0,0.0,0.0,0.0,0.0,0.0,0.0,0.0,0.0,1.1673,1.2657,1.3386,1.3748,1.3414,1.3027,0.0,0.0,0.0,0.0,0.0,0.0,0.0,0.0,0.0,0.0,0.0,0.0,0.0,0.0,0.0,0.0,0.0,0.0,0.0,0.0,0.0,0.0,0.0,0.0,0.0,0.0,0.0,0.0,0.0,0.0,0.0,0.0,0.0,0.0,0.0,0.0,0.0,0.0,0.0,0.0,0.0,0.0,0.0,0.0,0.0,0.0,0.0,0.0,0.0,0.0,0.0,0.0,0.0,0.0,0.0,0.0,0.0,0.0,0.0,0.0,0.0,0.0,0.0,0.0,0.0,0.0,0.0,0.0,0.0,0.0,0.0,0.0,0.0,0.0,0.0,0.0,0.0,0.0,0.0,0.0,0.0,0.0,0.0,0.0,0.0,0.0,0.0,0.0,0.0,0.0,0.0,0.0,0.0,0.0,0.0,0.0,0.0,0.0,0.0,0.0,0.0,0.0,0.0,0.0,0.0,0.0,0.0,0.0,0.0,1.2438,0.0,1.3921,0.0,1.3667,1.316,0.0,0.0,0.0,0.0,0.0,0.0,0.0,0.0,0.0,0.0,0.0,0.0,0.0,0.0,0.0,0.0,0.0,0.0,0.0,0.0,0.0,0.0,0.0,0.0,0.0,0.0,0.0,0.0,0.0,0.0,0.0,0.0,0.0,0.0,0.0,0.0,0.0,0.0,0.0,0.0,0.0,0.0,0.0,0.0,0.0,0.0,0.0,0.0,0.0,0.0,0.0,0.0,0.0,0.0,0.0,0.0,0.0,0.0,0.0,0.0,0.0,0.0,0.0,0.0,0.0,0.0,0.0,0.0,0.0,0.0,0.0,0.0,0.0,0.0,0.0,0.0,0.0,0.0,0.0,0.0,0.0,0.0,0.0,0.0,0.0,0.0,0.0,0.0,0.0,0.0,0.0,0.0,0.0,0.0,0.0,0.0,0.0,0.0,0.0,0.0,0.0,0.0,0.0,0.0,0.0,0.0,0.0,0.0,1.2135,1.3533,1.3948,1.4269,1.4452,1.3919,1.336,0.0,0.0,0.0,0.0,0.0,0.0,0.0,0.0,0.0,0.0,0.0,0.0,0.0,0.0,0.0,0.0,0.0,0.0,0.0,0.0,0.0,0.0,0.0,0.0,0.0,0.0,0.0,0.0,0.0,0.0,0.0,0.0,0.0,0.0,0.0,0.0,0.0,0.0,0.0,0.0,0.0,0.0,0.0,0.0,0.0,0.0,0.0,0.0,0.0,0.0,0.0,0.0,0.0,0.0,0.0,0.0,0.0,0.0,0.0,0.0,0.0,0.0,0.0,0.0,0.0,0.0,0.0,0.0,0.0,0.0,0.0,0.0,0.0,0.0,0.0,0.0,0.0,0.0,0.0,0.0,0.0,0.0,0.0,0.0,0.0,0.0,0.0,0.0,0.0,0.0,0.0,0.0,0.0,0.0,0.0,0.0,0.0,0.0,0.0,0.0,0.0,0.0,0.0,0.0,0.0,0.0,0.0,0.0,0.0,1.4173,1.4736,1.5044,1.5097,1.4362,1.3667,0.0,0.0,0.0,0.0,0.0,0.0,0.0,0.0,0.0,0.0,0.0,0.0,0.0,0.0,0.0,0.0,0.0,0.0,0.0,0.0,0.0,0.0,0.0,0.0,0.0,0.0,0.0,0.0,0.0,0.0,0.0,0.0,0.0,0.0,0.0,0.0,0.0,0.0,0.0,0.0,0.0,0.0,0.0,0.0,0.0,0.0,0.0,0.0,0.0,0.0,0.0,0.0,0.0,0.0,0.0,0.0,0.0,0.0,0.0,0.0,0.0,0.0,0.0,0.0,0.0,0.0,0.0,0.0,0.0,0.0,0.0,0.0,0.0,0.0,0.0,0.0,0.0,0.0,0.0,0.0,0.0,0.0,0.0,0.0,0.0,0.0,0.0,0.0,0.0,0.0,0.0,0.0,0.0,0.0,0.0,0.0,0.0,0.0,0.0,0.0,0.0,0.0,0.0,0.0,0.0,0.0,0.0,0.0,0.0,1.5618,1.5912,1.6059,1.6094,1.519,1.4309,1.34,0.0,0.0,0.0,0.0,0.0,0.0,0.0,0.0,0.0,0.0,0.0,0.0,0.0,0.0,0.0,0.0,0.0,0.0,0.0,0.0,0.0,0.0,0.0,0.0,0.0,0.0,0.0,0.0,0.0,0.0,0.0,0.0,0.0,0.0,0.0,0.0,0.0,0.0,0.0,0.0,0.0,0.0,0.0,0.0,0.0,0.0,0.0,0.0,0.0,0.0,0.0,0.0,0.0,0.0,0.0,0.0,0.0,0.0,0.0,0.0,0.0,0.0,0.0,0.0,0.0,0.0,0.0,0.0,0.0,0.0,0.0,0.0,0.0,0.0,0.0,0.0,0.0,0.0,0.0,0.0,0.0,0.0,0.0,0.0,0.0,0.0,0.0,0.0,0.0,0.0,0.0,0.0,0.0,0.0,0.0,0.0,0.0,0.0,0.0,0.0,0.0,0.0,0.0,0.0,0.0,0.0,0.0,0.0,1.7649,1.7527,1.7393,1.7286,1.6366,1.5172,0.0,0.0,0.0,0.0,0.0,0.0,0.0,0.0,0.0,0.0,0.0,0.0,0.0,0.0,0.0,0.0,0.0,0.0,0.0,0.0,0.0,0.0,0.0,0.0,0.0,0.0,0.0,0.0,0.0,0.0,0.0,0.0,0.0,0.0,0.0,0.0,0.0,0.0,0.0,0.0,0.0,0.0,0.0,0.0,0.0,0.0,0.0,0.0,0.0,0.0,0.0,0.0,0.0,0.0,0.0,0.0,0.0,0.0,0.0,0.0,0.0,0.0,0.0,0.0,0.0,0.0,0.0,0.0,0.0,0.0,0.0,0.0,0.0,0.0,0.0,0.0,0.0,0.0,0.0,0.0,0.0,0.0,0.0,0.0,0.0,0.0,0.0,0.0,0.0,0.0,0.0,0.0,0.0,0.0,0.0,0.0,0.0,0.0,0.0,0.0,0.0,0.0,0.0,0.0,0.0,0.0,0.0,0.0,0.0,1.8824,1.9666,1.9559,1.849,1.7382,1.6161,0.0,0.0,0.0,0.0,0.0,0.0,0.0,0.0,0.0,0.0,0.0,0.0,0.0,0.0,0.0,0.0,0.0,0.0,0.0,0.0,0.0,0.0,0.0,0.0,0.0,0.0,0.0,0.0,0.0,0.0,0.0,0.0,0.0,0.0,0.0,0.0,0.0,0.0,0.0,0.0,0.0,0.0,0.0,0.0,0.0,0.0,0.0,0.0,0.0,0.0,0.0,0.0,0.0,0.0,0.0,0.0,0.0,0.0,0.0,0.0,0.0,0.0,0.0,0.0,0.0,0.0,0.0,0.0,0.0,0.0,0.0,0.0,0.0,0.0,0.0,0.0,0.0,0.0,0.0,0.0,0.0,0.0,0.0,0.0,0.0,0.0,0.0,0.0,0.0,0.0,0.0,0.0,0.0,0.0,0.0,0.0,0.0,0.0,0.0,0.0,0.0,0.0,0.0,0.0,0.0,0.0,0.0,0.0,1.7515,1.9701,2.0866,2.1065,2.0414,1.8948,1.7326,0.0,0.0,0.0,0.0,0.0,0.0,0.0,0.0,0.0,0.0,0.0,0.0,0.0,0.0,0.0,0.0,0.0,0.0,0.0,0.0,0.0,0.0,0.0,0.0,0.0,0.0,0.0,0.0,0.0,0.0,0.0,0.0,0.0,0.0,0.0,0.0,0.0,0.0,0.0,0.0,0.0,0.0,0.0,0.0,0.0,0.0,0.0,0.0,0.0,0.0,0.0,0.0,0.0,0.0,0.0,0.0,0.0,0.0,0.0,0.0,0.0,0.0,0.0,0.0,0.0,0.0,0.0,0.0,0.0,0.0,0.0,0.0,0.0,0.0,0.0,0.0,0.0,0.0,0.0,0.0,0.0,0.0,0.0,0.0,0.0,0.0,0.0,0.0,0.0,0.0,0.0,0.0,0.0,0.0,0.0,0.0,0.0,0.0,0.0,0.0,0.0,0.0,0.0,0.0,0.0,0.0,0.0,0.0,1.793,2.0214,2.1306,2.208,2.2391,2.0561,1.8517,0.0,0.0,0.0,0.0,0.0,0.0,0.0,0.0,0.0,0.0,0.0,0.0,0.0,0.0,0.0,0.0,0.0,0.0,0.0,0.0,0.0,0.0,0.0,0.0,0.0,0.0,0.0,0.0,0.0,0.0,0.0,0.0,0.0,0.0,0.0,0.0,0.0,0.0,0.0,0.0,0.0,0.0,0.0,0.0,0.0,0.0,0.0,0.0,0.0,0.0,0.0,0.0,0.0,0.0,0.0,0.0,0.0,0.0,0.0,0.0,0.0,0.0,0.0,0.0,0.0,0.0,0.0,0.0,0.0,0.0,0.0,0.0,0.0,0.0,0.0,0.0,0.0,0.0,0.0,0.0,0.0,0.0,0.0,0.0,0.0,0.0,0.0,0.0,0.0,0.0,0.0,0.0,0.0,0.0,0.0,0.0,0.0,0.0,0.0,0.0,0.0,0.0,0.0,0.0,0.0,0.0,0.0,0.0,1.8466,2.0668,2.1462,2.2061,2.2627,2.1221,1.9319,0.0,0.0,0.0,0.0,0.0,0.0,0.0,0.0,0.0,0.0,0.0,0.0,0.0,0.0,0.0,0.0,0.0,0.0,0.0,0.0,0.0,0.0,0.0,0.0,0.0,0.0,0.0,0.0,0.0,0.0,0.0,0.0,0.0,0.0,0.0,0.0,0.0,0.0,0.0,0.0,0.0,0.0,0.0,0.0,0.0,0.0,0.0,0.0,1.5465,0.0,0.0,0.0,0.0,0.0,0.0,0.0,0.0,0.0,0.0,0.0,0.0,0.0,0.0,0.0,0.0,0.0,0.0,0.0,0.0,0.0,0.0,0.0,0.0,0.0,0.0,0.0,0.0,0.0,0.0,0.0,0.0,0.0,0.0,0.0,0.0,0.0,0.0,0.0,0.0,0.0,0.0,0.0,0.0,0.0,0.0,0.0,0.0,0.0,0.0,0.0,0.0,0.0,0.0,0.0,0.0,0.0,0.0,0.0,1.8713,2.0617,2.1402,2.197,2.2409,2.128,1.9753,0.0,0.0,0.0,0.0,0.0,0.0,0.0,0.0,0.0,0.0,0.0,0.0,0.0,0.0,0.0,0.0,0.0,0.0,0.0,0.0,0.0,0.0,0.0,0.0,0.0,0.0,0.0,0.0,0.0,0.0,0.0,0.0,0.0,0.0,0.0,0.0,0.0,0.0,0.0,0.0,0.0,0.0,0.0,0.0,0.0,0.0,0.0,0.0,0.0,0.0,0.0,0.0,0.0,0.0,0.0,0.0,0.0,0.0,0.0,0.0,0.0,0.0,0.0,0.0,0.0,0.0,0.0,0.0,0.0,0.0,0.0,0.0,0.0,0.0,0.0,0.0,0.0,0.0,0.0,0.0,0.0,0.0,0.0,0.0,0.0,0.0,0.0,0.0,0.0,0.0,0.0,0.0,0.0,0.0,0.0,0.0,0.0,0.0,0.0,0.0,0.0,0.0,0.0,0.0,0.0,0.0,0.0,1.6744,1.8479,2.0093,2.0906,2.1484,2.174,2.073,1.957,1.8321,0.0,0.0,0.0,0.0,0.0,0.0,0.0,0.0,0.0,0.0,0.0,0.0,0.0,0.0,0.0,0.0,0.0,0.0,0.0,0.0,0.0,0.0,0.0,0.0,0.0,0.0,0.0,0.0,0.0,0.0,0.0,0.0,0.0,0.0,0.0,0.0,0.0,0.0,1.5129,1.5933,0.0,0.0,0.0,0.0,0.0,0.0,0.0,0.0,1.6754,0.0,0.0,0.0,0.0,0.0,0.0,0.0,0.0,0.0,0.0,0.0,0.0,0.0,0.0,0.0,0.0,0.0,0.0,0.0,0.0,0.0,0.0,0.0,0.0,0.0,0.0,0.0,0.0,0.0,0.0,0.0,0.0,0.0,0.0,0.0,0.0,0.0,0.0,0.0,0.0,0.0,0.0,0.0,0.0,0.0,0.0,0.0,0.0,0.0,0.0,0.0,0.0,0.0,0.0,0.0,0.0,1.4616,1.5881,1.7182,1.8448,1.908,1.9609,1.9982,1.9078,1.8191,1.7334,0.0,0.0,0.0,0.0,0.0,0.0,0.0,0.0,0.0,0.0,0.0,0.0,0.0,0.0,0.0,0.0,0.0,0.0,0.0,0.0,0.0,0.0,0.0,0.0,0.0,0.0,0.0,0.0,0.0,0.0,0.0,0.0,0.0,0.0,0.0,0.0,0.0,0.0,0.0,1.6656,1.7166,0.0,0.0,0.0,0.0,0.0,0.0,0.0,0.0,1.8009,0.0,0.0,0.0,0.0,0.0,0.0,0.0,0.0,0.0,0.0,0.0,0.0,0.0,0.0,0.0,0.0,0.0,0.0,0.0,0.0,0.0,0.0,0.0,0.0,0.0,0.0,0.0,0.0,0.0,0.0,0.0,0.0,0.0,0.0,0.0,0.0,0.0,0.0,0.0,0.0,0.0,0.0,0.0,0.0,0.0,0.0,0.0,0.0,0.0,0.0,0.0,0.0,0.0,0.0,0.0,1.4008,1.5273,1.6359,1.7297,1.7812,1.8218,1.8484,1.7531,1.6631,0.0,0.0,0.0,0.0,0.0,0.0,0.0,0.0,0.0,0.0,0.0,0.0,0.0,0.0,0.0,0.0,0.0,0.0,0.0,0.0,0.0,0.0,0.0,0.0,0.0,0.0,0.0,0.0,0.0,0.0,0.0,0.0,0.0,0.0,0.0,0.0,0.0,0.0,0.0,0.0,1.742,1.7956,1.8237,0.0,0.0,0.0,0.0,0.0,0.0,1.8531,1.8571,0.0,0.0,0.0,0.0,0.0,0.0,0.0,0.0,0.0,0.0,0.0,0.0,0.0,0.0,0.0,0.0,0.0,0.0,0.0,0.0,0.0,0.0,0.0,0.0,0.0,0.0,0.0,0.0,0.0,0.0,0.0,0.0,0.0,0.0,0.0,0.0,0.0,0.0,0.0,0.0,0.0,0.0,0.0,0.0,0.0,0.0,0.0,0.0,0.0,0.0,0.0,0.0,0.0,0.0,0.0,1.3242,1.4508,1.5443,1.5972,1.6519,1.6857,1.6813,1.591,1.5112,0.0,0.0,0.0,0.0,0.0,0.0,0.0,0.0,0.0,0.0,0.0,0.0,0.0,0.0,0.0,0.0,0.0,0.0,0.0,0.0,0.0,0.0,0.0,0.0,0.0,0.0,0.0,0.0,0.0,0.0,0.0,0.0,0.0,0.0,0.0,0.0,0.0,0.0,0.0,0.0,0.0,1.8811,1.9212,1.9025,0.0,0.0,0.0,0.0,1.9225,1.9279,0.0,0.0,0.0,0.0,0.0,0.0,0.0,0.0,0.0,0.0,0.0,0.0,0.0,0.0,0.0,0.0,0.0,0.0,0.0,0.0,0.0,0.0,0.0,0.0,0.0,0.0,0.0,0.0,0.0,0.0,0.0,0.0,0.0,0.0,0.0,0.0,0.0,0.0,0.0,0.0,0.0,0.0,0.0,0.0,0.0,0.0,0.0,0.0,0.0,0.0,0.0,0.0,0.0,0.0,0.0,0.0,1.2104,1.3137,1.3747,1.3972,1.485,1.505,1.4513,1.4278,1.3703,0.0,0.0,0.0,0.0,0.0,0.0,0.0,0.0,0.0,0.0,0.0,0.0,0.0,0.0,0.0,0.0,0.0,0.0,0.0,0.0,0.0,0.0,0.0,0.0,0.0,0.0,0.0,0.0,0.0,0.0,0.0,0.0,0.0,0.0,0.0,0.0,0.0,0.0,0.0,0.0,0.0,1.9618,2.0361,2.0214,2.012,0.0,0.0,2.0134,2.0428,2.0481,0.0,0.0,0.0,0.0,0.0,0.0,0.0,0.0,0.0,0.0,0.0,0.0,0.0,0.0,0.0,0.0,0.0,0.0,0.0,0.0,0.0,0.0,0.0,0.0,0.0,0.0,0.0,0.0,0.0,0.0,0.0,0.0,0.0,0.0,0.0,0.0,0.0,0.0,0.0,0.0,0.0,0.0,0.0,0.0,0.0,0.0,0.0,0.0,0.0,0.0,0.0,0.0,0.0,0.0,0.0,1.05,1.138,1.2144,1.261,1.2982,1.3452,1.3671,1.3477,1.2892,1.2174,0.0,0.0,0.0,0.0,0.0,0.0,0.0,0.0,0.0,0.0,0.0,0.0,0.0,0.0,0.0,0.0,0.0,0.0,0.0,0.0,0.0,0.0,0.0,0.0,0.0,0.0,0.0,0.0,0.0,0.0,0.0,0.0,0.0,0.0,0.0,0.0,0.0,0.0,0.0,0.0,0.0,0.0,2.074,2.0824,0.0,0.0,0.0,2.1252,2.1579,0.0,0.0,0.0,0.0,0.0,0.0,0.0,0.0,0.0,0.0,0.0,0.0,0.0,0.0,0.0,0.0,0.0,0.0,0.0,0.0,0.0,0.0,0.0,0.0,0.0,0.0,0.0,0.0,0.0,0.0,0.0,0.0,0.0,0.0,0.0,0.0,0.0,0.0,0.0,0.0,0.0,0.0,0.0,0.0,0.0,0.0,0.0,0.0,0.0,0.0,0.0,0.0,0.0,0.0,0.0,0.0,0.0,1.0771,1.1385,1.1835,1.2277,1.2551,1.2641,1.2596,1.1812,0.0,0.0,0.0,0.0,0.0,0.0,0.0,0.0,0.0,0.0,0.0,0.0,0.0,0.0,0.0,0.0,0.0,0.0,0.0,0.0,0.0,0.0,0.0,0.0,0.0,0.0,0.0,1.1735,0.0,0.0,0.0,0.0,0.0,0.0,0.0,0.0,0.0,0.0,0.0,0.0,0.0,0.0,2.0155,2.1135,2.1471,2.176,0.0,0.0,2.2138,2.2548,2.2005,2.1356,0.0,0.0,0.0,0.0,0.0,0.0,0.0,0.0,0.0,0.0,0.0,0.0,0.0,0.0,0.0,0.0,0.0,0.0,0.0,0.0,0.0,0.0,0.0,0.0,0.0,0.0,0.0,0.0,0.0,0.0,0.0,0.0,0.0,0.0,0.0,0.0,0.0,0.0,0.0,0.0,0.0,0.0,0.0,0.0,0.0,0.0,0.0,0.0,0.0,0.0,0.0,0.0,0.0,0.0,0.0,1.0258,1.092,1.1417,1.165,1.2043,1.1981,1.1525,1.1358,1.0688,0.0,0.0,0.0,0.0,0.0,0.0,0.0,0.0,0.0,0.0,0.0,0.0,0.0,0.0,0.0,0.0,0.0,0.0,0.0,0.0,0.0,0.0,0.0,0.0,0.0,0.0,0.0,0.0,0.0,0.0,0.0,0.0,0.0,0.0,0.0,0.0,0.0,0.0,0.0,0.0,0.0,2.0844,2.1868,2.2489,2.2832,0.0,0.0,2.2594,2.3106,2.2112,2.1142,2.0656,0.0,0.0,0.0,0.0,0.0,0.0,0.0,0.0,0.0,0.0,0.0,0.0,0.0,0.0,0.0,0.0,0.0,0.0,0.0,0.0,0.0,0.0,0.0,0.0,0.0,0.0,0.0,0.0,0.0,0.0,0.0,0.0,0.0,0.0,0.0,0.0,0.0,0.0,0.0,0.0,0.0,0.0,0.0,0.0,0.0,0.0,0.0,0.0,0.0,0.0,0.0,0.0,0.0,0.9161,1.0179,1.0677,1.1145,1.1586,1.1763,1.1752,1.1502,1.107,1.0398,0.0,0.0,0.0,0.0,0.0,0.0,0.0,0.0,0.0,0.0,0.0,0.0,0.0,0.0,0.0,0.0,0.0,0.0,0.0,0.0,0.0,0.0,0.0,0.0,0.0,0.0,0.0,0.0,1.3577,1.3692,1.3707,0.0,0.0,0.0,0.0,0.0,0.0,0.0,0.0,0.0,0.0,2.0914,2.1595,2.2091,0.0,0.0,2.2259,2.2226,2.2408,2.1657,2.0946,2.0451,1.9106,0.0,0.0,0.0,0.0,0.0,0.0,0.0,0.0,0.0,0.0,0.0,0.0,0.0,0.0,0.0,0.0,0.0,0.0,0.0,0.0,0.0,0.0,0.0,0.0,0.0,0.0,0.0,0.0,0.0,0.0,0.0,0.0,0.0,0.0,0.0,0.0,0.0,0.0,0.0,0.0,0.0,0.0,0.0,0.0,0.0,0.0,0.0,0.0,0.0,0.0,0.0,0.0,0.8932,1.0058,1.0524,1.1056,1.1606,1.1619,1.1599,1.1538,1.0948,1.0399,0.0,0.0,0.0,0.0,0.0,0.0,0.0,0.0,0.0,0.0,0.0,0.0,0.0,0.0,0.0,0.0,0.0,0.0,0.0,0.0,0.0,0.0,0.0,0.0,0.0,0.0,0.0,0.0,1.3272,1.3326,1.3135,0.0,0.0,0.0,0.0,0.0,0.0,0.0,0.0,0.0,0.0,2.0662,2.1038,2.1436,2.1558,2.1222,2.1221,2.1182,2.1195,2.0526,1.9933,1.9727,0.0,0.0,0.0,0.0,0.0,0.0,0.0,0.0,0.0,0.0,0.0,0.0,0.0,0.0,0.0,0.0,0.0,0.0,0.0,0.0,0.0,0.0,0.0,0.0,0.0,0.0,0.0,0.9243,0.0,0.0,0.827,0.0,0.0,0.0,0.0,0.0,0.0,0.0,0.0,0.0,0.0,0.0,0.0,0.0,0.0,0.0,0.0,0.0,0.0,0.0,0.0,0.0,0.0,0.8913,0.9815,1.0561,1.1089,1.1599,1.1619,1.1552,1.1402,1.1097,1.059,0.999,0.0,0.0,0.0,0.0,0.0,0.0,0.0,0.0,0.0,0.0,0.0,0.0,0.0,0.0,0.0,0.0,0.0,0.0,0.0,0.0,0.0,0.0,0.0,0.0,0.0,0.0,1.2345,1.2903,1.3192,0.0,0.0,0.0,0.0,0.0,0.0,0.0,0.0,0.0,0.0,1.9459,2.0037,2.0105,2.044,2.0359,1.9508,1.9369,1.9435,1.9511,1.8508,1.7919,0.0,0.0,0.0,0.0,0.0,0.0,0.0,0.0,0.0,0.0,0.0,0.0,0.0,0.0,0.0,0.0,0.0,0.0,0.0,0.0,0.0,0.0,0.0,0.0,0.0,0.0,0.0,1.0216,0.9995,0.0,0.0,0.0,0.0,0.0,0.0,0.0,0.0,0.0,0.0,0.0,1.0542,1.0259,0.0,0.0,0.0,0.0,0.0,0.0,0.0,0.0,0.0,0.0,0.0,0.0,0.8974,0.9951,1.055,1.1165,1.1599,1.1619,1.1592,1.1545,1.1246,1.0717,0.9917,0.0,0.0,0.0,0.0,0.0,0.0,0.0,0.0,0.0,0.0,0.0,0.0,0.0,0.0,0.0,0.0,0.0,0.0,0.0,0.0,0.0,0.0,0.0,0.0,0.0,1.1385,0.0,0.0,0.0,0.0,0.0,0.0,0.0,0.0,0.0,0.0,0.0,1.7614,1.8301,1.899,1.9314,1.8937,1.9226,1.9212,0.0,0.0,0.0,0.0,0.0,0.0,0.0,0.0,0.0,0.0,0.0,0.0,0.0,0.0,1.5715,1.6069,1.6008,1.5931,1.5864,0.0,0.0,0.0,0.0,0.0,0.0,0.0,0.0,0.0,0.0,0.0,0.0,0.0,0.0,1.0958,0.0,1.0219,0.0,0.0,0.0,0.0,0.0,0.0,0.0,0.0,1.1012,1.1136,1.1236,1.099,1.0818,0.0,1.0156,0.9425,0.0,0.0,0.0,0.0,0.0,0.0,0.0,0.0,0.9313,1.0188,1.0786,1.1278,1.1674,1.1694,1.1667,1.1613,1.1321,1.0839,1.0154,0.9612,0.9069,0.0,0.0,0.0,0.0,0.0,0.0,0.0,0.0,0.0,0.0,0.0,0.0,0.0,0.0,0.0,0.0,0.0,0.0,0.0,0.0,0.0,0.0,0.0,1.0817,0.0,0.0,0.0,0.0,0.0,0.0,0.0,0.0,0.0,1.6049,1.6813,1.7519,1.7923,1.8201,1.8191,1.7634,0.0,0.0,0.0,0.0,0.0,0.0,0.0,1.5945,1.5964,1.5507,1.5209,1.5504,1.5456,1.5432,1.5856,0.0,0.0,1.6146,1.6172,1.6172,1.6172,1.6172,1.6251,1.6494,1.6599,1.6675,0.0,0.0,0.0,0.0,0.0,0.0,0.0,0.0,1.1979,1.1674,0.0,1.1109,0.0,0.0,0.0,0.0,0.0,1.0126,0.0,0.0,1.1651,1.1989,1.2122,1.1995,1.1796,1.1619,1.1123,1.0759,1.0453,0.9083,0.0,0.0,0.0,0.0,0.0,0.0,0.9924,1.0514,1.124,1.1694,1.183,1.183,1.1762,1.1619,1.1328,1.1036,1.0744,1.031,0.9937,0.9429,0.8763,0.0,0.0,0.0,0.0,0.0,0.0,0.0,0.0,0.0,0.0,0.0,0.0,0.0,0.0,0.0,0.0,0.0,0.0,0.0,0.0,0.9383,0.0,0.0,0.0,0.0,0.0,0.0,0.0,0.0,0.0,0.0,1.6341,1.6766,1.7163,1.7602,0.0,0.0,0.0,0.0,1.5532,1.4886,1.487,1.4886,1.475,1.4705,1.4795,1.5287,0.0,0.0,1.5477,1.5698,1.5911,1.6221,1.6265,1.637,1.6442,1.6522,1.6514,1.6435,1.642,1.6451,1.6475,1.6665,1.6791,1.2622,0.0,0.0,0.0,0.0,1.2003,1.2201,1.2467,1.2308,1.2172,1.2052,1.1622,0.0,0.0,0.0,0.0,0.0,0.0,1.1528,1.1966,1.2209,1.2409,1.2483,1.2519,1.2296,1.1939,1.1619,1.1291,1.1084,1.0493,0.9761,0.8947,0.0,0.0,0.0,0.0,1.0378,1.0962,1.1497,1.1843,1.1993,1.1884,1.1762,1.1626,1.143,1.1287,1.1199,1.0873,1.0534,1.0181,0.9571,0.0,0.0,0.0,0.0,0.0,0.0,0.0,0.0,0.0,0.0,0.0,0.0,0.0,0.0,0.0,0.0,0.0,0.0,0.0,0.9632,1.0243,1.0614,0.0,0.0,0.0,0.0,0.0,0.0,0.0,0.0,0.0,1.5861,1.61,1.6323,0.0,0.0,1.6022,1.5535,1.5579,1.5438,1.4996,1.5008,0.0,1.5108,1.4842,1.4794,1.5024,1.5073,1.5181,1.5424,1.5681,1.5883,1.5973,1.6077,1.6216,1.6347,1.6532,1.6755,1.6838,1.6868,1.6906,1.7019,1.7079,1.7067,1.2827,1.2054,1.2223,1.2428,1.2641,1.2685,1.2916,1.3148,1.2839,1.2657,1.2578,1.2316,1.1956,1.1646,1.1394,0.0,0.0,0.0,1.2115,1.2422,1.2544,1.2626,1.2655,1.2609,1.237,1.201,1.1723,1.1547,1.1403,1.1058,1.0696,1.0194,0.0,0.0,0.9971,1.0405,1.0867,1.1335,1.1789,1.206,1.2149,1.1938,1.1789,1.1708,1.1558,1.1457,1.1389,1.1165,1.0894,1.0595,1.0134,0.9496,0.0,0.0,0.0,0.0,0.0,0.0,0.0,0.0,0.0,0.0,0.0,0.7531,0.791,0.0,0.0,0.0,0.8982,0.9574,1.0336,1.0763,0.0,0.0,0.0,0.0,0.0,0.0,0.0,1.3807,1.4419,1.5067,1.5597,1.5858,1.6019,1.618,1.5945,1.559,1.5244,0.0,1.5348,1.5014,1.508,1.5187,1.5127,1.5061,1.5035,1.5243,1.5437,1.5581,1.5744,1.5967,1.611,1.613,1.6191,1.6307,1.6456,1.6678,1.6729,1.6764,1.6771,1.6807,1.6992,1.7013,1.6956,1.2891,1.2607,1.3445,1.3909,1.4104,1.3697,1.3699,1.3839,1.335,1.3051,1.2916,1.294,1.2713,1.2421,1.2289,0.0,1.2046,1.2208,1.2424,1.2608,1.2615,1.2602,1.2439,1.2323,1.2087,1.1791,1.1676,1.1555,1.1409,1.1172,1.1124,1.1326,1.0918,1.0705,1.0629,1.1023,1.1375,1.1674,1.2088,1.2298,1.2284,1.1925,1.177,1.1757,1.1681,1.1531,1.1396,1.124,1.1029,1.0751,1.0466,0.9978,0.9303,0.0,0.0,0.0,0.0,0.0,0.0,0.0,0.0,0.0,0.0,0.0,0.0,0.0,0.0,0.0,0.9917,0.0,1.0785,1.1124,0.0,0.0,0.0,1.2627,1.3064,1.372,1.4282,1.4836,0.0,0.0,1.5622,1.5818,1.6,1.6198,1.5752,1.5398,1.5255,1.5221,1.5174,1.5131,1.512,1.5153,1.5152,1.537,1.554,1.5902,1.6022,1.6144,1.6279,1.6422,1.6524,1.6524,1.6551,1.6598,1.6741,1.6734,1.6727,1.6564,1.6544,1.6551,1.6646,1.6646,1.6687,1.3205,1.3278,1.3475,1.321,1.2682,1.2592,1.2674,1.2794,1.2571,1.2411,1.2368,1.2275,1.2049,1.1798,1.1867,1.1798,1.157,1.1807,1.195,1.2012,1.2206,1.2206,1.2185,1.2154,1.1907,1.1517,1.1494,1.1412,1.1283,1.1138,1.1183,1.1247,1.112,1.1222,1.1467,1.1735,1.1938,1.2128,1.2345,1.2246,1.1835,1.1652,1.1434,1.1317,1.1435,1.143,1.1389,1.124,1.1077,1.09,1.0717,1.0324,0.9693,0.9205,0.0,0.0,0.0,0.0,0.0,0.0,0.0,0.0,0.0,0.9103,0.9849,0.0,1.0307,0.0,1.0982,1.1382,1.1714,1.2318,0.0,0.0,1.3234,1.3796,1.3937,1.4414,1.4888,1.535,1.5677,1.5957,1.6117,1.6273,1.6334,1.6453,1.6059,1.5737,1.5696,1.5601,1.552,1.5486,1.5418,1.5425,1.5622,1.59,1.6144,1.6334,1.6395,1.6429,1.6463,1.6598,1.6693,1.6707,1.6795,1.6876,1.691,1.6924,1.6917,1.6876,1.687,1.687,1.687,1.687,1.6876,1.3075,1.3016,1.2946,1.2632,1.2096,1.2571,1.2759,1.2808,1.2564,1.2454,1.2356,1.2222,1.2089,1.1949,1.1955,1.1882,1.1755,1.1916,1.1953,1.1959,1.2032,1.1986,1.1819,1.1819,1.157,1.107,1.107,1.1031,1.0964,1.0908,1.0993,1.113,1.1071,1.1207,1.154,1.1557,1.1609,1.1752,1.1888,1.1843,1.1536,1.1265,1.1095,1.0951,1.0902,1.0811,1.0623,1.0659,1.0487,1.0292,1.0399,1.0247,0.9797,0.966,0.9279,0.0,0.0,0.0,0.0,0.0,0.0,0.0,0.0,0.0,0.0,0.0,1.1491,1.1904,1.2162,1.2488,1.2915,1.3444,1.3763,1.3756,1.4299,1.4753,1.4964,1.5276,1.5608,1.5988,1.6178,1.6334,1.649,1.6571,1.6653,1.6714,1.6449,1.6225,1.6151,1.6029,1.594,1.5934,1.5866,1.5886,1.6117,1.6293,1.6456,1.6585,1.6619,1.6646,1.6714,1.6795,1.6856,1.6856,1.6924,1.6978,1.6978,1.6978,1.6978,1.6978,1.6978,1.6978,1.6978,1.6978,1.6978,1.2561,1.2194,1.2178,1.2118,1.2119,1.2829,1.3126,1.3065,1.2704,1.2541,1.2517,1.2316,1.2262,1.2238,1.2124,1.2059,1.2035,1.1987,1.1926,1.1926,1.1914,1.1736,1.132,1.132,1.107,1.0737,1.0737,1.0737,1.0732,1.0628,1.0764,1.089,1.0856,1.0887,1.1131,1.089,1.0899,1.1015,1.113,1.1184,1.1184,1.0924,1.0735,1.0608,1.0394,1.0146,0.9734,0.9851,0.9795,0.9592,0.9949,1.0043,0.9748,0.9862,0.9806,0.0,0.942,0.0,0.0,0.0,0.0,0.0,0.0,0.0,0.0,1.1993,1.2569,1.3308,1.3376,1.3614,1.419,1.4523,1.476,1.4882,1.5282,1.5655,1.5913,1.6076,1.6273,1.6551,1.6585,1.6632,1.6754,1.6781,1.6836,1.6924,1.6836,1.6597,1.6489,1.6327,1.6313,1.6341,1.6354,1.6374,1.6497,1.6564,1.6632,1.6748,1.6781,1.6829,1.6944,1.6965,1.6978,1.6873,1.6873,1.6873,1.6768,1.6768,1.6768,1.6663,1.6663,1.6768,1.6978,1.6978,1.6978,1.2321,1.2409,1.221,1.2216,1.2371,1.2345,1.2272,1.2083,1.191,1.1777,1.1688,1.1666,1.1599,1.1504,1.1476,1.1415,1.1321,1.1193,1.1137,1.1132,1.1031,1.0904,1.082,1.082,1.0737,1.0737,1.0737,1.0737,1.0737,1.0715,1.0645,1.0688,1.0661,1.0545,1.0408,0.0,0.0,0.0,1.094,1.0719,1.0707,1.0474,1.0329,1.0294,1.0209,0.0,1.0048,0.9869,0.9722,0.9771,0.9869,0.0,0.0,0.0,0.0,0.0,0.0,0.0,0.0,0.0,0.0,0.0,1.1524,1.1972,1.2451,1.3003,1.3641,1.436,1.4441,1.4638,1.5113,1.554,1.5744,1.5669,1.6042,1.6334,1.6395,1.653,1.6693,1.687,1.689,1.6904,1.6924,1.6937,1.6944,1.6971,1.6951,1.6714,1.6256,1.6337,1.649,1.649,1.6469,1.6563,1.67,1.6698,1.6772,1.6937,1.6937,1.6944,1.6971,1.6978,1.6768,1.6348,1.6236,1.6131,1.571,1.5605,1.571,1.5605,1.5605,1.592,1.6768,1.6978,1.6978,1.239,0.0,1.2373,1.2352,0.0,1.2286,1.2194,1.2069,1.1889,1.171,1.1542,1.1482,1.1511,1.1357,1.1302,1.1237,1.1183,1.1063,1.0976,1.0916,1.0857,1.0797,1.0737,1.0737,1.0737,1.0737,1.0737,1.0737,1.0737,1.0737,1.0677,1.0558,1.0558,1.0465,1.0297,1.0231,1.0347,1.0549,1.0374,1.033,1.0325,1.0145,1.0,0.9871,0.979,0.0,0.0,0.0,0.0,0.0,0.0,0.0,0.0,0.0,0.0,0.9372,0.9645,0.9938,1.0129,1.0543,1.0868,1.1137,1.1605,1.222,1.2987,1.3323,1.3784,1.4463,1.4482,1.461,1.5026,1.557,1.5896,1.5903,1.6359,1.6748,1.6754,1.6815,1.6897,1.6958,1.6768,1.6558,1.6558,1.6341,1.6131,1.6131,1.6131,1.6026,1.5796,1.5944,1.6117,1.5815,1.5866,1.5944,1.6008,1.6073,1.6131,1.6131,1.6131,1.6131,1.6131,1.6131,1.6026,1.5809,1.571,1.5605,1.5388,1.5283,1.5283,1.5283,1.5283,1.5493,1.6026,1.6131,1.6242,1.2536,1.2536,1.2509,1.246,1.2384,1.2362,1.2352,1.2436,0.0,0.0,0.0,1.1542,1.1487,1.1476,1.1357,1.1302,1.1297,1.1183,1.1079,1.0982,1.096,1.0884,1.0686,1.077,1.0675,1.0737,1.0737,1.0737,1.0737,1.0737,1.0688,1.0596,1.0585,1.053,1.0422,1.0394,1.0237,0.98,0.9958,1.0074,1.0052,0.9855,0.9618,0.9478,0.9191,0.877,0.8085,0.8237,0.8083,0.7526,0.7625,0.7777,0.7752,0.8131,0.8412,0.8702,0.9271,0.9717,0.9973,1.0264,1.053,1.0926,1.1161,1.1876,1.3046,1.3222,1.3483,1.4137,1.4071,1.4243,1.4711,1.5165,1.5518,1.5736,1.6374,1.6656,1.6663,1.6663,1.6656,1.6663,1.6236,1.592,1.592,1.5605,1.5283,1.5283,1.5388,1.5283,1.5271,1.5505,1.5638,1.5332,1.524,1.5271,1.5252,1.5388,1.5283,1.5388,1.5388,1.5283,1.5283,1.5178,1.5072,1.4967,1.4967,1.4967,1.4862,1.4862,1.4967,1.4967,1.4967,1.4967,1.4967,1.4973,1.5184,1.2536,1.2526,1.2422,1.2433,1.2504,1.2401,1.2352,1.2341,1.2205,1.2015,1.1786,1.1667,1.1607,1.1607,1.1487,1.1427,1.1511,1.1308,1.1237,1.1215,1.1123,1.1014,1.0895,1.0895,1.0835,1.0742,1.0737,1.0737,1.0737,1.0737,1.0726,1.071,1.071,1.065,1.0536,1.0433,1.0201,0.9752,1.0164,1.0286,1.0177,0.9667,0.9392,0.9259,0.8686,0.8122,0.7705,0.7654,0.7334,0.6656,0.6672,0.6667,0.6477,0.689,0.7217,0.7485,0.8199,0.8628,0.8515,0.9044,0.9407,0.9675,0.9591,1.045,1.258,1.2601,1.2793,1.3471,1.333,1.3574,1.4342,1.4482,1.4691,1.5246,1.5481,1.55,1.5599,1.5605,1.5605,1.5599,1.5493,1.5388,1.5388,1.5283,1.5178,1.5283,1.5072,1.5078,1.4756,1.506,1.5364,1.5258,1.5258,1.5265,1.5172,1.5283,1.5178,1.5283,1.5178,1.4967,1.4967,1.4651,1.4229,1.3919,1.3708,1.3602,1.3285,1.3496,1.3708,1.3813,1.3813,1.3919,1.3919,1.3919,1.4235,1.2629,1.2613,1.2504,1.2449,1.2433,1.2379,1.2314,1.2259,1.2365,1.214,1.1917,1.1851,1.1754,1.1634,1.158,1.1514,1.1538,1.1395,1.1335,1.127,1.1215,1.1134,1.1025,1.102,1.0954,1.084,1.0835,1.0802,1.0742,1.0737,1.0737,1.0654,1.0487,1.0377,1.0325,1.003,0.967,0.9172,0.9718,0.9874,0.9577,0.9128,0.8814,0.8632,0.7916,0.7233,0.6808,0.6616,0.6193,0.5686,0.5472,0.5419,0.5369,0.5576,0.5869,0.6098,0.6671,0.7072,0.7107,0.7387,0.7625,0.779,0.7672,0.8109,0.9263,1.0345,1.1185,1.1573,1.1573,1.1792,1.253,1.2852,1.3275,1.3919,1.444,1.4756,1.4862,1.5072,1.5283,1.5283,1.4973,1.4762,1.4762,1.4551,1.4341,1.4341,1.4341,1.4235,1.403,1.3919,1.4019,1.4341,1.4341,1.4341,1.4341,1.413,1.4024,1.3919,1.3702,1.3385,1.3069,1.2752,1.2435,1.1906,1.1796,1.18,1.1805,1.2017,1.2334,1.2651,1.2968,1.3074,1.318,1.3391,1.3919,1.2748,1.2738,1.2623,1.2487,1.2357,1.2352,1.2286,1.2194,1.233,1.2275,1.208,1.2015,1.1884,1.1721,1.1661,1.1569,1.1465,1.1543,1.14,1.1319,1.1313,1.1253,1.115,1.1139,1.1079,1.0971,1.0875,1.0742,1.0656,1.0456,1.043,1.0325,0.9986,0.9736,0.982,0.9235,0.8729,0.8303,0.8665,0.8743,0.8554,0.8229,0.7859,0.7617,0.6886,0.6221,0.5776,0.5368,0.5008,0.445,0.4131,0.395,0.3911,0.404,0.4238,0.4508,0.4932,0.5313,0.5487,0.5585,0.5585,0.5609,0.5634,0.5702,0.5913,0.7359,0.8678,0.9311,0.9458,0.9674,1.0318,1.0843,1.1372,1.2012,1.2852,1.338,1.3697,1.4124,1.444,1.444,1.413,1.3813,1.3708,1.3496,1.3285,1.318,1.318,1.318,1.318,1.2757,1.2651,1.2863,1.3074,1.3074,1.3074,1.2757,1.244,1.2228,1.1694,1.1271,1.0954,1.0636,1.0212,0.9784,0.9674,0.978,1.0212,1.0636,1.0848,1.1271,1.1805,1.244,1.2863,1.3074,1.3602,1.2868,1.2852,1.2738,1.2558,1.2373,1.2357,1.2286,1.221,1.2417,1.2444,1.2303,1.2091,1.1987,1.1928,1.1732,1.1574,1.1465,1.1543,1.1449,1.1433,1.1527,1.1373,1.1264,1.1253,1.1199,1.101,1.0568,1.0386,1.027,0.9843,0.9582,0.95,0.9068,0.8808,0.8729,0.7972,0.7387,0.6888,0.6536,0.6663,0.7263,0.6927,0.6479,0.5919,0.5518,0.5029,0.4621,0.4301,0.3683,0.2852,0.248,0.2087,0.1845,0.2131,0.2436,0.2496,0.2941,0.3307,0.3465,0.3423,0.3512,0.3468,0.3452,0.348,0.3673,0.3786,0.4862,0.6549,0.7125,0.7444,0.7977,0.8508,0.9148,0.9678,1.0314,1.0843,1.1271,1.1487,1.1699,1.2118,1.2228,1.2122,1.2122,1.2122,1.2017,1.2012,1.2017,1.2012,1.1906,1.1487,1.1165,1.1382,1.1699,1.1699,1.1487,1.1276,1.0954,1.0526,0.9996,0.9572,0.9254,0.872,0.7977,0.7977,0.7871,0.7977,0.8296,0.8724,0.9466,0.9678,1.0424,1.1487,1.244,1.2863,1.3074,1.289,1.2884,1.2835,1.2716,1.2553,1.2417,1.2324,1.2297,1.2384,1.2439,1.2353,1.1963,1.1942,1.2085,1.1851,1.1677,1.1563,1.1487,1.1277,1.101,1.101,1.0806,1.0588,1.0495,1.0352,0.9903,0.9724,0.9431,0.9103,0.8843,0.8603,0.8222,0.7749,0.7387,0.7052,0.655,0.5963,0.5547,0.5041,0.4779,0.4679,0.5174,0.5247,0.4645,0.4065,0.3496,0.3017,0.2622,0.2215,0.1888,0.1742,0.1583,0.1414,0.1535,0.166,0.1789,0.2034,0.2162,0.2252,0.2234,0.2238,0.2269,0.2263,0.2285,0.2348,0.2356,0.2785,0.3659,0.4738,0.5503,0.6058,0.6706,0.7237,0.7765,0.8402,0.8826,0.9038,0.9678,1.0212,1.0424,1.0737,1.0843,1.0954,1.0843,1.0843,1.0843,1.0843,1.0737,1.042,0.9894,0.9466,0.9148,0.9042,0.9254,0.9784,0.9466,0.9042,0.872,0.819,0.7874,0.7343,0.7131,0.66,0.6174,0.6174,0.6281,0.6706,0.6918,0.745,0.7874,0.883,0.9894,1.1055,1.18,1.244,1.2484,1.2484,1.2484,1.2421,1.2196,1.21,1.1994,1.1973,1.1968,1.1935,1.1845,1.1455,1.1386,1.1433,1.1475,1.1376,1.1224,1.1019,1.0694,1.0337,1.0218,0.9937,0.9674,0.9491,0.9189,0.8774,0.8501,0.8105,0.7588,0.7533,0.7313,0.6942,0.6466,0.5927,0.5488,0.4907,0.4405,0.3974,0.3472,0.297,0.2547,0.3226,0.3643,0.3212,0.2627,0.213,0.1804,0.1378,0.1126,0.1135,0.1059,0.0978,0.0981,0.1008,0.1033,0.1056,0.1173,0.1179,0.1162,0.1158,0.1163,0.1176,0.1178,0.1191,0.1217,0.1225,0.123,0.1343,0.2496,0.3562,0.4132,0.468,0.5217,0.5643,0.6278,0.6809,0.7022,0.7871,0.8511,0.872,0.8932,0.925,0.925,0.925,0.9144,0.9144,0.925,0.9144,0.872,0.8193,0.7662,0.7022,0.6384,0.66,0.7981,0.7659,0.7022,0.6597,0.6174,0.543,0.5113,0.5007,0.4794,0.4047,0.4155,0.4263,0.4473,0.4792,0.5536,0.6281,0.7131,0.8193,0.9572,1.053,1.1483,1.1383,1.1383,1.1383,1.1325,1.1116,1.1104,1.1003,1.0926,1.0821,1.068,1.037,1.0193,1.0037,0.9682,1.0199,1.053,1.0248,0.9771,0.9445,0.9342,0.8909,0.8688,0.8595,0.8234,0.7963,0.7773,0.706,0.6323,0.5825,0.5726,0.5698,0.5559,0.5031,0.4661,0.4115,0.3281,0.2591,0.2227,0.1811,0.1475,0.1388,0.1475,0.1554,0.1457,0.1381,0.1388,0.1304,0.0966,0.0706,0.0707,0.0357,0.0,0.0,0.0,0.0,0.0,0.0,0.0,0.0,0.0,0.0,0.0,0.0,0.0,0.0,0.0,0.0,0.0,0.0821,0.1448,0.189,0.2649,0.2981,0.309,0.3835,0.4579,0.5109,0.5749,0.6387,0.6703,0.6916,0.7131,0.7025,0.6916,0.7022,0.7022,0.7022,0.6916,0.6703,0.6387,0.5855,0.5111,0.4474,0.4157,0.5645,0.5536,0.5005,0.4579,0.394,0.309,0.2664,0.2344,0.2131,0.2025,0.2344,0.2344,0.2131,0.2664,0.3623,0.4473,0.543,0.66,0.7662,0.883,0.9996,1.0275,1.0275,1.0275,1.0253,1.0214,1.0123,1.0028,0.9848,0.9549,0.9338,0.9047,0.8551,0.8194,0.7976,0.7847,0.8299,0.8942,0.87,0.8148,0.7555,0.7342,0.7124,0.6726,0.6541,0.6273,0.6004,0.5736,0.5102,0.437,0.4252,0.3891,0.3364,0.3083,0.2804,0.236,0.2017,0.166,0.1558,0.1128,0.0957,0.0871,0.0613,0.0438,0.0524,0.0783,0.0785,0.0527,0.0355,0.0269,0.027,0.0,0.0,0.0,0.0,0.0,0.0,0.0,0.0,0.0,0.0,0.0,0.0,0.0,0.0,0.0,0.0,0.0,0.0,0.0,0.0412,0.0,0.1472,0.2013,0.2129,0.2344,0.277,0.2983,0.341,0.3942,0.4155,0.4687,0.5324,0.5539,0.5751,0.5539,0.5217,0.5219,0.49,0.4261,0.3942,0.3729,0.3089,0.2664,0.2557,0.2983,0.309,0.2877,0.2664,0.2344,0.2131,0.1918,0.1812,0.1705,0.1598,0.1492,0.1492,0.1598,0.1812,0.2664,0.277,0.3728,0.4792,0.5536,0.7025,0.8511,0.8665,0.8665,0.8665,0.8665,0.8654,0.8481,0.842,0.8362,0.7921,0.7689,0.7488,0.6866,0.639,0.6087,0.5725,0.5786,0.6438,0.6895,0.6808,0.6097,0.5783,0.5371,0.5053,0.4671,0.4395,0.4124,0.3855,0.3499,0.2959,0.2851,0.2496,0.1882,0.1782,0.1596,0.115,0.1064,0.106,0.0876,0.0614,0.0527,0.044,0.0178,0.0,0.0,0.0356,0.0356,0.0,0.0,0.0,0.0,0.0,0.0,0.0,0.0,0.0,0.0,0.0,0.0,0.0,0.0,0.0,0.0,0.0,0.0,0.0,0.0,0.0,0.0,0.0,0.0,0.0,0.0731,0.1158,0.1169,0.1279,0.1385,0.1492,0.1918,0.2344,0.2557,0.2983,0.3623,0.3942,0.3942,0.3835,0.3516,0.341,0.309,0.2558,0.2345,0.2131,0.1598,0.1492,0.1385,0.0,0.0,0.0,0.1598,0.0,0.0,0.0,0.0,0.0,0.0,0.0,0.0,0.1172,0.1385,0.1385,0.1492,0.2238,0.3303,0.4368,0.5432,0.6918,0.6556,0.6556,0.6452,0.6556,0.6648,0.6398,0.6365,0.6341,0.6053,0.5746,0.5468,0.5347,0.4775,0.4113,0.3927,0.3434,0.3226,0.4457,0.5087,0.4938,0.4114,0.3691,0.356,0.2802,0.2516,0.2333,0.1795,0.1526,0.1526,0.1525,0.1436,0.1347,0.1348,0.1073,0.0708,0.0715,0.0447,0.0,0.0,0.0,0.0,0.0,0.0,0.0,0.0,0.0,0.0,0.0,0.0,0.0,0.0,0.0,0.0,0.0,0.0,0.0,0.0,0.0,0.0,0.0,0.0,0.0,0.0,0.0,0.0,0.0,0.0,0.0,0.0,0.0,0.0,0.0,0.0,0.0106,0.0639,0.0853,0.0959,0.1385,0.1705,0.1705,0.1918,0.1705,0.1812,0.2131,0.2131,0.2025,0.1918,0.1812,0.1598,0.1598,0.1385,0.1066,0.0853,0.0746,0.0,0.0,0.0,0.0,0.0,0.0,0.0,0.0,0.0,0.0,0.0,0.0,0.0,0.0639,0.0853,0.0959,0.1598,0.2025,0.2983,0.4047,0.5111,0.5349,0.5349,0.5349,0.5352,0.5248,0.4929,0.4706,0.4577,0.3854,0.3434,0.3212,0.2927,0.2633,0.2435,0.2348,0.216,0.1964,0.2559,0.2739,0.2603,0.2392,0.2174,0.2049,0.175,0.1638,0.1619,0.1436,0.1257,0.0988,0.0898,0.0811,0.0453,0.0,0.0363,0.0,0.0181,0.009,0.0,0.0,0.0,0.0,0.0,0.0,0.0,0.0,0.0,0.0,0.0,0.0,0.0,0.0,0.0,0.0,0.0,0.0,0.0,0.0,0.0,0.0,0.0,0.0,0.0,0.0,0.0,0.0,0.0,0.0,0.0,0.0,0.0,0.0,0.0,0.0,0.0,0.0213,0.0,0.0,0.0,0.0746,0.1066,0.1172,0.1279,0.1598,0.1705,0.1492,0.1172,0.1172,0.1066,0.0639,0.0,0.0533,0.032,0.0213,0.0,0.0,0.0,0.0,0.0,0.0,0.0,0.0,0.0,0.0,0.0,0.0,0.0,0.0,0.0,0.0,0.0,0.0959,0.1279,0.1705,0.2557,0.3728,0.3636,0.3636,0.3635,0.3636,0.3636,0.3231,0.3121,0.3002,0.2393,0.2077,0.1961,0.1758,0.146,0.1358,0.1266,0.1172,0.1075,0.0986,0.0984,0.0974,0.1167,0.1254,0.1138,0.0933,0.0921,0.0909,0.0901,0.0718,0.0449,0.0449,0.027,0.0,0.0,0.0,0.0,0.0,0.0,0.0,0.0,0.0,0.0,0.0,0.0,0.0,0.0,0.0,0.0,0.0,0.0,0.0,0.0,0.0,0.0,0.0,0.0,0.0,0.0,0.0,0.0,0.0,0.0,0.0,0.0,0.0,0.0,0.0,0.0,0.0,0.0,0.0,0.0,0.0,0.0,0.0,0.0,0.0,0.0,0.0,0.0,0.0533,0.0533,0.0746,0.0959,0.1066,0.0959,0.0639,0.0533,0.0533,0.0,0.0,0.0,0.0,0.0,0.0,0.0,0.0,0.0,0.0,0.0,0.0,0.0,0.0,0.0,0.0,0.0,0.0,0.0,0.0,0.0,0.0,0.0,0.0746,0.1172,0.1492,0.2343,0.1616,0.1616,0.1616,0.1717,0.1717,0.1717,0.1717,0.1613,0.1502,0.1494,0.1388,0.1371,0.1067,0.0774,0.0775,0.0581,0.0,0.0,0.0,0.0,0.049,0.0682,0.0675,0.0378,0.0,0.0,0.0,0.0,0.0,0.0,0.0,0.0,0.0,0.0,0.0,0.0,0.0,0.0,0.0,0.0,0.0,0.0,0.0,0.0,0.0,0.0,0.0,0.0,0.0,0.0,0.0,0.0,0.0,0.0,0.0,0.0,0.0,0.0,0.0,0.0,0.0,0.0,0.0,0.0,0.0,0.0,0.0,0.0,0.0,0.0,0.0,0.0,0.0,0.0,0.0,0.0,0.0,0.0,0.0,0.0,0.0,0.0,0.0,0.0,0.0,0.0,0.0,0.0,0.0,0.0,0.0,0.0,0.0,0.0,0.0,0.0,0.0,0.0,0.0,0.0,0.0,0.0,0.0,0.0,0.0,0.0,0.0,0.0,0.0,0.0,0.0,0.0,0.0,0.0,0.1279,0.1616,0.1616,0.1616,0.1616,0.1515,0.1212,0.101,0.101,0.0605,0.0,0.0,0.0396,0.0,0.0,0.0,0.0096,0.0,0.0,0.0,0.0,0.0098,0.0196,0.0195,0.0,0.0,0.0,0.0,0.0,0.0,0.0,0.0,0.0,0.0,0.0,0.0,0.0,0.0,0.0,0.0,0.0,0.0,0.0,0.0,0.0,0.0,0.0,0.0,0.0,0.0,0.0,0.0,0.0,0.0,0.0,0.0,0.0,0.0,0.0,0.0,0.0,0.0,0.0,0.0,0.0,0.0,0.0,0.0,0.0,0.0,0.0,0.0,0.0,0.0,0.0,0.0,0.0,0.0,0.0,0.0,0.0,0.0,0.0,0.0,0.0,0.0,0.0,0.0,0.0,0.0,0.0,0.0,0.0,0.0,0.0,0.0,0.0,0.0,0.0,0.0,0.0,0.0,0.0,0.0,0.0,0.0,0.0,0.0,0.0,0.0,0.0,0.0,0.0,0.0,0.0,0.0,0.0909,0.0909,0.0909,0.0909,0.0909,0.0606,0.0505,0.0404,0.0,0.0,0.0,0.0,0.0,0.0,0.0,0.0,0.0,0.0,0.0,0.0,0.0,0.0,0.0,0.0,0.0,0.0,0.0,0.0,0.0,0.0,0.0,0.0,0.0,0.0,0.0,0.0,0.0,0.0,0.0,0.0,0.0,0.0,0.0,0.0,0.0,0.0,0.0,0.0,0.0,0.0,0.0,0.0,0.0,0.0,0.0,0.0,0.0,0.0,0.0,0.0,0.0,0.0,0.0,0.0,0.0,0.0,0.0,0.0,0.0,0.0,0.0,0.0,0.0,0.0,0.0,0.0,0.0,0.0,0.0,0.0,0.0,0.0,0.0,0.0,0.0,0.0,0.0,0.0,0.0,0.0,0.0,0.0,0.0,0.0,0.0,0.0,0.0,0.0,0.0,0.0,0.0,0.0,0.0,0.0,0.0,0.0,0.0,0.0,0.0,0.0,0.0,0.0,0.0,0.0,0.0,0.0,0.0,0.0,0.0,0.0,0.0,0.0,0.0,0.0,0.0,0.0,0.0,0.0,0.0,0.0,0.0,0.0,0.0,0.0,0.0,0.0,0.0,0.0,0.0,0.0,0.0,0.0,0.0,0.0,0.0,0.0,0.0,0.0,0.0,0.0,0.0,0.0,0.0,0.0,0.0,0.0,0.0,0.0,0.0,0.0,0.0,0.0,0.0,0.0,0.0,0.0,0.0,0.0,0.0,0.0,0.0,0.0,0.0,0.0,0.0,0.0,0.0,0.0,0.0,0.0,0.0,0.0,0.0,0.0,0.0,0.0,0.0,0.0,0.0,0.0,0.0,0.0,0.0,0.0,0.0,0.0,0.0,0.0,0.0,0.0,0.0,0.0,0.0,0.0,0.0,0.0,0.0,0.0,0.0,0.0,0.0,0.0,0.0,0.0,0.0,0.0,0.0,0.0,0.0,0.0,0.0,0.0,0.0,0.0,0.0,0.0,0.0,0.0,0.0,0.0,0.0,0.0,0.0,0.0,0.0,0.0,0.0,0.0,0.0,0.0,0.0,0.0,0.0,0.0,0.0,0.0,0.0,0.0,0.0,0.0,0.0,0.0,0.0,0.0,0.0,0.0,0.0,0.0,0.0,0.0,0.0,0.0,0.0,0.0,0.0,0.0,0.0,0.0,0.0,0.0,0.0,0.0,0.0,0.0,0.0,0.0,0.0,0.0,0.0,0.0,0.0,0.0,0.0,0.0,0.0,0.0,0.0,0.0,0.0,0.0,0.0,0.0,0.0,0.0,0.0,0.0,0.0,0.0,0.0,0.0,0.0,0.0,0.0,0.0,0.0,0.0,0.0,0.0,0.0,0.0,0.0,0.0,0.0,0.0,0.0,0.0,0.0,0.0,0.0,0.0,0.0,0.0,0.0,0.0,0.0,0.0,0.0,0.0,0.0,0.0,0.0,0.0,0.0,0.0,0.0,0.0,0.0,0.0,0.0,0.0,0.0,0.0,0.0,0.0,0.0,0.0,0.0,0.0,0.0,0.0,0.0,0.0,0.0,0.0,0.0,0.0,0.0,0.0,0.0,0.0,0.0,0.0,0.0,0.0,0.0,0.0,0.0,0.0,0.0,0.0,0.0,0.0,0.0,0.0,0.0,0.0,0.0,0.0,0.0,0.0,0.0,0.0,0.0,0.0,0.0,0.0,0.0,0.0,0.0,0.0,0.0,0.0,0.0,0.0,0.0,0.0,0.0,0.0,0.0,0.0,0.0,0.0,0.0,0.0,0.0,0.0,0.0,0.0,0.0,0.0,0.0,0.0,0.0,0.0,0.0,0.0,0.0,0.0,0.0,0.0,0.0,0.0,0.0,0.0,0.0,0.0,0.0,0.0,0.0,0.0,0.0,0.0,0.0,0.0,0.0,0.0,0.0,0.0,0.0,0.0,0.0,0.0,0.0,0.0,0.0,0.0,0.0,0.0,0.0,0.0,0.0,0.0,0.0,0.0,0.0,0.0,0.0,0.0,0.0,0.0,0.0,0.0,0.0,0.0,0.0,0.0,0.0,0.0,0.0,0.0,0.0,0.0,0.0,0.0,0.0,0.0,0.0,0.0,0.0,0.0,0.0,0.0,0.0,0.0,0.0,0.0,0.0,0.0,0.0,0.0,0.0,0.0,0.0,0.0,0.0,0.0,0.0,0.0,0.0,0.0,0.0,0.0,0.0,0.0,0.0,0.0,0.0,0.0,0.0,0.0,0.0,0.0,0.0,0.0,0.0,0.0,0.0,0.0,0.0,0.0,0.0,0.0,0.0,0.0,0.0,0.0,0.0,0.0,0.0,0.0,0.0,0.0,0.0,0.0,0.0,0.0,0.0,0.0,0.0,0.0,0.0,0.0,0.0,0.0,0.0,0.0,0.0,0.0,0.0,0.0,0.0,0.0,0.0,0.0,0.0,0.0,0.0,0.0,0.0,0.0,0.0,0.0,0.0,0.0,0.0,0.0,0.0,0.0,0.0,0.0,0.0,0.0,0.0,0.0,0.0,0.0,0.0,0.0,0.0,0.0,0.0,0.0,0.0,0.0,0.0,0.0,0.0,0.0,0.0,0.0,0.0,0.0,0.0,0.0,0.0,0.0,0.0,0.0,0.0,0.0,0.0,0.0,0.0,0.0,0.0,0.0,0.0,0.0,0.0,0.0,0.0,0.0,0.0,0.0,0.0,0.0,0.0,0.0,0.0,0.0,0.0,0.0,0.0,0.0,0.0,0.0,0.0,0.0,0.0,0.0,0.0,0.0,0.0,0.0,0.0,0.0,0.0,0.0,0.0,0.0,0.0,0.0,0.0,0.0,0.0,0.0,0.0,0.0,0.0,0.0,0.0,0.0,0.0,0.0,0.0,0.0,0.0,0.0,0.0,0.0,0.0,0.0,0.0,0.0,0.0,0.0,0.0,0.0,0.0,0.0,0.0,0.0,0.0,0.0,0.0,0.0,0.0,0.0,0.0,0.0,0.0,0.0,0.0,0.0,0.0,0.0,0.0,0.0,0.0,0.0,0.0,0.0,0.0,0.0,0.0,0.0,0.0,0.0,0.0,0.0,0.0,0.0,0.0,0.0,0.0,0.0,0.0,0.0,0.0,0.0,0.0,0.0,0.0,0.0,0.0,0.0,0.0,0.0,0.0,0.0,0.0,0.0,0.0,0.0,0.0,0.0,0.0,0.0,0.0,0.0,0.0,0.0,0.0,0.0,0.0,0.0,0.0,0.0,0.0,0.0,0.0,0.0,0.0,0.0,0.0,0.0,0.0,0.0,0.0,0.0,0.0,0.0,0.0,0.0,0.0,0.0,0.0,0.0,0.0,0.0,0.0,0.0,0.0,0.0,0.0,0.0,0.0,0.0,0.0,0.0,0.0,0.0,0.0,0.0,0.0,0.0,0.0,0.0,0.0,0.0,0.0,0.0,0.0,0.0,0.0,0.0,0.0,0.0,0.0,0.0,0.0,0.0,0.0,0.0,0.0,0.0,0.0,0.0,0.0,0.0,0.0,0.0,0.0,0.0,0.0,0.0,0.0,0.0,0.0,0.0,0.0,0.0,0.0,0.0,0.0,0.0,0.0,0.0,0.0,0.0,0.0,0.0,0.0,0.0,0.0,0.0,0.0,0.0,0.0,0.0,0.0,0.0,0.0,0.0,0.0,0.0,0.0,0.0,0.0,0.0,0.0,0.0,0.0,0.0,0.0,0.0,0.0,0.0,0.0,0.0,0.0,0.0,0.0,0.0,0.0,0.0,0.0,0.0,0.0,0.0,0.0,0.0,0.0,0.0,0.0,0.0,0.0,0.0,0.0,0.0,0.0,0.0,0.0,0.0,0.0,0.0,0.0,0.0,0.0,0.0,0.0,0.0,0.0,0.0,0.0,0.0,0.0,0.0,0.0,0.0,0.0,0.0,0.0,0.0,0.0,0.0,0.0,0.0,0.0,0.0,0.0,0.0,0.0,0.0,0.0,0.0,0.0,0.0,0.0,0.0,0.0,0.0,-0.0213,0.0,0.0,0.0,0.0,0.0,0.0,0.0,0.0,0.0,0.0,0.0,0.0,0.0,0.0,0.0,0.0,0.0,0.0,0.0,0.0,0.0,0.0,0.0,0.0,0.0,0.0,0.0,0.0,0.0,0.0,0.0,0.0,0.0,0.0,0.0,0.0,0.0,0.0,0.0,0.0,0.0,0.0,0.0,0.0,0.0,0.0,0.0,0.0,0.0,0.0,0.0,0.0,0.0,0.0,0.0,0.0,0.0,0.0,0.0,0.0,0.0,0.0,0.0,0.0,0.0,0.0,0.0,0.0,0.0,0.0,0.0,0.0,0.0,0.0,0.0,0.0,0.0,0.0,0.0,0.0,0.0,0.0,0.0,0.0,0.0,0.0,0.0,0.0,0.0,0.0,0.0,0.0,0.0,0.0,0.0,0.0,0.0,0.0,0.0,0.0,0.0,0.0,0.0,0.0,0.0,0.0,-0.1065,-0.1172,-0.1385,0.0,0.0,-0.1492,-0.1385,-0.1279,-0.1172,-0.1172,-0.1066,-0.1066,-0.1279,0.0,-0.1492,-0.1279,0.0,0.0,0.0,0.0,0.0,0.0,0.0,0.0,0.0,0.0,0.0,0.0,0.0,0.0,0.0,0.0,0.0,0.0,0.0,0.0,0.0,0.0,0.0,0.0,0.0,0.0,0.0,0.0,0.0,0.0,0.0,0.0,0.0,0.0,0.0,0.0,0.0,0.0,0.0,0.0,0.0,0.0,0.0,0.0,0.0,0.0,0.0,0.0,0.0,0.0,0.0,0.0,0.0,0.0,0.0,0.0,0.0,0.0,0.0,0.0,0.0,0.0,0.0,0.0,0.0,0.0,0.0,0.0,0.0,0.0,0.0,0.0,-0.0426,-0.0533,-0.0853,-0.0959,-0.0959,-0.0959,0.0,0.0,-0.0959,-0.1172,-0.1279,0.0,0.0,0.0,0.0,0.0,0.0,0.0,0.0,0.0,0.0,0.0,0.0,0.0,0.0,0.0,0.0,-0.2449,-0.245,-0.2557,-0.2763,-0.2765,-0.2662,-0.2555,-0.2236,-0.1918,-0.1598,-0.1598,-0.1705,-0.1812,-0.1918,-0.1812,-0.1598,0.0,0.0,0.0,0.0,0.0,0.0,0.0,0.0,0.0,0.0,0.0,0.0,0.0,0.0,0.0,0.0,0.0,0.0,0.0,0.0,0.0,0.0,0.0,0.0,0.0,0.0,0.0,0.0,0.0,0.0,0.0,0.0,0.0,0.0,0.0,0.0,0.0,0.0,0.0,0.0,0.0,0.0,0.0,0.0,0.0,0.0,0.0,0.0,0.0,0.0,0.0,0.0,0.0,0.0,0.0,0.0,0.0,0.0,0.0,0.0,0.0,0.0,0.0,0.0,0.0,-0.0213,0.0,0.0,0.0,0.0,-0.0746,-0.1172,-0.1492,-0.1705,-0.1918,-0.2025,-0.2131,-0.2238,-0.2237,-0.2237,-0.2344,-0.2664,-0.2664,-0.2556,0.0,0.0,0.0,-0.2131,-0.2131,-0.2238,-0.2131,-0.1811,-0.1917,-0.2343,-0.2664,-0.277,-0.2985,-0.3404,-0.3826,-0.4032,-0.4133,-0.4227,-0.4422,-0.4224,-0.4132,-0.4224,-0.4312,-0.3176,-0.2131,-0.2345,-0.2452,-0.2345,-0.2239,-0.2131,-0.2131,0.0,0.0,0.0,0.0,0.0,0.0,0.0,0.0,0.0,0.0,0.0,0.0,0.0,0.0,0.0,0.0,0.0,0.0,0.0,0.0,0.0,0.0,0.0,0.0,0.0,0.0,0.0,0.0,0.0,0.0,0.0,0.0,0.0,0.0,0.0,0.0,0.0,0.0,0.0,0.0,0.0,0.0,0.0,0.0,0.0,0.0,0.0,0.0,0.0,0.0,0.0,0.0,0.0,-0.0707,-0.0909,-0.1111,-0.1313,-0.1417,-0.1425,-0.0721,0.0,0.0,0.0,-0.0533,-0.0959,-0.0959,-0.1066,-0.1492,-0.1598,-0.1812,-0.2131,-0.2451,-0.277,-0.3195,-0.3515,-0.3621,-0.3728,-0.3621,-0.3621,-0.3515,-0.3834,-0.4366,-0.5005,-0.5003,-0.4047,-0.3621,-0.3513,-0.3834,-0.3621,-0.3621,-0.3515,-0.3408,-0.3408,-0.3728,-0.426,-0.4575,-0.5093,-0.5499,-0.5802,-0.5897,-0.5885,-0.5971,-0.6374,-0.6369,-0.6379,-0.6358,-0.6145,-0.5247,-0.4333,-0.3615,-0.3304,-0.3198,-0.3198,-0.3091,-0.3091,0.0,0.0,0.0,0.0,0.0,0.0,0.0,0.0,0.0,0.0,0.0,0.0,0.0,0.0,0.0,0.0,0.0,0.0,0.0,0.0,0.0,0.0,0.0,0.0,0.0,0.0,0.0,0.0,0.0,0.0,0.0,0.0,0.0,0.0,0.0,0.0,0.0,0.0,0.0,0.0,0.0,0.0,0.0,0.0,0.0,0.0,0.0,0.0,0.0,-0.0903,-0.1008,-0.111,-0.1313,-0.1616,-0.1919,-0.2121,-0.2423,-0.253,-0.2444,-0.1648,-0.1044,-0.1164,0.0,-0.1705,-0.1918,-0.2238,-0.245,-0.2664,-0.277,-0.3196,-0.3623,-0.3942,-0.4366,-0.4898,-0.5217,-0.5428,-0.5534,-0.5534,-0.5747,-0.5959,-0.6278,-0.6703,-0.734,-0.7871,-0.66,-0.543,-0.543,-0.5428,-0.5322,-0.5322,-0.5428,-0.5534,-0.564,-0.6056,-0.648,-0.6885,-0.7285,-0.757,-0.7856,-0.7831,-0.7915,-0.8327,-0.8618,-0.86,-0.838,-0.8273,-0.7873,-0.7396,-0.6499,-0.5279,-0.4566,-0.4263,-0.4157,-0.405,-0.3944,0.0,0.0,0.0,0.0,0.0,0.0,0.0,0.0,0.0,0.0,0.0,0.0,0.0,0.0,0.0,0.0,0.0,0.0,0.0,0.0,0.0,0.0,0.0,0.0,0.0,0.0,0.0,0.0,0.0,0.0,0.0,0.0,0.0,0.0,0.0,0.0,0.0,0.0,-0.0194,-0.0193,0.0,0.0,0.0,0.0,0.0,0.0,-0.1396,-0.1502,-0.1806,-0.2014,-0.2121,-0.2322,-0.2523,-0.2826,-0.3028,-0.3332,-0.3638,-0.3748,-0.3673,-0.2896,-0.22,-0.223,-0.245,-0.277,-0.3196,-0.3621,-0.394,-0.426,-0.4366,-0.4685,-0.5432,-0.6068,-0.6703,-0.7234,-0.7659,-0.7871,-0.7977,-0.7974,-0.8296,-0.8614,-0.9038,-0.9564,-0.9882,-1.031,-0.9356,-0.819,-0.7765,-0.7765,-0.7659,-0.7659,-0.7765,-0.7871,-0.7974,-0.8491,-0.9108,-0.9071,-0.9135,-0.9492,-0.9764,-0.9926,-1.0004,-1.0411,-1.0381,-1.0028,-0.9922,-0.9955,-0.9668,-0.9167,-0.7996,-0.6609,-0.6127,-0.5645,-0.5326,-0.5219,-0.4794,0.0,0.0,0.0,0.0,0.0,0.0,0.0,0.0,0.0,0.0,0.0,0.0,0.0,0.0,0.0,0.0,0.0,0.0,0.0,0.0,0.0,0.0,0.0,0.0,0.0,0.0,0.0,0.0,0.0,0.0,0.0,0.0,-0.0776,0.0,0.0,0.0,0.0,0.0,0.0,-0.0872,-0.1066,-0.1456,-0.1567,-0.1679,-0.1888,-0.2099,-0.241,-0.2616,-0.2923,-0.3329,-0.3332,-0.3532,-0.3734,-0.4038,-0.424,-0.4339,-0.4744,-0.5152,-0.5565,-0.4144,-0.3779,-0.3707,-0.3921,-0.4143,-0.4363,-0.4896,-0.5534,-0.6174,-0.6597,-0.7343,-0.7981,-0.8511,-0.9144,-0.9674,-0.9992,-1.0204,-1.031,-1.031,-1.0627,-1.0945,-1.1791,-1.253,-1.2742,-1.2742,-1.1897,-1.1051,-1.0416,-1.0098,-0.9992,-1.0098,-1.0098,-1.0403,-1.05,-1.0888,-1.1277,-1.1018,-1.1068,-1.1405,-1.1637,-1.1774,-1.1725,-1.1705,-1.1666,-1.1421,-1.1541,-1.1686,-1.1382,-1.0872,-0.9967,-0.9047,-0.7604,-0.7022,-0.6706,-0.6493,-0.6281,0.0,0.0,0.0,0.0,0.0,0.0,0.0,0.0,0.0,0.0,0.0,0.0,0.0,0.0,0.0,0.0,0.0,0.0,0.0,0.0,0.0,0.0,0.0,0.0,0.0,0.0,-0.0287,-0.0575,0.0,-0.0863,-0.1246,0.0,-0.1837,-0.1845,0.0,-0.1075,0.0,0.0,-0.1855,-0.2053,-0.2346,-0.2553,-0.2669,-0.2689,-0.3004,-0.3319,-0.3532,-0.3936,-0.4339,-0.4843,-0.4944,-0.5246,-0.5649,-0.6156,-0.6254,-0.6657,-0.7163,-0.779,-0.8224,-0.7712,-0.6934,-0.6262,-0.5785,-0.6118,-0.6439,-0.7432,-0.7977,-0.8405,-0.9038,-0.9886,-1.0627,-1.1051,-1.1685,-1.2108,-1.2425,-1.2425,-1.253,-1.253,-1.2747,-1.3063,-1.3802,-1.4113,-1.4318,-1.4359,-1.3719,-1.3421,-1.268,-1.241,-1.2209,-1.242,-1.2525,-1.2816,-1.3106,-1.3268,-1.3313,-1.2802,-1.2713,-1.2931,-1.3244,-1.3558,-1.3513,-1.3106,-1.3101,-1.3001,-1.319,-1.3384,-1.2922,-1.2563,-1.244,-1.1652,-1.027,-0.9009,-0.8597,-0.8286,-0.7977,0.0,0.0,0.0,0.0,0.0,0.0,0.0,0.0,0.0,0.0,0.0,0.0,0.0,0.0,0.0,0.0,0.0,0.0,0.0,0.0,0.0,0.0,0.0,-0.0291,0.0,-0.0574,-0.1049,-0.1336,-0.1432,-0.1812,-0.2301,-0.28,-0.3197,-0.3333,-0.286,-0.277,-0.2264,-0.2556,-0.2752,-0.3059,-0.3458,-0.3767,-0.4083,-0.4202,-0.4523,-0.4843,-0.5146,-0.5551,-0.5952,-0.6556,-0.7059,-0.7361,-0.7965,-0.8166,-0.8266,-0.8668,-0.9179,-0.9605,-0.9742,-1.0362,-0.9498,-0.8818,-0.8507,-0.8459,-0.8688,-0.9476,-1.0037,-1.069,-1.1455,-1.2108,-1.2636,-1.3169,-1.3486,-1.4013,-1.4118,-1.4118,-1.4118,-1.4224,-1.4423,-1.4745,-1.5153,-1.5462,-1.5628,-1.5664,-1.5393,-1.521,-1.5026,-1.4662,-1.4184,-1.4173,-1.4155,-1.4336,-1.4475,-1.4284,-1.43,-1.4206,-1.4214,-1.4522,-1.465,-1.4682,-1.4377,-1.3889,-1.4283,-1.4476,-1.4277,-1.4083,-1.4213,-1.4066,-1.3744,-1.3462,-1.2916,-1.1668,-1.0677,-1.0183,-0.9886,0.0,0.0,0.0,0.0,0.0,0.0,0.0,0.0,0.0,0.0,0.0,0.0,0.0,0.0,0.0,0.0,0.0,0.0,0.0,0.0,0.0,-0.0587,-0.0875,-0.0968,-0.1346,-0.1722,-0.2193,-0.2574,-0.2479,-0.3335,-0.3846,-0.4088,-0.458,-0.5028,-0.5067,-0.4778,-0.4159,-0.4158,-0.4268,-0.4678,-0.5083,-0.5478,-0.5904,-0.623,-0.6651,-0.7059,-0.7462,-0.7864,-0.8367,-0.8869,-0.9271,-0.9468,-0.9669,-0.9769,-0.9769,-0.9974,-1.038,-1.069,-1.1,-1.1808,-1.2109,-1.1455,-1.0759,-1.0625,-1.0691,-1.1281,-1.1873,-1.2435,-1.3106,-1.3774,-1.4329,-1.454,-1.4856,-1.5072,-1.5283,-1.5388,-1.5382,-1.5586,-1.5784,-1.6086,-1.6269,-1.6439,-1.6333,-1.6363,-1.6111,-1.6021,-1.5841,-1.5685,-1.5308,-1.5093,-1.5179,-1.516,-1.5074,-1.4945,-1.4954,-1.5095,-1.5133,-1.5157,-1.5031,-1.4975,-1.4775,-1.4775,-1.4975,-1.4975,-1.4775,-1.4688,-1.49,-1.4957,-1.4831,-1.4572,-1.4259,-1.3783,-1.2604,-1.2079,-1.169,0.0,0.0,-0.0401,-0.06,-0.06,-0.0894,-0.0698,0.0,0.0,0.0,0.0,0.0,0.0,-0.0505,0.0,-0.0801,-0.0996,0.0,0.0,-0.1181,-0.1471,-0.1658,-0.194,-0.2318,-0.269,-0.325,-0.3718,-0.4194,-0.4668,-0.5237,-0.5743,-0.61,-0.6606,-0.7276,-0.7632,-0.7665,-0.6967,-0.6384,-0.6301,-0.6517,-0.7023,-0.7621,-0.7945,-0.8356,-0.8668,-0.897,-0.9171,-0.9271,-0.9673,-1.0079,-1.0179,-1.0375,-1.0877,-1.0877,-1.0881,-1.1378,-1.1884,-1.2384,-1.279,-1.3384,-1.3784,-1.3684,-1.3262,-1.2818,-1.2818,-1.2951,-1.3483,-1.3926,-1.451,-1.5087,-1.5431,-1.5647,-1.5765,-1.5987,-1.621,-1.6236,-1.6216,-1.6263,-1.6452,-1.6379,-1.6671,-1.6686,-1.6578,-1.6435,-1.6292,-1.6408,-1.6428,-1.6257,-1.6187,-1.5975,-1.5879,-1.5757,-1.566,-1.5424,-1.5581,-1.5824,-1.5757,-1.5691,-1.5479,-1.5379,-1.5479,-1.5479,-1.5578,-1.5479,-1.5379,-1.5479,-1.5685,-1.5638,-1.5389,-1.5503,-1.5297,-1.4976,-1.452,-1.3796,-1.3359,-0.0699,-0.0899,-0.1291,-0.1485,-0.1681,-0.2067,-0.1779,-0.1197,-0.0799,-0.0599,-0.06,0.0,-0.1102,-0.1398,-0.1693,-0.1889,-0.2177,-0.2157,-0.2244,-0.2536,-0.2822,-0.3188,-0.3466,-0.4036,-0.4596,-0.5056,-0.5715,-0.6381,-0.6758,-0.7524,-0.813,-0.8206,-0.9076,-0.9452,-0.9738,-0.9973,-0.99,-0.9257,-0.8813,-0.8858,-0.9067,-0.9464,-0.9773,-0.997,-1.017,-1.0275,-1.0375,-1.0476,-1.0781,-1.1182,-1.1282,-1.1583,-1.1984,-1.2084,-1.2484,-1.2984,-1.3284,-1.3584,-1.3884,-1.4377,-1.4676,-1.4881,-1.4981,-1.4825,-1.4522,-1.4458,-1.4747,-1.5122,-1.5757,-1.6269,-1.6399,-1.653,-1.6654,-1.6883,-1.6931,-1.6971,-1.691,-1.6725,-1.6644,-1.6556,-1.6571,-1.6483,-1.6422,-1.6388,-1.6341,-1.6313,-1.6293,-1.6206,-1.6165,-1.6205,-1.6124,-1.613,-1.6125,-1.6004,-1.6171,-1.6157,-1.6017,-1.5983,-1.5884,-1.5877,-1.6083,-1.6083,-1.5877,-1.5977,-1.5977,-1.6083,-1.5983,-1.6083,-1.5911,-1.603,-1.5978,-1.5645,-1.5321,-1.4953,-1.4615,-0.1866,-0.2358,-0.2355,-0.2742,-0.3231,-0.3324,-0.3326,-0.3231,-0.2546,-0.1864,-0.1869,-0.2278,-0.2475,-0.2764,-0.3159,-0.335,-0.3622,-0.3687,-0.3959,-0.4056,-0.461,-0.4969,-0.5728,-0.6188,-0.6859,-0.7426,-0.7996,-0.8565,-0.8944,-0.9517,-1.0031,-1.0217,-1.0591,-1.1032,-1.1415,-1.1727,-1.1758,-1.1721,-1.0928,-1.0401,-1.0223,-1.0349,-1.0672,-1.0767,-1.1073,-1.1383,-1.1583,-1.1889,-1.2189,-1.2389,-1.2684,-1.2984,-1.3184,-1.3384,-1.3884,-1.4183,-1.4283,-1.4482,-1.4682,-1.5081,-1.528,-1.5479,-1.5784,-1.5791,-1.5577,-1.5486,-1.5576,-1.573,-1.6244,-1.642,-1.646,-1.659,-1.6624,-1.6748,-1.6775,-1.6809,-1.6781,-1.668,-1.6558,-1.6463,-1.6374,-1.6293,-1.6279,-1.6246,-1.6225,-1.6144,-1.613,-1.6137,-1.6171,-1.6239,-1.6273,-1.63,-1.6225,-1.6137,-1.6123,-1.611,-1.6096,-1.6083,-1.6083,-1.6083,-1.6083,-1.6083,-1.6083,-1.6083,-1.6083,-1.6083,-1.6083,-1.6083,-1.6083,-1.6103,-1.6064,-1.6246,-1.5989,-1.5635,-1.5524,-0.2747,-0.2844,-0.331,-0.3963,-0.4706,-0.48,-0.4992,-0.5373,-0.5562,-0.4741,-0.3526,-0.3538,-0.3931,-0.4702,-0.4879,-0.506,-0.5425,-0.5771,-0.6027,-0.6502,-0.6859,-0.7423,-0.8178,-0.8652,-0.9319,-1.0172,-1.0645,-1.0838,-1.1127,-1.1416,-1.17,-1.1736,-1.2126,-1.2572,-1.2757,-1.3057,-1.338,-1.3541,-1.3028,-1.221,-1.1824,-1.1609,-1.1758,-1.2081,-1.2405,-1.2463,-1.2674,-1.2984,-1.319,-1.339,-1.3884,-1.4083,-1.4083,-1.4283,-1.4377,-1.4576,-1.4881,-1.5081,-1.528,-1.5479,-1.5778,-1.5877,-1.5983,-1.6083,-1.603,-1.6138,-1.6112,-1.6246,-1.6395,-1.6456,-1.651,-1.6544,-1.6578,-1.6598,-1.6625,-1.6639,-1.6653,-1.6517,-1.6374,-1.6273,-1.6185,-1.6151,-1.6144,-1.6123,-1.609,-1.6083,-1.609,-1.6096,-1.6103,-1.6144,-1.6157,-1.6171,-1.6151,-1.6096,-1.6083,-1.6083,-1.6083,-1.6083,-1.6083,-1.6083,-1.6083,-1.6083,-1.6083,-1.6083,-1.6083,-1.6083,-1.6083,-1.6083,-1.6083,-1.6096,-1.611,-1.6178,-1.6212,-1.5929,-1.6042,-0.4357,-0.4739,-0.5293,-0.5937,-0.6577,-0.6669,-0.7046,-0.7802,-0.8087,-0.7848,-0.706,-0.6409,-0.6221,-0.6791,-0.6954,-0.7218,-0.7681,-0.8017,-0.8573,-0.9039,-0.9319,-0.9892,-1.046,-1.0928,-1.1311,-1.1972,-1.2356,-1.2544,-1.2833,-1.311,-1.3205,-1.3205,-1.3588,-1.3901,-1.3982,-1.4368,-1.4495,-1.4559,-1.4297,-1.3818,-1.3266,-1.3,-1.2906,-1.3245,-1.3418,-1.3487,-1.3626,-1.3843,-1.3983,-1.4083,-1.4277,-1.4576,-1.4676,-1.4881,-1.4975,-1.528,-1.5479,-1.5678,-1.5778,-1.5884,-1.6083,-1.6083,-1.6083,-1.6083,-1.6083,-1.6078,-1.6078,-1.6212,-1.6218,-1.6273,-1.6307,-1.6347,-1.6408,-1.6442,-1.6503,-1.6551,-1.6503,-1.6402,-1.6273,-1.6171,-1.6117,-1.611,-1.6103,-1.6103,-1.6083,-1.6083,-1.6083,-1.6083,-1.6083,-1.6083,-1.6083,-1.6083,-1.6083,-1.6083,-1.6083,-1.6083,-1.6083,-1.6083,-1.6083,-1.6083,-1.6083,-1.6083,-1.6083,-1.6083,-1.6083,-1.6083,-1.6083,-1.6083,-1.6083,-1.6083,-1.6083,-1.6096,-1.6123,-1.6151,-1.6145,-0.6386,-0.7236,-0.7714,-0.8189,-0.866,-0.8755,-0.9324,-1.0077,-1.0271,-1.0744,-1.1047,-0.9694,-0.9195,-0.9092,-0.9303,-0.975,-1.0104,-1.0185,-1.0838,-1.1212,-1.1495,-1.1878,-1.235,-1.2827,-1.3016,-1.3299,-1.3588,-1.3776,-1.387,-1.4146,-1.4335,-1.4617,-1.4899,-1.5187,-1.5181,-1.5187,-1.5033,-1.4959,-1.477,-1.4549,-1.4355,-1.4195,-1.3915,-1.4,-1.4177,-1.4256,-1.4317,-1.4471,-1.4545,-1.4676,-1.4775,-1.5081,-1.528,-1.5379,-1.5578,-1.5784,-1.5884,-1.5977,-1.6083,-1.6083,-1.6083,-1.6083,-1.6083,-1.6083,-1.6083,-1.609,-1.609,-1.6096,-1.6103,-1.6117,-1.6157,-1.6191,-1.6252,-1.6293,-1.6368,-1.6422,-1.6347,-1.6279,-1.6185,-1.6083,-1.6083,-1.6083,-1.6083,-1.6083,-1.6083,-1.6083,-1.6083,-1.6083,-1.6083,-1.6083,-1.6083,-1.6083,-1.6083,-1.6083,-1.6083,-1.6083,-1.6083,-1.6083,-1.6083,-1.6083,-1.6083,-1.6083,-1.6083,-1.6083,-1.6083,-1.6083,-1.6083,-1.6083,-1.6083,-1.6083,-1.6083,-1.6083,-1.609,-1.611,-1.6096,-0.847,-0.8755,-0.9229,-0.9703,-1.0172,-1.0645,-1.1217,-1.1789,-1.2167,-1.245,-1.255,-1.2845,-1.2372,-1.1505,-1.1521,-1.1705,-1.1705,-1.1978,-1.2261,-1.2639,-1.3016,-1.3487,-1.377,-1.3864,-1.4335,-1.4523,-1.4617,-1.4805,-1.4623,-1.4805,-1.4993,-1.4993,-1.4993,-1.5181,-1.5181,-1.5181,-1.5181,-1.5087,-1.5087,-1.4899,-1.475,-1.4476,-1.3979,-1.3969,-1.4049,-1.4165,-1.4354,-1.4798,-1.4979,-1.5241,-1.5479,-1.5678,-1.5778,-1.5884,-1.5983,-1.5983,-1.6083,-1.6083,-1.6083,-1.6083,-1.6083,-1.6083,-1.6083,-1.6083,-1.6083,-1.6083,-1.6083,-1.6083,-1.609,-1.609,-1.6117,-1.6117,-1.6151,-1.6151,-1.6198,-1.6198,-1.6164,-1.6151,-1.611,-1.6083,-1.6083,-1.6083,-1.6083,-1.6083,-1.6083,-1.6083,-1.6083,-1.6083,-1.6083,-1.6083,-1.6182,-1.6083,-1.6182,-1.6083,-1.6083,-1.6083,-1.6083,-1.6083,-1.6083,-1.6083,-1.6083,-1.6083,-1.6083,-1.6083,-1.6083,-1.6083,-1.6083,-1.6083,-1.6083,-1.6083,-1.6083,-1.6083,-1.6083,-1.6083,-1.6083]},{"header":{"parameterUnit":"m.s-1","parameterCategory":1,"la1":31.0,"la2":29.5877,"lo1":-88.7671,"lo2":-86.6584,"dy":0.0162,"dx":0.0185,"nx":115,"ny":88,"refTime":"2024-09-02T06:00:00:Z","depth":0,"parameterNumber":3,"parameterNumberName":"V-component_of_WINDS"},"data":[0.0,0.0,0.0,0.0,0.0,0.0,0.0,0.0,0.0,0.0,0.0,0.0,0.0,0.0,0.0,0.0,0.0,0.0,0.0,0.0,0.0,0.0,0.0,0.0,0.0,0.0,0.0,0.0,0.0,0.0,0.0,0.0,0.0,0.0,0.0,0.0,0.0,0.0,0.0,0.0,0.0,0.0,0.0,0.0,0.0,0.0,0.0,0.0,0.0,0.0,0.0,0.0,0.0,0.0,0.0,0.0,0.0,0.0,0.0,0.0,0.0,0.0,0.0,0.0,0.0,0.0,0.0,0.0,0.0,0.0,0.0,0.0,0.0,0.0,0.0,0.0,0.0,0.0,0.0,0.0,0.0,0.0,0.0,0.0,0.0,0.0,0.0,0.0,0.0,0.0,0.0,0.0,0.0,0.0,0.0,0.0,0.0,0.0,0.0,0.0,0.0,0.0,0.0,0.0,0.0,0.0,0.0,0.0,0.0,0.0,0.0,0.0,0.0,0.0,0.0,0.0,0.0,0.0,0.0,0.0,0.0,0.0,0.0,0.0,0.0,0.0,0.0,0.0,0.0,0.0,0.0,0.0,0.0,0.0,0.0,0.0,0.0,0.0,0.0,0.0,0.0,0.0,0.0,0.0,0.0,0.0,0.0,0.0,0.0,0.0,0.0,0.0,0.0,0.0,0.0,0.0,0.0,0.0,0.0,0.0,0.0,0.0,0.0,0.0,0.0,0.0,0.0,0.0,0.0,0.0,0.0,0.0,0.0,0.0,0.0,0.0,0.0,0.0,0.0,0.0,0.0,0.0,0.0,0.0,0.0,0.0,0.0,0.0,0.0,0.0,0.0,0.0,0.0,0.0,0.0,0.0,0.0,0.0,0.0,0.0,0.0,0.0,0.0,0.0,0.0,0.0,0.0,0.0,0.0,0.0,0.0,0.0,0.0,0.0,0.0,0.0,0.0,0.0,0.0,0.0,0.0,0.0,0.0,0.0,0.0,0.0,0.0,0.0,0.0,0.0,0.0,0.0,0.0,0.0,0.0,0.0,0.0,0.0,0.0,0.0,0.0,0.0,0.0,0.0,0.0,0.0,0.0,0.0,0.0,0.0,0.0,0.0,0.0,0.0,0.0,0.0,0.0,0.0,0.0,0.0,0.0,0.0,0.0,0.0,0.0,0.0,0.0,0.0,0.0,0.0,0.0,0.0,0.0,0.0,0.0,0.0,0.0,0.0,0.0,0.0,0.0,0.0,0.0,0.0,0.0,0.0,0.0,0.0,0.0,0.0,0.0,0.0,0.0,0.0,0.0,0.0,0.0,0.0,0.0,0.0,0.0,0.0,0.0,0.0,0.0,0.0,0.0,0.0,0.0,0.0,0.0,0.0,0.0,0.0,0.0,0.0,0.0,0.0,0.0,0.0,0.0,0.0,0.0,0.0,0.0,0.0,0.0,0.0,0.0,0.0,0.0,0.0,0.0,0.0,0.0,0.0,0.0,0.0,0.0,0.0,0.0,0.0,0.0,0.0,0.0,0.0,0.0,0.0,0.0,0.0,0.0,0.0,0.0,0.0,0.0,0.0,0.0,0.0,0.0,0.0,0.0,0.0,0.0,0.0,0.0,0.0,0.0,0.0,0.0,0.0,0.0,0.0,0.0,0.0,0.0,0.0,0.0,0.0,0.0,0.0,0.0,0.0,0.0,0.0,0.0,0.0,0.0,0.0,0.0,0.0,0.0,0.0,0.0,0.0,0.0,0.0,0.0,0.0,0.0,0.0,0.0,0.0,0.0,0.0,0.0,0.0,0.0,0.0,0.0,0.0,0.0,0.0,0.0,0.0,0.0,0.0,0.0,0.0,0.0,0.0,0.0,0.0,0.0,0.0,0.0,0.0,0.0,0.0,0.0,0.0,0.0,0.0,0.0,0.0,0.0,0.0,0.0,0.0,0.0,0.0,0.0,0.0,0.0,0.0,0.0,0.0,0.0,0.0,0.0,0.0,0.0,0.0,0.0,0.0,0.0,0.0,0.0,0.0,0.0,0.0,0.0,0.0,0.0,0.0,0.0,0.0,0.0,0.0,0.0,0.0,0.0,0.0,0.0,0.0,0.0,0.0,0.0,0.0,0.0,0.0,0.0,0.0,0.0,0.0,0.0,0.0,0.0,0.0,0.0,0.0,0.0,0.0,0.0,0.0,0.0,0.0,0.0,0.0,0.0,0.0,0.0,0.0,0.0,0.0,0.0,0.0,0.0,0.0,0.0,0.0,0.0,0.0,0.0,0.0,0.0,0.0,0.0,0.0,0.0,0.0,0.0,0.0,0.0,0.0,0.0,0.0,0.0,0.0,0.0,0.0,0.0,0.0,0.0,0.0,0.0,0.0,0.0,0.0,0.0,0.0,0.0,0.0,0.0,0.0,0.0,0.0,0.0,0.0,0.0,0.0,0.0,0.0,0.0,0.0,0.0,0.0,0.0,0.0,0.0,0.0,0.0,0.0,0.0,0.0,0.0,0.0,0.0,0.0,0.0,0.0,0.0,0.0,0.0,0.0,0.0,0.0,0.0,0.0,0.0,0.0,0.0,0.0,0.0,0.0,0.0,0.0,0.0,0.0,0.0,0.0,0.0,0.0,0.0,0.0,0.0,0.0,0.0,0.0,0.0,0.0,0.0,0.0,0.0,0.0,0.0,0.0,0.0,0.0,0.0,0.0,0.0,0.0,0.0,0.0,0.0,0.0,0.0,0.0,0.0,0.0,0.0,0.0,0.0,0.0,0.0,0.0,0.0,0.0,0.0,0.0,0.0,0.0,0.0,0.0,0.0,0.0,0.0,0.0,0.0,0.0,0.0,0.0,0.0,0.0,0.0,0.0,0.0,0.0,0.0,0.0,0.0,0.0,0.0,0.0,0.0,0.0,0.0,0.0,0.0,0.0,0.0,0.0,0.0,0.0,0.0,0.0,0.0,0.0,0.0,0.0,0.0,0.0,0.0,0.0,0.0,0.0,0.0,0.0,0.0,0.0,0.0,0.0,0.0,0.0,0.0,0.0,0.0,0.0,0.0,0.0,0.0,0.0,0.0,0.0,0.0,0.0,0.0,0.0,0.0,0.0,0.0,0.0,0.0,0.0,0.0,0.0,0.0,0.0,0.0,0.0,0.0,0.0,0.0,0.0,0.0,0.0,0.0,0.0,0.0,0.0,0.0,0.0,0.0,0.0,0.0,0.0,0.0,0.0,0.0,0.0,0.0,0.0,0.0,0.0,0.0,0.0,0.0,0.0,0.0,0.0,0.0,0.0,0.0,0.0,0.0,0.0,0.0,0.0,0.0,0.0,0.0,0.0,0.0,0.0,0.0,0.0,0.0,0.0,0.0,0.0,0.0,0.0,0.0,0.0,0.0,0.0,0.0,0.0,0.0,0.0,0.0,0.0,0.0,0.0,0.0,0.0,0.0,0.0,0.0,0.0,0.0,0.0,0.0,0.0,0.0,0.0,0.0,0.0,0.0,0.0,0.0,0.0,0.0,0.0,0.0,0.0,0.0,0.0,0.0,0.0,0.0,0.0,0.0,0.0,0.0,0.0,0.0,0.0,0.0,0.0,0.0,0.0,0.0,0.0,0.0,0.0,0.0,0.0,0.0,0.0,0.0,0.0,0.0,0.0,0.0,0.0,0.0,0.0,0.0,0.0,0.0,0.0,0.0,0.0,0.0,0.0,0.0,0.0,0.0,0.0,0.0,0.0,0.0,0.0,0.0,0.0,0.0,0.0,0.0,0.0,0.0,0.0,0.0,0.0,0.0,0.0,0.0,0.0,0.0,0.0,0.0,0.0,0.0,0.0,0.0,0.0,0.0,0.0,0.0,0.0,0.0,0.0,0.0,0.0,0.0,0.0,0.0,0.0,0.0,0.0,0.0,0.0,0.0,0.0,0.0,0.0,0.0,0.0,0.0,0.0,0.0,0.0,0.0,0.0,0.0,0.0,0.0,0.0,0.0,0.0,0.0,0.0,0.0,0.0,0.0,0.0,0.0,0.0,0.0,0.0,0.0,0.0,0.0,0.0,0.0,0.0,0.0,0.0,0.0,0.0,0.0,0.0,0.0,0.0,0.0,0.0,0.0,0.0,0.0,0.0,0.0,0.0,0.0,0.0,0.0,0.0,0.0,0.0,0.0,0.0,0.0,0.0,0.0,0.0,0.0,0.0,0.0,0.0,0.0,0.0,0.0,0.0,0.0,0.0,0.0,0.0,0.0,0.0,0.0,0.0,0.0,0.0,0.0,0.0,0.0,0.0,2.9407,0.0,0.0,0.0,0.0,0.0,0.0,0.0,0.0,0.0,0.0,0.0,0.0,0.0,0.0,0.0,0.0,0.0,0.0,0.0,0.0,0.0,0.0,0.0,0.0,0.0,0.0,0.0,0.0,0.0,0.0,0.0,0.0,0.0,0.0,0.0,0.0,0.0,0.0,0.0,0.0,0.0,0.0,0.0,0.0,0.0,0.0,0.0,0.0,0.0,0.0,0.0,0.0,0.0,0.0,0.0,0.0,0.0,0.0,0.0,0.0,0.0,0.0,0.0,0.0,0.0,0.0,0.0,0.0,0.0,0.0,0.0,0.0,0.0,0.0,0.0,0.0,0.0,0.0,0.0,0.0,0.0,0.0,0.0,0.0,0.0,0.0,0.0,0.0,0.0,0.0,0.0,0.0,0.0,0.0,0.0,0.0,0.0,0.0,0.0,0.0,0.0,0.0,0.0,0.0,0.0,0.0,0.0,0.0,0.0,0.0,3.0251,3.0697,3.0697,3.0697,3.0697,0.0,0.0,0.0,0.0,0.0,0.0,0.0,0.0,0.0,0.0,0.0,0.0,0.0,0.0,0.0,0.0,0.0,0.0,0.0,0.0,0.0,0.0,0.0,0.0,0.0,0.0,0.0,0.0,0.0,0.0,0.0,0.0,0.0,0.0,0.0,0.0,0.0,0.0,0.0,0.0,0.0,0.0,0.0,0.0,0.0,0.0,0.0,0.0,0.0,0.0,0.0,0.0,0.0,0.0,0.0,0.0,0.0,0.0,0.0,0.0,0.0,0.0,0.0,0.0,0.0,0.0,0.0,0.0,0.0,0.0,0.0,0.0,0.0,0.0,0.0,0.0,0.0,0.0,0.0,0.0,0.0,0.0,0.0,0.0,0.0,0.0,0.0,0.0,0.0,0.0,0.0,0.0,0.0,0.0,0.0,0.0,0.0,0.0,0.0,0.0,0.0,0.0,0.0,0.0,0.0,0.0,0.0,0.0,0.0,0.0,0.0,0.0,3.1841,3.1741,3.1752,0.0,0.0,0.0,0.0,0.0,0.0,0.0,0.0,0.0,0.0,0.0,0.0,0.0,0.0,0.0,0.0,0.0,0.0,0.0,0.0,0.0,0.0,0.0,0.0,0.0,0.0,0.0,0.0,0.0,0.0,0.0,0.0,0.0,0.0,0.0,0.0,0.0,0.0,0.0,0.0,0.0,0.0,0.0,0.0,0.0,0.0,0.0,0.0,0.0,0.0,0.0,0.0,0.0,0.0,0.0,0.0,0.0,0.0,0.0,0.0,0.0,0.0,0.0,0.0,0.0,0.0,0.0,0.0,0.0,0.0,0.0,0.0,0.0,0.0,0.0,0.0,0.0,0.0,0.0,0.0,0.0,0.0,0.0,0.0,0.0,0.0,0.0,0.0,0.0,0.0,0.0,0.0,0.0,0.0,0.0,0.0,0.0,0.0,0.0,0.0,0.0,0.0,0.0,0.0,0.0,0.0,0.0,0.0,0.0,0.0,3.1945,3.2674,3.2034,0.0,3.1684,0.0,0.0,0.0,0.0,0.0,0.0,0.0,0.0,0.0,0.0,0.0,0.0,0.0,0.0,0.0,0.0,0.0,0.0,0.0,0.0,0.0,0.0,0.0,0.0,0.0,0.0,0.0,0.0,0.0,0.0,0.0,0.0,0.0,0.0,0.0,0.0,0.0,0.0,0.0,0.0,0.0,0.0,0.0,0.0,0.0,0.0,0.0,0.0,0.0,0.0,0.0,0.0,0.0,0.0,0.0,0.0,0.0,0.0,0.0,0.0,0.0,0.0,0.0,0.0,0.0,0.0,0.0,0.0,0.0,0.0,0.0,0.0,0.0,0.0,0.0,0.0,0.0,0.0,0.0,0.0,0.0,0.0,0.0,0.0,0.0,0.0,0.0,0.0,0.0,0.0,0.0,0.0,0.0,0.0,0.0,0.0,0.0,0.0,0.0,0.0,0.0,0.0,0.0,0.0,0.0,0.0,0.0,0.0,0.0,0.0,0.0,3.4249,3.3967,3.3573,0.0,0.0,0.0,0.0,0.0,0.0,0.0,0.0,0.0,0.0,0.0,0.0,0.0,0.0,0.0,0.0,0.0,0.0,0.0,0.0,0.0,0.0,0.0,0.0,0.0,0.0,0.0,0.0,0.0,0.0,0.0,0.0,0.0,0.0,0.0,0.0,0.0,0.0,0.0,0.0,0.0,0.0,0.0,0.0,0.0,0.0,0.0,0.0,0.0,0.0,0.0,0.0,0.0,0.0,0.0,0.0,0.0,0.0,0.0,0.0,0.0,0.0,0.0,0.0,0.0,0.0,0.0,0.0,0.0,0.0,0.0,0.0,0.0,0.0,0.0,0.0,0.0,0.0,0.0,0.0,0.0,0.0,0.0,0.0,0.0,0.0,0.0,0.0,0.0,0.0,0.0,0.0,0.0,0.0,0.0,0.0,0.0,0.0,0.0,0.0,0.0,0.0,0.0,0.0,0.0,0.0,0.0,0.0,0.0,0.0,3.3375,0.0,3.5537,3.5574,3.5169,3.4334,0.0,0.0,0.0,0.0,0.0,0.0,0.0,0.0,0.0,0.0,0.0,0.0,0.0,0.0,0.0,0.0,0.0,0.0,0.0,0.0,0.0,0.0,0.0,0.0,0.0,0.0,0.0,0.0,0.0,0.0,0.0,0.0,0.0,0.0,0.0,0.0,0.0,0.0,0.0,0.0,0.0,0.0,0.0,0.0,0.0,0.0,0.0,0.0,0.0,0.0,0.0,0.0,0.0,0.0,0.0,0.0,0.0,0.0,0.0,0.0,0.0,0.0,0.0,0.0,0.0,0.0,0.0,0.0,0.0,0.0,0.0,0.0,0.0,0.0,0.0,0.0,0.0,0.0,0.0,0.0,0.0,0.0,0.0,0.0,0.0,0.0,0.0,0.0,0.0,0.0,0.0,0.0,0.0,0.0,0.0,0.0,0.0,0.0,0.0,0.0,0.0,0.0,0.0,0.0,0.0,0.0,0.0,0.0,0.0,3.39,3.5528,3.6244,3.6281,3.5905,0.0,0.0,0.0,0.0,0.0,0.0,0.0,0.0,0.0,0.0,0.0,0.0,0.0,0.0,0.0,0.0,0.0,0.0,0.0,0.0,0.0,0.0,0.0,0.0,0.0,0.0,0.0,0.0,0.0,0.0,0.0,0.0,0.0,0.0,0.0,0.0,0.0,0.0,0.0,0.0,0.0,0.0,0.0,0.0,0.0,0.0,0.0,0.0,0.0,0.0,0.0,0.0,0.0,0.0,0.0,0.0,0.0,0.0,0.0,0.0,0.0,0.0,0.0,0.0,0.0,0.0,0.0,0.0,0.0,0.0,0.0,0.0,0.0,0.0,0.0,0.0,0.0,0.0,0.0,0.0,0.0,0.0,0.0,0.0,0.0,0.0,0.0,0.0,0.0,0.0,0.0,0.0,0.0,0.0,0.0,0.0,0.0,0.0,0.0,0.0,0.0,0.0,0.0,0.0,0.0,0.0,0.0,0.0,0.0,3.2291,3.5133,3.703,3.7771,3.6853,3.5913,0.0,0.0,0.0,0.0,0.0,0.0,0.0,0.0,0.0,0.0,0.0,0.0,0.0,0.0,0.0,0.0,0.0,0.0,0.0,0.0,0.0,0.0,0.0,0.0,0.0,0.0,0.0,0.0,0.0,0.0,0.0,0.0,0.0,0.0,0.0,0.0,0.0,0.0,0.0,0.0,0.0,0.0,0.0,0.0,0.0,0.0,0.0,0.0,0.0,0.0,0.0,0.0,0.0,0.0,0.0,0.0,0.0,0.0,0.0,0.0,0.0,0.0,0.0,0.0,0.0,0.0,0.0,0.0,0.0,0.0,0.0,0.0,0.0,0.0,0.0,0.0,0.0,0.0,0.0,0.0,0.0,0.0,0.0,0.0,0.0,0.0,0.0,0.0,0.0,0.0,0.0,0.0,0.0,0.0,0.0,0.0,0.0,0.0,0.0,0.0,0.0,0.0,0.0,0.0,0.0,0.0,0.0,0.0,0.0,3.4174,0.0,3.8248,0.0,3.7551,3.6156,0.0,0.0,0.0,0.0,0.0,0.0,0.0,0.0,0.0,0.0,0.0,0.0,0.0,0.0,0.0,0.0,0.0,0.0,0.0,0.0,0.0,0.0,0.0,0.0,0.0,0.0,0.0,0.0,0.0,0.0,0.0,0.0,0.0,0.0,0.0,0.0,0.0,0.0,0.0,0.0,0.0,0.0,0.0,0.0,0.0,0.0,0.0,0.0,0.0,0.0,0.0,0.0,0.0,0.0,0.0,0.0,0.0,0.0,0.0,0.0,0.0,0.0,0.0,0.0,0.0,0.0,0.0,0.0,0.0,0.0,0.0,0.0,0.0,0.0,0.0,0.0,0.0,0.0,0.0,0.0,0.0,0.0,0.0,0.0,0.0,0.0,0.0,0.0,0.0,0.0,0.0,0.0,0.0,0.0,0.0,0.0,0.0,0.0,0.0,0.0,0.0,0.0,0.0,0.0,0.0,0.0,0.0,0.0,3.3453,3.7309,3.8322,3.9203,3.9843,3.8374,3.6707,0.0,0.0,0.0,0.0,0.0,0.0,0.0,0.0,0.0,0.0,0.0,0.0,0.0,0.0,0.0,0.0,0.0,0.0,0.0,0.0,0.0,0.0,0.0,0.0,0.0,0.0,0.0,0.0,0.0,0.0,0.0,0.0,0.0,0.0,0.0,0.0,0.0,0.0,0.0,0.0,0.0,0.0,0.0,0.0,0.0,0.0,0.0,0.0,0.0,0.0,0.0,0.0,0.0,0.0,0.0,0.0,0.0,0.0,0.0,0.0,0.0,0.0,0.0,0.0,0.0,0.0,0.0,0.0,0.0,0.0,0.0,0.0,0.0,0.0,0.0,0.0,0.0,0.0,0.0,0.0,0.0,0.0,0.0,0.0,0.0,0.0,0.0,0.0,0.0,0.0,0.0,0.0,0.0,0.0,0.0,0.0,0.0,0.0,0.0,0.0,0.0,0.0,0.0,0.0,0.0,0.0,0.0,0.0,0.0,3.9071,4.0487,4.1332,4.1479,3.946,3.7551,0.0,0.0,0.0,0.0,0.0,0.0,0.0,0.0,0.0,0.0,0.0,0.0,0.0,0.0,0.0,0.0,0.0,0.0,0.0,0.0,0.0,0.0,0.0,0.0,0.0,0.0,0.0,0.0,0.0,0.0,0.0,0.0,0.0,0.0,0.0,0.0,0.0,0.0,0.0,0.0,0.0,0.0,0.0,0.0,0.0,0.0,0.0,0.0,0.0,0.0,0.0,0.0,0.0,0.0,0.0,0.0,0.0,0.0,0.0,0.0,0.0,0.0,0.0,0.0,0.0,0.0,0.0,0.0,0.0,0.0,0.0,0.0,0.0,0.0,0.0,0.0,0.0,0.0,0.0,0.0,0.0,0.0,0.0,0.0,0.0,0.0,0.0,0.0,0.0,0.0,0.0,0.0,0.0,0.0,0.0,0.0,0.0,0.0,0.0,0.0,0.0,0.0,0.0,0.0,0.0,0.0,0.0,0.0,0.0,4.291,4.3718,4.4121,4.4067,4.1735,3.9313,3.6817,0.0,0.0,0.0,0.0,0.0,0.0,0.0,0.0,0.0,0.0,0.0,0.0,0.0,0.0,0.0,0.0,0.0,0.0,0.0,0.0,0.0,0.0,0.0,0.0,0.0,0.0,0.0,0.0,0.0,0.0,0.0,0.0,0.0,0.0,0.0,0.0,0.0,0.0,0.0,0.0,0.0,0.0,0.0,0.0,0.0,0.0,0.0,0.0,0.0,0.0,0.0,0.0,0.0,0.0,0.0,0.0,0.0,0.0,0.0,0.0,0.0,0.0,0.0,0.0,0.0,0.0,0.0,0.0,0.0,0.0,0.0,0.0,0.0,0.0,0.0,0.0,0.0,0.0,0.0,0.0,0.0,0.0,0.0,0.0,0.0,0.0,0.0,0.0,0.0,0.0,0.0,0.0,0.0,0.0,0.0,0.0,0.0,0.0,0.0,0.0,0.0,0.0,0.0,0.0,0.0,0.0,0.0,0.0,4.8489,4.7993,4.7626,4.7333,4.4966,4.1825,0.0,0.0,0.0,0.0,0.0,0.0,0.0,0.0,0.0,0.0,0.0,0.0,0.0,0.0,0.0,0.0,0.0,0.0,0.0,0.0,0.0,0.0,0.0,0.0,0.0,0.0,0.0,0.0,0.0,0.0,0.0,0.0,0.0,0.0,0.0,0.0,0.0,0.0,0.0,0.0,0.0,0.0,0.0,0.0,0.0,0.0,0.0,0.0,0.0,0.0,0.0,0.0,0.0,0.0,0.0,0.0,0.0,0.0,0.0,0.0,0.0,0.0,0.0,0.0,0.0,0.0,0.0,0.0,0.0,0.0,0.0,0.0,0.0,0.0,0.0,0.0,0.0,0.0,0.0,0.0,0.0,0.0,0.0,0.0,0.0,0.0,0.0,0.0,0.0,0.0,0.0,0.0,0.0,0.0,0.0,0.0,0.0,0.0,0.0,0.0,0.0,0.0,0.0,0.0,0.0,0.0,0.0,0.0,0.0,5.172,5.4032,5.3739,5.0802,4.7755,4.4251,0.0,0.0,0.0,0.0,0.0,0.0,0.0,0.0,0.0,0.0,0.0,0.0,0.0,0.0,0.0,0.0,0.0,0.0,0.0,0.0,0.0,0.0,0.0,0.0,0.0,0.0,0.0,0.0,0.0,0.0,0.0,0.0,0.0,0.0,0.0,0.0,0.0,0.0,0.0,0.0,0.0,0.0,0.0,0.0,0.0,0.0,0.0,0.0,0.0,0.0,0.0,0.0,0.0,0.0,0.0,0.0,0.0,0.0,0.0,0.0,0.0,0.0,0.0,0.0,0.0,0.0,0.0,0.0,0.0,0.0,0.0,0.0,0.0,0.0,0.0,0.0,0.0,0.0,0.0,0.0,0.0,0.0,0.0,0.0,0.0,0.0,0.0,0.0,0.0,0.0,0.0,0.0,0.0,0.0,0.0,0.0,0.0,0.0,0.0,0.0,0.0,0.0,0.0,0.0,0.0,0.0,0.0,0.0,4.9119,5.4684,5.7918,5.847,5.6088,5.1883,4.7443,0.0,0.0,0.0,0.0,0.0,0.0,0.0,0.0,0.0,0.0,0.0,0.0,0.0,0.0,0.0,0.0,0.0,0.0,0.0,0.0,0.0,0.0,0.0,0.0,0.0,0.0,0.0,0.0,0.0,0.0,0.0,0.0,0.0,0.0,0.0,0.0,0.0,0.0,0.0,0.0,0.0,0.0,0.0,0.0,0.0,0.0,0.0,0.0,0.0,0.0,0.0,0.0,0.0,0.0,0.0,0.0,0.0,0.0,0.0,0.0,0.0,0.0,0.0,0.0,0.0,0.0,0.0,0.0,0.0,0.0,0.0,0.0,0.0,0.0,0.0,0.0,0.0,0.0,0.0,0.0,0.0,0.0,0.0,0.0,0.0,0.0,0.0,0.0,0.0,0.0,0.0,0.0,0.0,0.0,0.0,0.0,0.0,0.0,0.0,0.0,0.0,0.0,0.0,0.0,0.0,0.0,0.0,0.0,5.1706,5.728,6.0374,6.1923,6.1728,5.6492,5.0875,0.0,0.0,0.0,0.0,0.0,0.0,0.0,0.0,0.0,0.0,0.0,0.0,0.0,0.0,0.0,0.0,0.0,0.0,0.0,0.0,0.0,0.0,0.0,0.0,0.0,0.0,0.0,0.0,0.0,0.0,0.0,0.0,0.0,0.0,0.0,0.0,0.0,0.0,0.0,0.0,0.0,0.0,0.0,0.0,0.0,0.0,0.0,0.0,0.0,0.0,0.0,0.0,0.0,0.0,0.0,0.0,0.0,0.0,0.0,0.0,0.0,0.0,0.0,0.0,0.0,0.0,0.0,0.0,0.0,0.0,0.0,0.0,0.0,0.0,0.0,0.0,0.0,0.0,0.0,0.0,0.0,0.0,0.0,0.0,0.0,0.0,0.0,0.0,0.0,0.0,0.0,0.0,0.0,0.0,0.0,0.0,0.0,0.0,0.0,0.0,0.0,0.0,0.0,0.0,0.0,0.0,0.0,0.0,5.3629,5.9811,6.1892,6.3173,6.3677,5.8704,5.3078,0.0,0.0,0.0,0.0,0.0,0.0,0.0,0.0,0.0,0.0,0.0,0.0,0.0,0.0,0.0,0.0,0.0,0.0,0.0,0.0,0.0,0.0,0.0,0.0,0.0,0.0,0.0,0.0,0.0,0.0,0.0,0.0,0.0,0.0,0.0,0.0,0.0,0.0,0.0,0.0,0.0,0.0,0.0,0.0,0.0,0.0,0.0,0.0,4.2633,0.0,0.0,0.0,0.0,0.0,0.0,0.0,0.0,0.0,0.0,0.0,0.0,0.0,0.0,0.0,0.0,0.0,0.0,0.0,0.0,0.0,0.0,0.0,0.0,0.0,0.0,0.0,0.0,0.0,0.0,0.0,0.0,0.0,0.0,0.0,0.0,0.0,0.0,0.0,0.0,0.0,0.0,0.0,0.0,0.0,0.0,0.0,0.0,0.0,0.0,0.0,0.0,0.0,0.0,0.0,0.0,0.0,0.0,0.0,5.5525,6.0737,6.2822,6.4031,6.4168,6.0301,5.5205,0.0,0.0,0.0,0.0,0.0,0.0,0.0,0.0,0.0,0.0,0.0,0.0,0.0,0.0,0.0,0.0,0.0,0.0,0.0,0.0,0.0,0.0,0.0,0.0,0.0,0.0,0.0,0.0,0.0,0.0,0.0,0.0,0.0,0.0,0.0,0.0,0.0,0.0,0.0,0.0,0.0,0.0,0.0,0.0,0.0,0.0,0.0,0.0,0.0,0.0,0.0,0.0,0.0,0.0,0.0,0.0,0.0,0.0,0.0,0.0,0.0,0.0,0.0,0.0,0.0,0.0,0.0,0.0,0.0,0.0,0.0,0.0,0.0,0.0,0.0,0.0,0.0,0.0,0.0,0.0,0.0,0.0,0.0,0.0,0.0,0.0,0.0,0.0,0.0,0.0,0.0,0.0,0.0,0.0,0.0,0.0,0.0,0.0,0.0,0.0,0.0,0.0,0.0,0.0,0.0,0.0,0.0,5.2307,5.7083,6.1159,6.34,6.4443,6.4274,6.1069,5.6636,5.1029,0.0,0.0,0.0,0.0,0.0,0.0,0.0,0.0,0.0,0.0,0.0,0.0,0.0,0.0,0.0,0.0,0.0,0.0,0.0,0.0,0.0,0.0,0.0,0.0,0.0,0.0,0.0,0.0,0.0,0.0,0.0,0.0,0.0,0.0,0.0,0.0,0.0,0.0,4.1425,4.3627,0.0,0.0,0.0,0.0,0.0,0.0,0.0,0.0,4.603,0.0,0.0,0.0,0.0,0.0,0.0,0.0,0.0,0.0,0.0,0.0,0.0,0.0,0.0,0.0,0.0,0.0,0.0,0.0,0.0,0.0,0.0,0.0,0.0,0.0,0.0,0.0,0.0,0.0,0.0,0.0,0.0,0.0,0.0,0.0,0.0,0.0,0.0,0.0,0.0,0.0,0.0,0.0,0.0,0.0,0.0,0.0,0.0,0.0,0.0,0.0,0.0,0.0,0.0,0.0,0.0,4.8755,5.3187,5.7773,6.2531,6.3647,6.414,6.3861,6.005,5.578,5.1249,0.0,0.0,0.0,0.0,0.0,0.0,0.0,0.0,0.0,0.0,0.0,0.0,0.0,0.0,0.0,0.0,0.0,0.0,0.0,0.0,0.0,0.0,0.0,0.0,0.0,0.0,0.0,0.0,0.0,0.0,0.0,0.0,0.0,0.0,0.0,0.0,0.0,0.0,0.0,4.5608,4.7003,0.0,0.0,0.0,0.0,0.0,0.0,0.0,0.0,4.9481,0.0,0.0,0.0,0.0,0.0,0.0,0.0,0.0,0.0,0.0,0.0,0.0,0.0,0.0,0.0,0.0,0.0,0.0,0.0,0.0,0.0,0.0,0.0,0.0,0.0,0.0,0.0,0.0,0.0,0.0,0.0,0.0,0.0,0.0,0.0,0.0,0.0,0.0,0.0,0.0,0.0,0.0,0.0,0.0,0.0,0.0,0.0,0.0,0.0,0.0,0.0,0.0,0.0,0.0,0.0,4.9258,5.438,5.8741,6.2372,6.3689,6.4061,6.3416,5.9421,5.5042,0.0,0.0,0.0,0.0,0.0,0.0,0.0,0.0,0.0,0.0,0.0,0.0,0.0,0.0,0.0,0.0,0.0,0.0,0.0,0.0,0.0,0.0,0.0,0.0,0.0,0.0,0.0,0.0,0.0,0.0,0.0,0.0,0.0,0.0,0.0,0.0,0.0,0.0,0.0,0.0,4.77,4.9334,5.0105,0.0,0.0,0.0,0.0,0.0,0.0,5.0912,5.1022,0.0,0.0,0.0,0.0,0.0,0.0,0.0,0.0,0.0,0.0,0.0,0.0,0.0,0.0,0.0,0.0,0.0,0.0,0.0,0.0,0.0,0.0,0.0,0.0,0.0,0.0,0.0,0.0,0.0,0.0,0.0,0.0,0.0,0.0,0.0,0.0,0.0,0.0,0.0,0.0,0.0,0.0,0.0,0.0,0.0,0.0,0.0,0.0,0.0,0.0,0.0,0.0,0.0,0.0,0.0,5.0075,5.5599,5.9715,6.2322,6.3875,6.4029,6.2747,5.8864,5.4263,0.0,0.0,0.0,0.0,0.0,0.0,0.0,0.0,0.0,0.0,0.0,0.0,0.0,0.0,0.0,0.0,0.0,0.0,0.0,0.0,0.0,0.0,0.0,0.0,0.0,0.0,0.0,0.0,0.0,0.0,0.0,0.0,0.0,0.0,0.0,0.0,0.0,0.0,0.0,0.0,0.0,5.1683,5.2784,5.227,0.0,0.0,0.0,0.0,5.2821,5.2968,0.0,0.0,0.0,0.0,0.0,0.0,0.0,0.0,0.0,0.0,0.0,0.0,0.0,0.0,0.0,0.0,0.0,0.0,0.0,0.0,0.0,0.0,0.0,0.0,0.0,0.0,0.0,0.0,0.0,0.0,0.0,0.0,0.0,0.0,0.0,0.0,0.0,0.0,0.0,0.0,0.0,0.0,0.0,0.0,0.0,0.0,0.0,0.0,0.0,0.0,0.0,0.0,0.0,0.0,0.0,0.0,5.2169,5.6621,6.0449,6.368,6.4644,6.3916,6.1635,5.8075,5.3467,0.0,0.0,0.0,0.0,0.0,0.0,0.0,0.0,0.0,0.0,0.0,0.0,0.0,0.0,0.0,0.0,0.0,0.0,0.0,0.0,0.0,0.0,0.0,0.0,0.0,0.0,0.0,0.0,0.0,0.0,0.0,0.0,0.0,0.0,0.0,0.0,0.0,0.0,0.0,0.0,0.0,5.3717,5.5941,5.5537,5.528,0.0,0.0,5.5317,5.6124,5.6271,0.0,0.0,0.0,0.0,0.0,0.0,0.0,0.0,0.0,0.0,0.0,0.0,0.0,0.0,0.0,0.0,0.0,0.0,0.0,0.0,0.0,0.0,0.0,0.0,0.0,0.0,0.0,0.0,0.0,0.0,0.0,0.0,0.0,0.0,0.0,0.0,0.0,0.0,0.0,0.0,0.0,0.0,0.0,0.0,0.0,0.0,0.0,0.0,0.0,0.0,0.0,0.0,0.0,0.0,0.0,4.6405,5.2691,5.7441,6.1294,6.4168,6.5029,6.4664,6.3068,5.8758,5.4076,0.0,0.0,0.0,0.0,0.0,0.0,0.0,0.0,0.0,0.0,0.0,0.0,0.0,0.0,0.0,0.0,0.0,0.0,0.0,0.0,0.0,0.0,0.0,0.0,0.0,0.0,0.0,0.0,0.0,0.0,0.0,0.0,0.0,0.0,0.0,0.0,0.0,0.0,0.0,0.0,0.0,0.0,5.7964,5.8804,0.0,0.0,0.0,5.9191,5.9488,0.0,0.0,0.0,0.0,0.0,0.0,0.0,0.0,0.0,0.0,0.0,0.0,0.0,0.0,0.0,0.0,0.0,0.0,0.0,0.0,0.0,0.0,0.0,0.0,0.0,0.0,0.0,0.0,0.0,0.0,0.0,0.0,0.0,0.0,0.0,0.0,0.0,0.0,0.0,0.0,0.0,0.0,0.0,0.0,0.0,0.0,0.0,0.0,0.0,0.0,0.0,0.0,0.0,0.0,0.0,0.0,0.0,5.3537,5.8233,6.1966,6.4665,6.5329,6.5033,6.3688,5.9383,0.0,0.0,0.0,0.0,0.0,0.0,0.0,0.0,0.0,0.0,0.0,0.0,0.0,0.0,0.0,0.0,0.0,0.0,0.0,0.0,0.0,0.0,0.0,0.0,0.0,0.0,0.0,3.2684,0.0,0.0,0.0,0.0,0.0,0.0,0.0,0.0,0.0,0.0,0.0,0.0,0.0,0.0,5.7715,6.031,6.2137,6.3194,0.0,0.0,6.2732,6.2586,6.1079,5.9278,0.0,0.0,0.0,0.0,0.0,0.0,0.0,0.0,0.0,0.0,0.0,0.0,0.0,0.0,0.0,0.0,0.0,0.0,0.0,0.0,0.0,0.0,0.0,0.0,0.0,0.0,0.0,0.0,0.0,0.0,0.0,0.0,0.0,0.0,0.0,0.0,0.0,0.0,0.0,0.0,0.0,0.0,0.0,0.0,0.0,0.0,0.0,0.0,0.0,0.0,0.0,0.0,0.0,0.0,0.0,5.5346,5.8918,6.2362,6.5654,6.5781,6.4641,6.2183,5.9472,5.5305,0.0,0.0,0.0,0.0,0.0,0.0,0.0,0.0,0.0,0.0,0.0,0.0,0.0,0.0,0.0,0.0,0.0,0.0,0.0,0.0,0.0,0.0,0.0,0.0,0.0,0.0,0.0,0.0,0.0,0.0,0.0,0.0,0.0,0.0,0.0,0.0,0.0,0.0,0.0,0.0,0.0,6.0535,6.3735,6.5546,6.6544,0.0,0.0,6.5386,6.5248,6.332,6.0969,5.8532,0.0,0.0,0.0,0.0,0.0,0.0,0.0,0.0,0.0,0.0,0.0,0.0,0.0,0.0,0.0,0.0,0.0,0.0,0.0,0.0,0.0,0.0,0.0,0.0,0.0,0.0,0.0,0.0,0.0,0.0,0.0,0.0,0.0,0.0,0.0,0.0,0.0,0.0,0.0,0.0,0.0,0.0,0.0,0.0,0.0,0.0,0.0,0.0,0.0,0.0,0.0,0.0,0.0,4.8835,5.5599,5.9042,6.2411,6.5705,6.5872,6.5398,6.4411,6.0837,5.7147,0.0,0.0,0.0,0.0,0.0,0.0,0.0,0.0,0.0,0.0,0.0,0.0,0.0,0.0,0.0,0.0,0.0,0.0,0.0,0.0,0.0,0.0,0.0,0.0,0.0,0.0,0.0,0.0,4.1631,4.2456,4.2821,0.0,0.0,0.0,0.0,0.0,0.0,0.0,0.0,0.0,0.0,6.3891,6.6709,6.9011,0.0,0.0,6.8506,6.79,6.6729,6.4961,6.3057,6.1122,5.8153,0.0,0.0,0.0,0.0,0.0,0.0,0.0,0.0,0.0,0.0,0.0,0.0,0.0,0.0,0.0,0.0,0.0,0.0,0.0,0.0,0.0,0.0,0.0,0.0,0.0,0.0,0.0,0.0,0.0,0.0,0.0,0.0,0.0,0.0,0.0,0.0,0.0,0.0,0.0,0.0,0.0,0.0,0.0,0.0,0.0,0.0,0.0,0.0,0.0,0.0,0.0,0.0,4.9394,5.5621,5.9308,6.2704,6.582,6.5897,6.5782,6.5436,6.2089,5.8973,0.0,0.0,0.0,0.0,0.0,0.0,0.0,0.0,0.0,0.0,0.0,0.0,0.0,0.0,0.0,0.0,0.0,0.0,0.0,0.0,0.0,0.0,0.0,0.0,0.0,0.0,0.0,0.0,4.3243,4.3758,4.3816,0.0,0.0,0.0,0.0,0.0,0.0,0.0,0.0,0.0,0.0,6.6799,6.9625,7.179,7.2487,7.0794,7.0509,6.9827,6.7738,6.6105,6.4694,6.3531,0.0,0.0,0.0,0.0,0.0,0.0,0.0,0.0,0.0,0.0,0.0,0.0,0.0,0.0,0.0,0.0,0.0,0.0,0.0,0.0,0.0,0.0,0.0,0.0,0.0,0.0,0.0,3.319,0.0,0.0,2.9568,0.0,0.0,0.0,0.0,0.0,0.0,0.0,0.0,0.0,0.0,0.0,0.0,0.0,0.0,0.0,0.0,0.0,0.0,0.0,0.0,0.0,0.0,5.0548,5.5665,5.9896,6.3294,6.5782,6.5897,6.5513,6.4666,6.2935,6.0446,5.7022,0.0,0.0,0.0,0.0,0.0,0.0,0.0,0.0,0.0,0.0,0.0,0.0,0.0,0.0,0.0,0.0,0.0,0.0,0.0,0.0,0.0,0.0,0.0,0.0,0.0,0.0,4.4329,4.5186,4.5631,0.0,0.0,0.0,0.0,0.0,0.0,0.0,0.0,0.0,0.0,6.6223,6.9025,7.2498,7.3703,7.3725,7.2175,7.197,7.0981,6.8323,6.6739,6.5726,0.0,0.0,0.0,0.0,0.0,0.0,0.0,0.0,0.0,0.0,0.0,0.0,0.0,0.0,0.0,0.0,0.0,0.0,0.0,0.0,0.0,0.0,0.0,0.0,0.0,0.0,0.0,3.9682,3.9175,0.0,0.0,0.0,0.0,0.0,0.0,0.0,0.0,0.0,0.0,0.0,5.3303,5.3398,0.0,0.0,0.0,0.0,0.0,0.0,0.0,0.0,0.0,0.0,0.0,0.0,5.0894,5.6434,6.0215,6.332,6.5782,6.5897,6.5743,6.5474,6.3782,6.0781,5.6242,0.0,0.0,0.0,0.0,0.0,0.0,0.0,0.0,0.0,0.0,0.0,0.0,0.0,0.0,0.0,0.0,0.0,0.0,0.0,0.0,0.0,0.0,0.0,0.0,0.0,4.4423,0.0,0.0,0.0,0.0,0.0,0.0,0.0,0.0,0.0,0.0,0.0,6.3784,6.89,7.1182,7.3036,7.4909,7.5359,7.496,0.0,0.0,0.0,0.0,0.0,0.0,0.0,0.0,0.0,0.0,0.0,0.0,0.0,0.0,6.7732,6.4151,6.332,6.3017,6.2752,0.0,0.0,0.0,0.0,0.0,0.0,0.0,0.0,0.0,0.0,0.0,0.0,0.0,0.0,4.7462,0.0,4.4265,0.0,0.0,0.0,0.0,0.0,0.0,0.0,0.0,5.5679,5.7963,5.9893,5.966,5.9453,0.0,5.7231,5.3115,0.0,0.0,0.0,0.0,0.0,0.0,0.0,0.0,5.2818,5.778,6.1562,6.4371,6.6205,6.632,6.6167,6.5859,6.4205,6.1473,5.7588,5.4511,5.1433,0.0,0.0,0.0,0.0,0.0,0.0,0.0,0.0,0.0,0.0,0.0,0.0,0.0,0.0,0.0,0.0,0.0,0.0,0.0,0.0,0.0,0.0,0.0,4.6853,0.0,0.0,0.0,0.0,0.0,0.0,0.0,0.0,0.0,6.1777,6.5009,6.8982,7.3591,7.5091,7.6138,7.7151,0.0,0.0,0.0,0.0,0.0,0.0,0.0,7.1925,7.1641,7.2181,7.3122,7.4537,7.5544,7.6705,7.8373,0.0,0.0,7.172,7.0753,7.0753,7.0753,7.0753,7.1096,7.2162,7.2619,7.3323,0.0,0.0,0.0,0.0,0.0,0.0,0.0,0.0,5.7276,5.706,0.0,5.2829,0.0,0.0,0.0,0.0,0.0,5.1793,0.0,0.0,6.1007,6.3527,6.5807,6.5115,6.5231,6.5897,6.3486,6.1408,5.9281,5.151,0.0,0.0,0.0,0.0,0.0,0.0,5.628,5.9627,6.3743,6.632,6.709,6.709,6.6705,6.5897,6.4243,6.2589,6.0935,5.8473,5.6,5.3472,4.9385,0.0,0.0,0.0,0.0,0.0,0.0,0.0,0.0,0.0,0.0,0.0,0.0,0.0,0.0,0.0,0.0,0.0,0.0,0.0,0.0,4.744,0.0,0.0,0.0,0.0,0.0,0.0,0.0,0.0,0.0,0.0,6.678,7.0173,7.3972,7.7398,0.0,0.0,0.0,0.0,7.7641,7.6136,7.6498,7.6136,7.3734,7.4779,7.6114,7.6854,0.0,0.0,8.0558,8.1709,8.2821,8.4432,8.4662,8.3727,8.0366,7.9433,7.9394,7.9451,7.9374,7.9527,7.9642,8.0121,8.1172,6.4559,0.0,0.0,0.0,0.0,5.9664,6.1337,6.2678,6.259,6.2259,6.1645,5.9102,0.0,0.0,0.0,0.0,0.0,0.0,6.1825,6.4564,6.7101,6.905,7.0346,7.0102,7.0181,7.0401,6.8514,6.7024,6.5792,6.2286,5.718,5.0741,0.0,0.0,0.0,0.0,5.8858,6.2166,6.5205,6.7167,6.8013,6.7398,6.6705,6.5936,6.482,6.4012,6.3512,6.1666,5.9742,5.7742,5.428,0.0,0.0,0.0,0.0,0.0,0.0,0.0,0.0,0.0,0.0,0.0,0.0,0.0,0.0,0.0,0.0,0.0,0.0,0.0,5.0138,5.3004,5.4603,0.0,0.0,0.0,0.0,0.0,0.0,0.0,0.0,0.0,7.7096,7.7406,7.8476,0.0,0.0,8.1009,8.1342,8.0618,7.9889,7.9457,7.858,0.0,7.7725,7.8174,7.8859,7.961,8.1826,8.3951,8.5296,8.6718,8.7833,8.8333,8.8909,8.9122,8.8741,8.656,8.5204,8.5626,8.5779,8.5971,8.6545,8.6852,8.7292,7.2745,6.8359,6.555,6.5074,6.6186,6.7212,6.844,6.9668,6.8852,6.829,6.7867,6.5651,6.3732,6.2081,6.0737,0.0,0.0,0.0,6.6999,6.9127,7.0692,7.2066,7.3171,7.2902,7.2943,7.324,7.1981,7.0902,7.0015,6.8369,6.4787,5.9326,0.0,0.0,5.6549,5.9011,6.1627,6.4282,6.6859,6.8398,6.8898,6.7705,6.6859,6.6397,6.5551,6.4974,6.4589,6.332,6.1781,6.0089,5.7473,5.3857,0.0,0.0,0.0,0.0,0.0,0.0,0.0,0.0,0.0,0.0,0.0,4.1907,4.4577,0.0,0.0,0.0,4.9981,5.2295,5.5769,5.8073,0.0,0.0,0.0,0.0,0.0,0.0,0.0,7.3599,7.6862,8.0317,8.4153,8.4024,8.3874,8.4719,8.4485,8.4114,8.378,0.0,8.2808,8.2512,8.1865,8.1448,8.1618,8.2265,8.3144,8.4297,8.6445,8.8363,8.9286,9.0556,9.1364,9.1479,9.1825,9.2479,9.3326,9.1659,9.026,9.0452,9.049,9.0682,9.1124,9.124,9.1489,7.9152,7.904,7.4817,7.3699,7.4735,7.4811,7.5287,7.6056,7.5231,7.449,7.3721,7.201,7.0305,6.869,6.796,0.0,6.8757,6.9681,7.0912,7.2426,7.2465,7.3339,7.4832,7.4139,7.4217,7.4977,7.4244,7.3472,7.2546,7.1041,6.9743,6.8602,6.3957,6.11,6.0281,6.2512,6.4512,6.6205,6.8552,6.9744,6.9667,6.8065,6.718,6.7103,6.6244,6.5397,6.4628,6.3743,6.2551,6.0973,5.9358,5.6588,5.2423,0.0,0.0,0.0,0.0,0.0,0.0,0.0,0.0,0.0,0.0,0.0,0.0,0.0,0.0,0.0,5.6242,0.0,6.1166,6.3089,0.0,0.0,0.0,6.8971,7.1353,7.3138,7.6133,8.1036,0.0,0.0,8.8594,8.971,8.9598,8.7934,8.7658,8.7325,8.6517,8.6324,8.6055,8.5269,8.5747,8.594,8.5385,8.6615,8.8132,8.9615,9.0864,9.1556,9.2326,9.3133,9.371,9.371,9.3864,9.4134,9.4941,9.4903,9.4864,9.3941,9.3826,9.3864,9.3808,9.3808,9.4038,8.3375,8.4431,8.2738,8.001,7.6812,7.6787,7.7288,7.802,7.7186,7.6737,7.6467,7.5374,7.3986,7.2444,7.2868,7.2444,7.1531,7.2997,7.3883,7.4269,7.495,7.5464,7.5863,7.5671,7.571,7.5928,7.5774,7.5233,7.4383,7.3971,7.266,7.0515,6.923,6.7511,6.5448,6.6551,6.7705,6.8783,7.0014,7.0348,6.9785,6.8706,6.7872,6.7178,6.5692,6.482,6.4589,6.3743,6.282,6.182,6.0781,5.855,5.4972,5.2202,0.0,0.0,0.0,0.0,0.0,0.0,0.0,0.0,0.0,5.1625,5.5857,0.0,5.883,0.0,6.2281,6.4551,6.6436,6.986,0.0,0.0,7.4577,7.7254,7.8538,8.0715,8.3368,8.65,8.8346,8.9923,9.1402,9.2287,9.2633,9.2136,9.05,8.9248,8.9017,8.8479,8.8017,8.7825,8.744,8.7478,8.8594,9.0171,9.1556,9.2633,9.2979,9.3172,9.3364,9.4134,9.4672,9.4749,9.5249,9.5711,9.5903,9.598,9.5942,9.5711,9.5672,9.5672,9.5672,9.5672,9.5711,8.5569,8.6447,8.5984,8.3898,8.0937,8.0509,8.0558,8.0867,7.9324,7.8629,7.8565,7.7716,7.6868,7.598,7.6019,7.5556,7.4745,7.5234,7.5465,7.5504,7.5967,7.6212,7.6238,7.6238,7.6276,7.635,7.635,7.6079,7.5615,7.5229,7.4111,7.2312,7.1926,7.0758,6.8963,6.8603,6.8912,6.9759,7.0568,7.0774,7.0349,6.9167,6.8126,6.7239,6.5584,6.4174,6.3057,6.2852,6.2248,6.1092,6.0916,5.9634,5.7016,5.5137,5.2626,0.0,0.0,0.0,0.0,0.0,0.0,0.0,0.0,0.0,0.0,0.0,6.5166,6.7513,6.8975,7.0821,7.3245,7.6245,7.8054,7.8015,8.1093,8.367,8.4863,8.6632,8.8517,9.0671,9.1748,9.2633,9.3518,9.398,9.4441,9.4788,9.3287,9.2018,9.1595,9.0902,9.0402,9.0364,8.9979,9.0094,9.1402,9.2402,9.3326,9.4057,9.4249,9.4403,9.4788,9.5249,9.5595,9.5595,9.598,9.6288,9.6288,9.6288,9.6288,9.6288,9.6288,9.6288,9.6288,9.6288,9.6288,8.6633,8.6764,8.6648,8.6223,8.5552,8.4579,8.4059,8.3673,8.1358,8.0316,8.0161,7.9441,7.9094,7.894,7.8206,7.7782,7.7627,7.6765,7.6379,7.6379,7.6302,7.625,7.6313,7.6313,7.635,7.6397,7.6397,7.6397,7.6359,7.5624,7.4815,7.3968,7.3183,7.231,7.1284,6.9741,6.9304,7.0037,7.0771,7.1118,7.1118,6.9459,6.8262,6.7452,6.5627,6.361,6.146,6.1758,6.1411,6.0138,6.0674,6.0421,5.9044,5.8154,5.6697,0.0,5.4465,0.0,0.0,0.0,0.0,0.0,0.0,0.0,0.0,6.8013,7.1283,7.5476,7.5861,7.7207,8.0477,8.2362,8.3708,8.4401,8.6671,8.8786,9.0248,9.1171,9.2287,9.3864,9.4057,9.4326,9.5018,9.5172,9.548,9.598,9.548,9.4729,9.4113,9.319,9.2518,9.2672,9.2749,9.2864,9.3557,9.3941,9.4326,9.498,9.5172,9.5441,9.6095,9.6211,9.6288,9.6306,9.6306,9.6306,9.6325,9.6325,9.6325,9.6343,9.6343,9.6325,9.6288,9.6288,9.6288,8.6983,8.7602,8.688,8.6919,8.7331,8.6467,8.5293,8.3979,8.278,8.1852,8.1234,8.1079,8.0615,7.9958,7.9764,7.9339,7.8682,7.7792,7.7406,7.7367,7.6671,7.6374,7.6386,7.6386,7.6397,7.6397,7.6397,7.6397,7.6397,7.6243,7.574,7.4866,7.4672,7.386,7.2341,0.0,0.0,0.0,7.1077,7.119,7.1112,6.9567,6.8602,6.837,6.5379,0.0,6.2993,6.1874,6.1383,6.1692,6.1874,0.0,0.0,0.0,0.0,0.0,0.0,0.0,0.0,0.0,0.0,0.0,7.2251,7.3009,7.1066,7.3745,7.7361,8.1439,8.19,8.3016,8.5709,8.8132,8.9286,8.8863,9.0979,9.2633,9.2979,9.3749,9.4672,9.5672,9.5788,9.5865,9.598,9.6057,9.6095,9.6249,9.6134,9.6017,9.5858,9.4457,9.3518,9.3518,9.3998,9.4536,9.4711,9.5306,9.5729,9.6057,9.6057,9.6095,9.6249,9.6288,9.6325,9.6397,9.6376,9.6394,9.6463,9.648,9.6463,9.648,9.648,9.6429,9.6325,9.6288,9.6288,8.8157,0.0,8.8041,8.7886,0.0,8.7422,8.6764,8.5875,8.4598,8.3322,8.2122,8.1697,8.1259,8.0807,8.042,7.9956,7.9569,7.8718,7.8099,7.7674,7.7248,7.6823,7.6397,7.6397,7.6397,7.6397,7.6397,7.6397,7.6397,7.6397,7.5972,7.5121,7.5121,7.4463,7.3264,7.28,7.1916,7.0583,7.1004,7.1247,7.1208,6.9971,6.8966,6.8077,6.5996,0.0,0.0,0.0,0.0,0.0,0.0,0.0,0.0,0.0,0.0,6.6688,6.7557,6.8541,6.9855,7.2716,7.4958,7.6222,7.943,8.0563,7.8661,8.015,8.2925,8.7009,8.7125,8.7895,9.04,9.1814,9.2511,9.255,9.3977,9.498,9.5018,9.5365,9.5826,9.6172,9.6325,9.6361,9.6361,9.6358,9.6394,9.6394,9.6394,9.6411,9.633,9.5277,9.4415,9.4506,9.4814,9.5277,9.5662,9.6047,9.6394,9.6394,9.6394,9.6394,9.6394,9.6394,9.6411,9.6408,9.6463,9.648,9.6476,9.6492,9.6492,9.6492,9.6492,9.6459,9.6411,9.6394,9.6415,8.9201,8.9201,8.9008,8.866,8.8118,8.7963,8.7886,8.7795,0.0,0.0,0.0,8.2122,8.1736,8.1658,8.0807,8.042,8.0382,7.9569,7.8834,7.8138,7.7983,7.7442,7.6641,7.663,7.6564,7.6397,7.6397,7.6397,7.6397,7.6397,7.6049,7.5392,7.5314,7.4928,7.4154,7.396,7.2839,7.0849,7.1418,7.1678,7.1523,7.0683,6.9533,6.7975,6.6989,6.5509,6.355,6.4751,6.5243,6.4799,6.6281,6.7601,6.8705,6.87,6.9768,7.2172,7.3519,7.5077,7.7052,7.9299,8.1352,8.2995,8.4776,8.5862,8.6008,8.5902,8.7601,9.1848,9.1423,9.1871,9.421,9.4415,9.4634,9.5311,9.5917,9.6304,9.6343,9.6343,9.6304,9.6343,9.6376,9.6429,9.6429,9.648,9.6492,9.6492,9.6476,9.6492,9.6415,9.5863,9.5367,9.5456,9.555,9.5743,9.6299,9.6476,9.6492,9.6476,9.6476,9.6492,9.6492,9.6509,9.6525,9.6542,9.6542,9.6542,9.6558,9.6558,9.6542,9.6542,9.6542,9.6542,9.6542,9.658,9.6548,8.9201,8.9124,8.8389,8.8466,8.8969,8.8234,8.7886,8.7809,8.6842,8.5488,8.3863,8.3012,8.2587,8.2587,8.1736,8.131,8.1259,8.0459,7.9956,7.9801,7.9144,7.837,7.7519,7.7519,7.7094,7.6436,7.6397,7.6397,7.6397,7.6397,7.632,7.6204,7.6204,7.5779,7.4966,7.4231,7.3751,7.3457,7.348,7.3187,7.2413,7.1616,7.0746,6.9739,6.8278,6.7364,6.698,6.7182,6.765,6.8348,6.9289,7.0859,7.3112,7.3231,7.4102,7.5999,7.8832,8.0398,8.0174,8.4282,8.7661,8.9242,8.8466,8.829,8.9511,8.8955,9.0309,9.4356,9.4099,9.4341,9.5965,9.6181,9.6149,9.6261,9.6382,9.6497,9.6442,9.648,9.648,9.6442,9.6459,9.6476,9.6476,9.6492,9.6509,9.6492,9.6525,9.6564,9.6574,9.6448,9.6321,9.6338,9.6338,9.6377,9.647,9.6492,9.6509,9.6492,9.6509,9.6542,9.6542,9.659,9.6653,9.6738,9.6768,9.6783,9.6827,9.6798,9.6768,9.6753,9.6753,9.6738,9.6738,9.6738,9.6692,8.9859,8.9743,8.8969,8.8582,8.8466,8.8079,8.7615,8.7228,8.7292,8.6377,8.4792,8.4327,8.3631,8.278,8.2393,8.1929,8.1452,8.1078,8.0653,8.0188,7.9801,7.9221,7.8448,7.8409,7.7945,7.7132,7.7094,7.6862,7.6436,7.6397,7.6397,7.6409,7.6432,7.625,7.5863,7.5548,7.5358,7.5381,7.4446,7.3756,7.3362,7.3025,7.2434,7.1591,7.0848,7.0293,6.9903,7.0314,7.0784,7.1258,7.2567,7.402,7.5591,7.6163,7.7826,8.0864,8.2465,8.3999,8.5525,8.7736,8.9402,9.0172,8.9947,9.0418,9.1996,9.1684,9.2765,9.5984,9.5984,9.6036,9.6809,9.6807,9.675,9.6738,9.6622,9.6574,9.6558,9.6525,9.6492,9.6492,9.658,9.6613,9.6613,9.6645,9.6676,9.6676,9.6676,9.6692,9.6761,9.6738,9.6684,9.6676,9.6676,9.6676,9.6676,9.6707,9.6723,9.6738,9.6729,9.6774,9.6817,9.6859,9.6901,9.6967,9.6941,9.698,9.7019,9.6993,9.6953,9.6912,9.687,9.6856,9.6841,9.6812,9.6738,9.071,9.0633,8.982,8.8853,8.7925,8.7886,8.7422,8.6764,8.7731,8.7345,8.5952,8.5488,8.4559,8.3399,8.2973,8.2316,8.1581,8.1491,8.1117,8.0536,8.0498,8.0072,7.9337,7.926,7.8834,7.8061,7.7995,7.7659,7.704,7.6831,7.6637,7.6494,7.6499,7.6531,7.6521,7.6594,7.6614,7.6582,7.5323,7.4567,7.4353,7.439,7.3998,7.3238,7.3192,7.2938,7.2387,7.3319,7.3932,7.4085,7.5668,7.6969,7.787,7.8724,8.0865,8.4254,8.5209,8.6869,8.9715,8.9709,8.9709,9.0099,9.0489,9.158,9.3328,9.35,9.4446,9.6701,9.7118,9.7136,9.7149,9.7052,9.6992,9.6954,9.6807,9.6735,9.6691,9.6669,9.6622,9.6622,9.6707,9.6753,9.6768,9.6798,9.6827,9.6841,9.6841,9.6841,9.6841,9.6898,9.6912,9.6884,9.6856,9.6856,9.6856,9.6898,9.6939,9.6966,9.6993,9.7043,9.7079,9.7114,9.716,9.7165,9.7136,9.7126,9.716,9.7114,9.7091,9.7043,9.7019,9.6939,9.6884,9.6856,9.6783,9.1561,9.1445,9.0633,8.9356,8.8041,8.7925,8.7422,8.688,8.835,8.8544,8.7538,8.6029,8.5294,8.4869,8.3476,8.2355,8.1581,8.1491,8.1465,8.1349,8.1375,8.0923,8.015,8.0072,7.9685,7.8963,7.8944,7.8889,7.8668,7.8053,7.7338,7.6679,7.6614,7.6565,7.6614,7.6657,7.6715,7.6801,7.6636,7.6154,7.5432,7.5385,7.4994,7.4178,7.4248,7.4244,7.4231,7.5737,7.6669,7.6861,7.8359,7.9699,8.0526,8.1378,8.2698,8.4729,8.6942,8.9118,9.0715,8.9622,8.9384,9.0793,9.0364,9.1105,9.3482,9.3751,9.4758,9.6692,9.7317,9.7294,9.729,9.7246,9.7227,9.7175,9.711,9.7052,9.7043,9.7057,9.7031,9.6941,9.6966,9.6979,9.6979,9.6979,9.6993,9.6954,9.6993,9.6954,9.6967,9.7057,9.7055,9.7069,9.7031,9.7031,9.7057,9.7082,9.7079,9.7087,9.7143,9.7186,9.7217,9.7227,9.729,9.729,9.7299,9.729,9.7264,9.7266,9.7196,9.7175,9.7137,9.7057,9.6939,9.6884,9.6856,9.1716,9.1677,9.1329,9.0478,8.9317,8.835,8.7693,8.7499,8.8118,8.8505,8.8596,8.79,8.7036,8.5991,8.4327,8.3089,8.2277,8.1736,8.1528,8.1565,8.1565,8.1395,8.1108,8.1081,8.0666,7.9936,7.9918,7.9678,7.9126,7.837,7.7768,7.7416,7.6954,7.6715,7.6747,7.6791,7.6839,7.6909,7.6905,7.6765,7.6497,7.6387,7.6226,7.5952,7.5985,7.6248,7.6777,7.7495,7.8093,7.8649,7.9825,8.0609,8.1003,8.2759,8.4554,8.6309,8.8766,9.0052,8.9737,8.9034,8.919,9.0401,9.0167,9.1065,9.3564,9.3876,9.4529,9.5789,9.6446,9.6914,9.7311,9.7426,9.7387,9.7308,9.7255,9.7217,9.7198,9.7175,9.716,9.7137,9.7064,9.7052,9.7079,9.7052,9.7052,9.7052,9.7052,9.7064,9.7099,9.7193,9.7196,9.7227,9.7237,9.7217,9.7165,9.7196,9.7237,9.7227,9.7273,9.7338,9.738,9.7395,9.7433,9.7461,9.7461,9.7454,9.7426,9.7411,9.7371,9.7338,9.7256,9.7193,9.7028,9.698,9.6939,9.1732,9.1732,9.1732,9.1268,9.0352,8.8907,8.8133,8.7978,8.7939,8.8417,8.9217,8.9268,8.8725,8.7577,8.5719,8.4275,8.3152,8.2312,8.1922,8.1968,8.1746,8.1663,8.1734,8.1716,8.1436,8.0932,8.0882,8.0491,7.9718,7.9134,7.8645,7.8365,7.7818,7.7469,7.7266,7.7462,7.757,7.7437,7.7578,7.7756,7.781,7.7785,7.761,7.7433,7.7651,7.8096,7.8729,7.8972,7.9406,8.0031,8.0891,8.1478,8.1791,8.3978,8.6087,8.7962,8.9601,9.0031,8.8742,8.8469,8.8859,8.9836,8.9992,9.1008,9.2961,9.3546,9.3937,9.4717,9.5319,9.5988,9.706,9.7427,9.7517,9.7493,9.7415,9.7379,9.7364,9.7299,9.7284,9.7227,9.7207,9.7178,9.7178,9.7178,9.7188,9.7188,9.7178,9.7188,9.7227,9.7312,9.7355,9.7364,9.7408,9.7433,9.7329,9.7316,9.7364,9.7394,9.7461,9.7505,9.7561,9.7567,9.7577,9.7572,9.7607,9.7641,9.7554,9.7538,9.7499,9.7454,9.7395,9.7312,9.7186,9.7126,9.7018,9.1875,9.1875,9.1875,9.141,9.0531,8.9627,8.8813,8.8193,8.8127,8.8577,8.9282,8.946,8.9831,9.0224,8.7808,8.5762,8.4222,8.3335,8.2901,8.2795,8.2175,8.1805,8.1776,8.1774,8.1761,8.1662,8.1727,8.1474,8.0767,8.0617,8.0227,7.9493,7.9411,7.9042,7.8525,7.9111,7.9137,7.8484,7.9042,7.9517,7.9519,7.9517,7.9125,7.858,7.9128,7.9519,7.9716,8.0463,8.0934,8.0973,8.1835,8.2617,8.3515,8.5156,8.7226,8.9375,8.9219,8.8828,8.8594,8.8008,8.8281,8.9687,9.0,9.0742,9.25,9.2773,9.3125,9.3867,9.4098,9.4793,9.6231,9.7112,9.7571,9.7646,9.762,9.7549,9.7483,9.7487,9.7447,9.7387,9.7372,9.7395,9.7403,9.7372,9.7364,9.7364,9.7364,9.7372,9.7387,9.7447,9.748,9.7522,9.7593,9.7646,9.7532,9.7499,9.7528,9.7549,9.7576,9.7646,9.7659,9.7667,9.7672,9.7674,9.7667,9.7667,9.7672,9.7659,9.7628,9.7554,9.7505,9.7433,9.7355,9.7256,9.7143,9.1967,9.1967,9.1967,9.1773,9.1423,9.0608,8.9754,8.9027,8.8981,8.8846,8.8876,8.9828,9.0254,9.0038,8.9696,8.8204,8.5981,8.4553,8.3666,8.3212,8.2878,8.2466,8.2029,8.1966,8.1987,8.2007,8.2026,8.1951,8.168,8.1138,8.1,8.1102,8.0722,8.0302,8.0121,8.0365,8.01,7.936,7.9562,7.9721,7.98,8.0232,8.0389,8.0076,7.9801,7.9957,8.0506,8.1366,8.2109,8.2617,8.3476,8.4101,8.4531,8.6094,8.7617,8.8945,8.8867,8.8476,8.7969,8.7656,8.8242,8.9765,9.0,9.0742,9.2187,9.2617,9.2734,9.3086,9.3633,9.4452,9.5429,9.6395,9.7088,9.7555,9.7667,9.7656,9.765,9.7636,9.7616,9.7607,9.7583,9.7511,9.7538,9.7526,9.7538,9.7517,9.7556,9.7572,9.7602,9.7616,9.7624,9.7607,9.7659,9.7662,9.765,9.7646,9.7653,9.7659,9.7667,9.7672,9.7676,9.7678,9.768,9.7682,9.7684,9.7684,9.7682,9.7678,9.7659,9.7656,9.7585,9.7538,9.7499,9.7403,9.7284,9.2093,9.2093,9.2093,9.2093,9.1976,9.1208,9.0547,8.9924,8.9415,8.9004,8.8943,8.9738,8.9968,8.9872,9.0366,8.9774,8.7929,8.6405,8.5315,8.4546,8.402,8.3343,8.2619,8.225,8.2148,8.2123,8.2136,8.2191,8.2173,8.163,8.168,8.2127,8.166,8.1273,8.1085,8.1282,8.0969,8.0308,8.0388,8.0545,8.0663,8.1367,8.1836,8.1836,8.1522,8.1483,8.1836,8.2422,8.3125,8.3984,8.4609,8.5156,8.5781,8.6836,8.7851,8.8554,8.8437,8.8086,8.7656,8.7734,8.8515,8.9844,9.0312,9.1094,9.2422,9.2578,9.2578,9.2734,9.3086,9.3906,9.5,9.57,9.6477,9.7415,9.7687,9.7685,9.7684,9.7676,9.7667,9.7662,9.765,9.7628,9.7616,9.7616,9.762,9.7632,9.7636,9.7646,9.7701,9.7706,9.7672,9.7682,9.7684,9.7685,9.7695,9.7656,9.7656,9.7682,9.7695,9.7695,9.7695,9.7695,9.7695,9.7695,9.7695,9.7695,9.7688,9.7685,9.7685,9.7684,9.7669,9.7639,9.7597,9.7544,9.7411,9.2306,9.2306,9.2274,9.2306,9.2182,9.1495,9.1028,9.0677,8.9365,8.9151,8.9403,8.9019,8.9247,8.971,8.9953,8.9895,8.959,8.8755,8.79,8.6969,8.5643,8.4529,8.3635,8.2843,8.2344,8.2232,8.2285,8.229,8.229,8.2212,8.2253,8.2333,8.2372,8.1985,8.109,8.1911,8.1874,8.1328,8.1758,8.2187,8.2422,8.3047,8.3476,8.3594,8.414,8.4179,8.3633,8.3672,8.4101,8.4804,8.5,8.5781,8.7031,8.7461,8.7812,8.8359,8.7929,8.7578,8.7617,8.8203,8.8945,8.9922,9.0742,9.1562,9.2383,9.2578,9.2578,9.2617,9.2812,9.3398,9.4883,9.5351,9.6054,9.7383,9.7693,9.7691,9.769,9.7685,9.768,9.768,9.7676,9.768,9.7678,9.7672,9.7672,9.7674,9.7676,9.7678,9.7682,9.7682,9.7685,9.7689,9.7691,9.7692,9.7695,9.7695,9.7695,9.7695,9.7695,9.7695,9.7695,9.7695,9.7695,9.7695,9.7695,9.7695,9.7695,9.7693,9.7691,9.769,9.7682,9.7674,9.765,9.7572,9.7522,9.2423,9.2423,9.2423,9.2462,9.2429,9.2134,9.1715,9.1135,9.0543,8.9895,8.92,8.9405,8.9375,8.9263,8.9657,8.9974,9.0017,9.0198,8.9645,8.836,8.7702,8.6652,8.5366,8.4435,8.3421,8.2445,8.2292,8.2295,8.2299,8.23,8.2574,8.3085,8.3164,8.3085,8.2734,8.3046,8.2773,8.2109,8.2734,8.3203,8.3281,8.4062,8.4492,8.4531,8.4765,8.5,8.5351,8.539,8.5547,8.5781,8.6367,8.6953,8.7383,8.75,8.7617,8.7812,8.7656,8.75,8.7578,8.8281,8.9101,8.9961,9.082,9.1679,9.2461,9.2578,9.2617,9.2695,9.3125,9.4023,9.5,9.5781,9.6523,9.7578,9.7695,9.7695,9.7695,9.7695,9.7692,9.7689,9.7688,9.7687,9.7682,9.768,9.7684,9.7688,9.7688,9.7689,9.7693,9.7695,9.7694,9.7695,9.7695,9.7695,9.7695,9.7695,9.7695,9.7695,9.7695,9.7695,9.7695,9.7695,9.7695,9.7695,9.7695,9.7695,9.7695,9.7695,9.7695,9.7695,9.769,9.7687,9.768,9.7662,9.7585,9.2546,9.2546,9.2507,9.2546,9.2546,9.2522,9.2252,9.1708,9.1375,9.064,8.9861,8.9514,8.9246,8.8896,8.9288,8.9523,8.9603,9.0424,9.0229,8.933,8.9172,8.8389,8.6945,8.5503,8.4409,8.3315,8.2612,8.2301,8.2303,8.2342,8.2577,8.3008,8.3125,8.3086,8.3125,8.3125,8.289,8.2851,8.332,8.3906,8.4609,8.5429,8.6015,8.625,8.6328,8.6601,8.707,8.6836,8.6679,8.6758,8.7226,8.75,8.75,8.75,8.75,8.75,8.7539,8.7617,8.7969,8.8789,8.957,9.0429,9.1289,9.1992,9.25,9.2578,9.2656,9.3125,9.3554,9.4375,9.5508,9.6133,9.6836,9.7617,9.7695,9.7695,9.7695,9.7695,9.7695,9.7694,9.7694,9.7692,9.769,9.7689,9.769,9.7693,9.7694,9.7694,9.7695,9.7695,9.7695,9.7695,9.7695,9.7695,9.7695,9.7695,9.7695,9.7695,9.7695,9.7695,9.7695,9.7695,9.7695,9.7695,9.7695,9.7695,9.7695,9.7695,9.7695,9.7695,9.7695,9.7692,9.7688,9.7684,9.7628,9.2603,9.2603,9.2603,9.2601,9.2601,9.2601,9.2562,9.2408,9.1784,9.1316,9.0849,8.9794,8.8939,8.8746,8.8825,8.8787,8.8789,8.9531,8.9883,8.9765,8.9764,8.9372,8.8435,8.6522,8.5273,8.4492,8.3281,8.25,8.2304,8.2304,8.2304,8.2422,8.2539,8.25,8.2851,8.2578,8.3281,8.4023,8.4101,8.5,8.6328,8.7187,8.7851,8.8437,8.8398,8.8359,8.8164,8.7656,8.7422,8.7461,8.7461,8.75,8.75,8.75,8.75,8.75,8.75,8.7929,8.8633,8.9375,9.0351,9.1289,9.2148,9.2734,9.2929,9.3125,9.332,9.3906,9.4179,9.4804,9.6094,9.6601,9.6992,9.7539,9.7695,9.7695,9.7695,9.7695,9.7695,9.7695,9.7695,9.7695,9.7695,9.7695,9.7695,9.7695,9.7695,9.7695,9.7695,9.7695,9.7695,9.7695,9.7695,9.7695,9.7695,9.7695,9.7695,9.7695,9.7695,9.7695,9.7695,9.7695,9.7695,9.7695,9.7695,9.7695,9.7695,9.7695,9.7695,9.7695,9.7695,9.7695,9.7695,9.7695,9.7687,9.2603,9.2603,9.2603,9.2603,9.2605,9.2609,9.2611,9.2572,9.2381,9.1875,9.1289,9.0858,8.9844,8.8789,8.8711,8.8398,8.8164,8.8672,8.9062,8.914,8.9726,8.9882,8.9492,8.832,8.6679,8.5156,8.4492,8.3554,8.2383,8.2578,8.25,8.2344,8.3125,8.3672,8.414,8.4804,8.5625,8.6445,8.707,8.7422,8.8008,8.8867,8.9101,8.8672,8.8711,8.8437,8.7929,8.7617,8.75,8.75,8.75,8.75,8.75,8.75,8.75,8.75,8.7578,8.789,8.8672,8.957,9.0703,9.2109,9.3047,9.3828,9.4492,9.4492,9.4609,9.4961,9.539,9.5937,9.6523,9.7031,9.7461,9.7617,9.7695,9.7695,9.7695,9.7695,9.7695,9.7695,9.7695,9.7695,9.7695,9.7695,9.7695,9.7695,9.7695,9.7695,9.7695,9.7695,9.7695,9.7695,9.7695,9.7695,9.7695,9.7695,9.7695,9.7695,9.7695,9.7695,9.7695,9.7695,9.7695,9.7695,9.7695,9.7695,9.7695,9.7695,9.7695,9.7695,9.7695,9.7695,9.7695,9.7695,9.7695,9.2573,9.2573,9.2573,9.2613,9.2573,9.2576,9.2577,9.2577,9.2578,9.2344,9.1836,9.1406,9.0547,8.9297,8.8867,8.8281,8.7656,8.7969,8.8164,8.8359,8.9023,8.9609,8.9648,8.9101,8.789,8.6679,8.6133,8.5469,8.4726,8.4492,8.4492,8.4687,8.4961,8.5508,8.5937,8.6445,8.7187,8.789,8.8515,8.8984,8.9804,9.0273,9.0273,8.9765,8.9453,8.875,8.7734,8.75,8.75,8.75,8.75,8.75,8.75,8.75,8.75,8.75,8.7812,8.8359,8.9297,9.0351,9.1679,9.2969,9.3945,9.4609,9.5039,9.5195,9.5273,9.5781,9.625,9.6601,9.7031,9.7461,9.7656,9.7695,9.7695,9.7695,9.7695,9.7695,9.7695,9.7695,9.7695,9.7695,9.7695,9.7695,9.7695,9.7695,9.7695,9.7695,9.7695,9.7695,9.7695,9.7695,9.7695,9.7695,9.7695,9.7695,9.7695,9.7695,9.7695,9.7695,9.7695,9.7695,9.7695,9.7695,9.7695,9.7695,9.7695,9.7695,9.7695,9.7695,9.7695,9.7695,9.7695,9.7695,9.7695,9.2578,9.2578,9.2578,9.2578,9.2578,9.2578,9.2578,9.2578,9.2578,9.2578,9.2383,9.1758,9.1015,9.0078,8.9336,8.8437,8.7656,8.7656,8.7578,8.7812,8.8281,8.8906,8.9336,8.9219,8.8711,8.8281,8.7851,8.7422,8.6953,8.7109,8.7304,8.707,8.7265,8.7656,8.7773,8.7929,8.8359,8.9179,8.9492,9.0156,9.1054,9.1367,9.125,9.0898,8.9922,8.8906,8.789,8.75,8.75,8.75,8.75,8.75,8.75,8.75,8.7617,8.7773,8.832,8.9062,9.0273,9.1679,9.3047,9.4101,9.4961,9.539,9.5625,9.5781,9.6015,9.6562,9.664,9.7031,9.7422,9.7695,9.7695,9.7695,9.7695,9.7695,9.7695,9.7695,9.7695,9.7695,9.7695,9.7695,9.7695,9.7695,9.7695,9.7695,9.7695,9.7695,9.7695,9.7695,9.7695,9.7695,9.7695,9.7695,9.7695,9.7695,9.7695,9.7695,9.7695,9.7695,9.7695,9.7695,9.7695,9.7695,9.7695,9.7695,9.7695,9.7695,9.7695,9.7695,9.7695,9.7695,9.7695,9.7695,9.7695,9.2578,9.2578,9.2578,9.2578,9.2578,9.2578,9.2578,9.2578,9.2578,9.2578,9.2539,9.2383,9.1797,9.0937,9.0039,8.9258,8.8359,8.7812,8.75,8.7539,8.7617,8.7812,8.8359,8.8945,8.9297,8.8867,8.8554,8.8164,8.7812,8.789,8.7578,8.7773,8.8515,8.8828,8.9453,9.0039,9.0898,9.1601,9.1679,9.1719,9.2031,9.2226,9.1914,9.1211,8.9804,8.8594,8.7773,8.75,8.75,8.75,8.7539,8.7578,8.7578,8.7578,8.7851,8.8398,8.8672,8.9726,9.1562,9.25,9.3594,9.5508,9.6015,9.6484,9.7109,9.707,9.7187,9.7422,9.7461,9.75,9.7656,9.7695,9.7695,9.7695,9.7695,9.7695,9.7695,9.7695,9.7695,9.7695,9.7695,9.7695,9.7695,9.7695,9.7695,9.7695,9.7695,9.7695,9.7695,9.7695,9.7695,9.7695,9.7695,9.7695,9.7695,9.7695,9.7695,9.7695,9.7695,9.7695,9.7695,9.7695,9.7695,9.7695,9.7695,9.7695,9.7695,9.7695,9.7695,9.7695,9.7695,9.7695,9.7695,9.7695,9.7695,9.2578,9.2578,9.2578,9.2578,9.2578,9.2578,9.2578,9.2578,9.2578,9.2578,9.2578,9.2578,9.2109,9.125,9.039,8.9531,8.8672,8.789,8.75,8.75,8.75,8.75,8.7578,8.8398,8.8828,8.9179,8.9765,8.9765,8.9883,8.9804,9.0078,8.9922,9.0312,9.0781,9.1133,9.164,9.2031,9.2383,9.2578,9.2578,9.2578,9.2578,9.1914,9.0781,8.9414,8.832,8.7578,8.75,8.75,8.7578,8.7851,8.8047,8.8047,8.8086,8.8476,8.9179,8.9765,9.0625,9.2226,9.3437,9.4609,9.6328,9.6836,9.7226,9.7578,9.7695,9.7695,9.7695,9.7695,9.7695,9.7695,9.7695,9.7695,9.7695,9.7695,9.7695,9.7695,9.7695,9.7695,9.7695,9.7695,9.7695,9.7695,9.7695,9.7695,9.7695,9.7695,9.7695,9.7695,9.7695,9.7695,9.7695,9.7695,9.7695,9.7695,9.7695,9.7695,9.7695,9.7695,9.7695,9.7695,9.7695,9.7695,9.7695,9.7695,9.7695,9.7695,9.7695,9.7695,9.7695,9.7695,9.7695,9.7695,9.7695,9.7695,9.2578,9.2578,9.2578,9.2578,9.2578,9.2578,9.2578,9.2578,9.2578,9.2578,9.2578,9.2578,9.2187,9.1445,9.0664,8.9726,8.875,8.8125,8.7773,8.75,8.75,8.75,8.7617,8.7929,8.8711,8.9961,9.0469,9.1172,9.2031,9.2539,9.1914,9.2422,9.2461,9.2226,9.2461,9.2578,9.2539,9.2578,9.2578,9.2578,9.2578,9.2539,9.1758,9.0273,8.9492,8.8476,8.7734,8.75,8.7578,8.7695,8.832,8.8789,8.9023,8.8984,8.9297,9.0117,9.0742,9.1797,9.3125,9.4336,9.5508,9.6562,9.7226,9.7617,9.7695,9.7695,9.7695,9.7695,9.7695,9.7695,9.7695,9.7695,9.7695,9.7695,9.7695,9.7695,9.7695,9.7695,9.7695,9.7695,9.7695,9.7695,9.7695,9.7695,9.7695,9.7695,9.7695,9.7695,9.7695,9.7695,9.7695,9.7695,9.7695,9.7695,9.7695,9.7695,9.7695,9.7695,9.7695,9.7695,9.7695,9.7695,9.7695,9.7695,9.7695,9.7695,9.7695,9.7695,9.7695,9.7695,9.7695,9.7695,9.7695,9.7695,9.7695,9.2578,9.2578,9.2578,9.2578,9.2578,9.2578,9.2578,9.2578,9.2578,9.2578,9.2578,9.2578,9.25,9.2109,9.1445,9.0234,8.9023,8.8476,8.8086,8.7656,8.7539,8.75,8.7578,8.8125,8.8984,8.9726,9.0351,9.1211,9.2304,9.2578,9.2578,9.2578,9.2578,9.2578,9.2578,9.2578,9.2578,9.2578,9.2578,9.2578,9.2578,9.2383,9.1719,9.0156,8.9648,8.8828,8.7812,8.7539,8.7812,8.8437,8.8594,8.9492,9.0273,9.0117,9.0351,9.0898,9.1289,9.2304,9.4179,9.4883,9.6015,9.707,9.7617,9.7656,9.7695,9.7695,9.7695,9.7695,9.7695,9.7695,9.7695,9.7695,9.7695,9.7695,9.7695,9.7695,9.7695,9.7695,9.7695,9.7695,9.7695,9.7695,9.7695,9.7695,9.7695,9.7695,9.7695,9.7695,9.7695,9.7695,9.7695,9.7695,9.7695,9.7695,9.7695,9.7695,9.7695,9.7695,9.7695,9.7695,9.7695,9.7695,9.7695,9.7695,9.7695,9.7695,9.7695,9.7695,9.7695,9.7695,9.7695,9.7695,9.7695,9.7695,9.7695,9.2578,9.2578,9.2578,9.2578,9.2578,9.2578,9.2578,9.2578,9.2578,9.2578,9.2578,9.2578,9.2578,9.2383,9.1679,9.0547,8.9609,8.8867,8.8476,8.8086,8.7734,8.75,8.7617,8.832,8.9179,8.9922,9.0469,9.1289,9.25,9.2578,9.2578,9.2578,9.2578,9.2578,9.2578,9.2578,9.2578,9.2578,9.2578,9.2578,9.25,9.2226,9.1211,9.0312,8.9492,8.8672,8.789,8.8008,8.8281,8.8789,8.957,9.0429,9.1015,9.1406,9.1484,9.1836,9.1953,9.2851,9.4726,9.5234,9.5976,9.7383,9.7695,9.7695,9.7695,9.7695,9.7695,9.7695,9.7695,9.7695,9.7695,9.7695,9.7695,9.7695,9.7695,9.7695,9.7695,9.7695,9.7695,9.7695,9.7695,9.7695,9.7695,9.7695,9.7695,9.7695,9.7695,9.7695,9.7695,9.7695,9.7695,9.7695,9.7695,9.7695,9.7695,9.7695,9.7695,9.7695,9.7695,9.7695,9.7695,9.7695,9.7695,9.7695,9.7695,9.7695,9.7695,9.7695,9.7695,9.7695,9.7695,9.7695,9.7695,9.7695,9.7695,9.2578,9.2578,9.2578,9.2578,9.2578,9.2578,9.2578,9.2578,9.2578,9.2578,9.2578,9.2578,9.2578,9.2422,9.1875,9.1094,9.0234,8.9531,8.914,8.8554,8.8086,8.7734,8.7773,8.8515,8.9375,9.0039,9.1133,9.1914,9.2461,9.2578,9.2578,9.2578,9.2578,9.2578,9.2578,9.2578,9.2578,9.2578,9.2578,9.2578,9.2187,9.1679,9.0781,8.9844,8.9062,8.8359,8.7656,8.8203,8.8711,8.9336,9.0273,9.1367,9.164,9.2226,9.2578,9.2578,9.2578,9.3476,9.4453,9.5195,9.582,9.7148,9.7578,9.7656,9.7695,9.7695,9.7695,9.7695,9.7695,9.7695,9.7695,9.7695,9.7695,9.7695,9.7695,9.7695,9.7695,9.7695,9.7695,9.7695,9.7695,9.7695,9.7695,9.7695,9.7695,9.7695,9.7695,9.7695,9.7695,9.7695,9.7695,9.7695,9.7695,9.7695,9.7695,9.7695,9.7695,9.7695,9.7695,9.7695,9.7695,9.7695,9.7695,9.7695,9.7695,9.7695,9.7695,9.7695,9.7695,9.7695,9.7695,9.7695,9.7695,9.7695,9.7695,9.2578,9.2578,9.2578,9.2578,9.2578,9.2578,9.2578,9.2578,9.2578,9.2578,9.2578,9.2578,9.2578,9.2539,9.25,9.1875,9.1289,9.082,9.0,8.8984,8.8554,8.8047,8.7812,8.9179,8.9609,9.0195,9.1562,9.2383,9.2578,9.2578,9.2578,9.2578,9.2578,9.2578,9.2578,9.2578,9.2578,9.2578,9.2578,9.2226,9.1601,9.1289,9.0273,8.9297,8.8672,8.8359,8.7812,8.8437,8.9101,8.9922,9.0781,9.1679,9.2304,9.25,9.2578,9.2578,9.2695,9.3047,9.4023,9.4804,9.5586,9.6679,9.7304,9.7617,9.7695,9.7695,9.7695,9.7695,9.7695,9.7695,9.7695,9.7695,9.7695,9.7695,9.7695,9.7695,9.7695,9.7695,9.7695,9.7695,9.7695,9.7695,9.7695,9.7695,9.7695,9.7695,9.7695,9.7695,9.7695,9.7695,9.7695,9.7695,9.7695,9.7695,9.7695,9.7695,9.7695,9.7695,9.7656,9.765,9.7688,9.7685,9.7695,9.7695,9.7684,9.7685,9.7687,9.7688,9.7688,9.7689,9.7689,9.7687,9.7695,9.7684,9.7687,9.2578,9.2578,9.2578,9.2578,9.2578,9.2578,9.2578,9.2578,9.2578,9.2578,9.2578,9.2578,9.2578,9.2578,9.2578,9.2383,9.1992,9.1562,9.0664,8.9492,8.8945,8.8281,8.7929,8.8672,8.9414,9.0234,9.1211,9.207,9.2383,9.2578,9.2578,9.2578,9.2578,9.2578,9.25,9.2578,9.2578,9.2461,9.2148,9.1679,9.1133,9.0351,8.9492,8.8711,8.832,8.8125,8.8398,8.8984,8.9844,9.0703,9.1562,9.2148,9.25,9.2578,9.2578,9.2578,9.2578,9.3047,9.3867,9.4726,9.5586,9.6406,9.7187,9.7656,9.7695,9.7695,9.7695,9.7695,9.7695,9.7695,9.7695,9.7695,9.7694,9.7694,9.7691,9.769,9.769,9.769,9.7695,9.7695,9.769,9.7688,9.7687,9.7656,9.7656,9.7656,9.7695,9.7695,9.7695,9.7695,9.7695,9.7695,9.7695,9.7695,9.7695,9.7695,9.7695,9.7656,9.7578,9.7586,9.7625,9.7662,9.7382,9.7461,9.7581,9.7584,9.7591,9.7676,9.7682,9.7682,9.768,9.7678,9.7676,9.7678,9.7682,9.2578,9.2578,9.2578,9.2578,9.2578,9.2578,9.2578,9.2578,9.2578,9.2578,9.2578,9.2578,9.2578,9.2578,9.2578,9.2539,9.2539,9.1914,9.1133,9.0312,8.9453,8.8633,8.832,8.8633,8.9062,8.9726,9.0859,9.1601,9.2031,9.2226,9.2265,9.2578,9.2578,9.2422,9.2265,9.2148,9.207,9.1679,9.1211,9.082,9.0351,8.9414,8.8906,8.8515,8.8242,8.8203,8.8984,8.9844,9.0742,9.1211,9.2031,9.25,9.2578,9.2578,9.2578,9.2578,9.2578,9.2812,9.3633,9.4492,9.5508,9.6406,9.7148,9.7695,9.7695,9.7695,9.7695,9.7695,9.7695,9.7695,9.7692,9.7688,9.7684,9.768,9.7676,9.7674,9.7672,9.7669,9.763,9.763,9.7667,9.7659,9.7659,9.7623,9.7656,9.7656,9.7656,9.7672,9.7672,9.7669,9.7672,9.7639,9.7637,9.7628,9.7659,9.7656,9.7689,9.7479,9.7386,9.7221,9.7099,9.6822,9.6461,9.6744,9.706,9.6744,9.6349,9.7018,9.7672,9.7706,9.7703,9.7706,9.7709,9.7672,9.7672,9.2578,9.2578,9.2578,9.2578,9.2578,9.2578,9.2578,9.2578,9.2578,9.2578,9.2578,9.2578,9.2578,9.2578,9.2578,9.2578,9.2578,9.2539,9.1875,9.1054,9.0312,8.9336,8.8789,8.8554,8.875,8.914,9.0156,9.0976,9.1367,9.1406,9.1875,9.2461,9.2148,9.1914,9.164,9.1367,9.1094,9.0664,9.0234,8.9726,8.9336,8.8828,8.8711,8.8711,8.8711,8.9023,8.9883,9.0664,9.1211,9.1484,9.2187,9.2578,9.2578,9.2575,9.2573,9.2571,9.2569,9.2762,9.3309,9.4411,9.5547,9.6406,9.7148,9.7694,9.769,9.769,9.7689,9.7684,9.7682,9.7678,9.7672,9.7664,9.7656,9.7604,9.7593,9.7589,9.7585,9.7589,9.7589,9.7593,9.7581,9.7558,9.7528,9.7489,9.7572,9.7589,9.7554,9.7581,9.7589,9.7589,9.7593,9.7597,9.7597,9.7585,9.7563,9.7471,9.7171,9.6836,9.6583,9.6421,9.6226,9.5908,9.5647,9.5569,9.5725,9.5413,9.5349,9.6107,9.6817,9.7433,9.7678,9.7682,9.7682,9.7685,9.7685,9.2578,9.2578,9.2578,9.2578,9.2578,9.2578,9.2578,9.2578,9.2578,9.2578,9.2578,9.2578,9.2578,9.2578,9.2578,9.2578,9.2578,9.2578,9.207,9.1289,9.039,8.9531,8.8867,8.8398,8.8203,8.8711,8.9492,9.0078,9.0469,9.0508,9.0625,9.0937,9.1054,9.0859,9.0547,9.0508,9.0234,8.9961,8.9492,8.8984,8.8867,8.8672,8.8672,8.8711,8.9336,8.9922,9.0703,9.1094,9.1562,9.2027,9.2416,9.2532,9.2569,9.2564,9.2558,9.2554,9.2546,9.2739,9.3327,9.4439,9.5697,9.6985,9.7539,9.768,9.7676,9.7669,9.7625,9.7659,9.7656,9.7643,9.7628,9.7616,9.7558,9.7533,9.7517,9.7466,9.746,9.746,9.7448,9.7435,9.7415,9.7387,9.7341,9.7299,9.7433,9.7505,9.7505,9.7466,9.7472,9.7472,9.7466,9.746,9.7454,9.7272,9.7245,9.6943,9.6601,9.6187,9.5811,9.55,9.5257,9.5183,9.4922,9.4727,9.459,9.456,9.4751,9.5299,9.5952,9.6692,9.7275,9.7641,9.7646,9.765,9.7655,9.2578,9.2578,9.2578,9.2578,9.2578,9.2578,9.2578,9.2578,9.2578,9.2578,9.2578,9.2578,9.2578,9.2578,9.2578,9.2578,9.2578,9.2539,9.2226,9.1601,9.0859,8.9922,8.9101,8.8437,8.8164,8.8437,8.8672,8.914,8.957,8.9609,8.9687,8.9687,8.9609,8.9648,8.9648,8.9609,8.9531,8.914,8.9023,8.8671,8.8672,8.8672,8.9219,8.9414,9.0117,9.0781,9.1395,9.1784,9.1974,9.2322,9.2554,9.2549,9.2504,9.2496,9.2489,9.2518,9.2585,9.2815,9.3482,9.4799,9.6029,9.7318,9.7625,9.7656,9.7643,9.7589,9.7576,9.7563,9.7558,9.7544,9.7544,9.7467,9.7387,9.7349,9.7316,9.7299,9.729,9.7252,9.7264,9.7236,9.7198,9.7108,9.7076,9.7071,9.7168,9.7273,9.7308,9.7308,9.7316,9.7316,9.7308,9.7299,9.7252,9.7051,9.6799,9.641,9.5972,9.531,9.4889,9.4441,9.4197,9.4113,9.3841,9.3448,9.342,9.373,9.3957,9.4125,9.4976,9.6023,9.672,9.7532,9.755,9.7556,9.7577,9.2578,9.2578,9.2578,9.2578,9.2578,9.2578,9.2578,9.2578,9.2578,9.2578,9.2578,9.2578,9.2578,9.2578,9.2578,9.2578,9.2578,9.2578,9.25,9.2187,9.1445,9.0703,8.9844,8.9023,8.8203,8.7851,8.8125,8.8515,8.8711,8.875,8.875,8.8789,8.8864,8.8984,8.8789,8.8789,8.8398,8.789,8.8554,8.8785,8.8861,8.8972,8.9791,9.0531,9.1074,9.1616,9.2039,9.2228,9.2375,9.244,9.2518,9.2471,9.2463,9.249,9.2481,9.2437,9.2456,9.2513,9.2645,9.4909,9.6176,9.7038,9.7108,9.7334,9.748,9.7494,9.746,9.7461,9.7394,9.738,9.7329,9.7284,9.7188,9.7136,9.7104,9.7082,9.7071,9.7071,9.7037,9.7001,9.6902,9.6809,9.6782,9.6782,9.6889,9.6989,9.706,9.7093,9.7104,9.7093,9.7093,9.6943,9.6854,9.6497,9.6177,9.5774,9.5297,9.4588,9.393,9.3362,9.2974,9.2819,9.2509,9.2186,9.2328,9.2664,9.2702,9.2724,9.3847,9.5039,9.6615,9.7364,9.7426,9.744,9.7454,9.2578,9.2578,9.2578,9.2578,9.2578,9.2578,9.2578,9.2578,9.2578,9.2578,9.2578,9.2578,9.2578,9.2578,9.2578,9.2578,9.2578,9.2578,9.2578,9.2461,9.164,9.082,8.9961,8.9062,8.8281,8.7734,8.7812,8.7889,8.7851,8.7925,8.7882,8.789,8.8614,8.9004,8.9414,8.9564,8.9375,8.9258,8.9473,8.9586,8.9578,9.0003,9.0585,9.1288,9.1748,9.2167,9.2471,9.2455,9.2437,9.2412,9.2407,9.239,9.2366,9.2373,9.2327,9.2299,9.23,9.2524,9.2839,9.4059,9.4707,9.5537,9.6311,9.6564,9.6621,9.7138,9.729,9.7294,9.7198,9.7115,9.7037,9.6989,9.6915,9.6863,9.6823,9.6823,9.6809,9.6809,9.6821,9.6778,9.6676,9.6591,9.6522,9.6081,9.6096,9.6256,9.6317,9.6707,9.6811,9.6784,9.6771,9.6536,9.63,9.5922,9.5482,9.4843,9.4185,9.3485,9.277,9.2093,9.1784,9.1803,9.1765,9.1779,9.1673,9.1605,9.1948,9.2313,9.2921,9.4046,9.57,9.6886,9.7042,9.7147,9.729,9.2578,9.2578,9.2578,9.2578,9.2578,9.2578,9.2578,9.2578,9.2578,9.2578,9.2578,9.2578,9.2578,9.2578,9.2578,9.2578,9.2578,9.2226,9.2148,9.2031,9.125,9.0312,8.9531,8.8984,8.8242,8.7654,8.7415,8.7451,8.7488,8.7403,8.786,8.8471,8.877,8.9821,9.0384,9.0661,9.0206,9.0081,9.0075,9.0417,9.052,9.082,9.1237,9.1661,9.2076,9.2412,9.2396,9.2411,9.2347,9.2306,9.2269,9.2246,9.2195,9.2178,9.2169,9.2132,9.2161,9.2353,9.2692,9.2743,9.3307,9.3726,9.4853,9.5485,9.57,9.6214,9.651,9.6637,9.6785,9.6863,9.6796,9.6764,9.672,9.6645,9.663,9.663,9.663,9.6615,9.6506,9.6497,9.6355,9.6266,9.5962,9.5521,9.5169,9.5357,9.5544,9.5956,9.6344,9.6267,9.6151,9.5927,9.5432,9.4868,9.4273,9.3655,9.3022,9.2341,9.1847,9.1406,9.1415,9.157,9.147,9.14,9.1431,9.15,9.1678,9.2056,9.2658,9.3568,9.4906,9.5894,9.652,9.6888,9.7115,9.2578,9.2578,9.2578,9.25,9.2539,9.2383,9.2422,9.2578,9.2578,9.2578,9.2578,9.2578,9.2578,9.2578,9.2539,9.2461,9.2226,9.1601,9.1328,9.1094,9.0547,8.9646,8.9097,8.8705,8.8154,8.7678,8.7394,8.7384,8.7387,8.7319,8.808,8.9164,8.9257,9.029,9.0992,9.1164,9.0725,9.0686,9.0915,9.1169,9.1265,9.1203,9.1607,9.1977,9.2221,9.2269,9.2238,9.2204,9.216,9.2113,9.2073,9.2014,9.1993,9.1982,9.1982,9.2,9.1994,9.2037,9.2079,9.2019,9.198,9.2457,9.3524,9.4168,9.475,9.5311,9.583,9.6073,9.63,9.6482,9.6599,9.6568,9.6519,9.6525,9.6492,9.6476,9.6437,9.6365,9.6253,9.6124,9.5935,9.5668,9.5052,9.4611,9.4377,9.4471,9.466,9.5003,9.5302,9.5296,9.5164,9.5048,9.4508,9.3698,9.3103,9.2685,9.2283,9.1804,9.1666,9.1319,9.1352,9.1352,9.1319,9.1319,9.1352,9.1445,9.149,9.1837,9.2332,9.3322,9.4003,9.506,9.5736,9.6631,9.6954,9.2578,9.2539,9.1913,9.1678,9.1599,9.1011,9.1403,9.25,9.2578,9.2578,9.2578,9.2578,9.2461,9.2537,9.1992,9.1754,9.1322,9.0859,9.0508,9.0187,8.991,8.9398,8.8924,8.8524,8.8045,8.7596,8.7343,8.7321,8.7258,8.7186,8.7624,8.8618,8.8895,8.994,9.0656,9.1045,9.1062,9.13,9.1541,9.1761,9.1802,9.1715,9.1962,9.2043,9.2132,9.2103,9.2083,9.2073,9.2032,9.2028,9.2017,9.1955,9.1897,9.1897,9.1936,9.1837,9.1812,9.1746,9.173,9.1605,9.1546,9.1561,9.2176,9.2672,9.3421,9.4389,9.5182,9.5316,9.5663,9.593,9.6073,9.6078,9.6138,9.618,9.6222,9.6376,9.6261,9.5896,9.5745,9.5322,9.5152,9.4634,9.4018,9.3805,9.3592,9.3651,9.3767,9.3995,9.4205,9.4202,9.4258,9.4159,9.3581,9.2789,9.2486,9.2088,9.1703,9.1318,9.1275,9.1292,9.1275,9.1275,9.1258,9.1275,9.1292,9.1275,9.1279,9.1604,9.1963,9.2023,9.2652,9.3891,9.503,9.5887,9.658,9.156,9.1519,9.1006,9.0769,9.0648,9.021,9.0607,9.1476,9.1559,9.156,9.1638,9.1875,9.1868,9.1513,9.1312,9.1113,9.0677,8.9857,8.9425,8.9378,8.9174,8.8536,8.8213,8.8032,8.7692,8.7354,8.7196,8.7149,8.7082,8.7097,8.7435,8.8252,8.8206,8.8991,8.9825,9.0153,9.0397,9.0936,9.153,9.1996,9.2054,9.1975,9.2021,9.1961,9.1939,9.1967,9.1955,9.1944,9.1948,9.19,9.1888,9.185,9.1799,9.1786,9.1732,9.1663,9.162,9.1576,9.1531,9.1415,9.1368,9.1374,9.1358,9.166,9.2341,9.3261,9.3769,9.4145,9.4793,9.5301,9.5437,9.5573,9.567,9.5749,9.6019,9.6249,9.5903,9.546,9.4998,9.4498,9.398,9.348,9.3133,9.2941,9.2672,9.2518,9.2402,9.2497,9.2861,9.3092,9.3225,9.3264,9.263,9.1937,9.171,9.1633,9.142,9.1227,9.1245,9.1206,9.121,9.121,9.1206,9.1189,9.1189,9.121,9.1227,9.121,9.1399,9.1497,9.1784,9.2871,9.4073,9.5081,9.5647,9.002,9.0047,8.993,8.9763,8.9707,8.9587,8.9626,8.9707,8.9729,8.9902,9.0176,9.0792,9.0747,9.0465,9.0452,9.0289,8.9692,8.8908,8.8466,8.8462,8.7965,8.7515,8.739,8.7124,8.7152,8.7066,8.7016,8.6962,8.6924,8.6902,8.7198,8.7963,8.784,8.8258,8.8958,8.9075,8.9307,8.9785,9.0632,9.1284,9.1501,9.1722,9.1882,9.1832,9.1835,9.1875,9.185,9.1851,9.1811,9.1785,9.1705,9.1663,9.1634,9.1605,9.1531,9.1485,9.147,9.1438,9.1406,9.1341,9.1308,9.1275,9.1262,9.1301,9.1852,9.2541,9.308,9.3372,9.3918,9.4323,9.4554,9.469,9.4883,9.498,9.5134,9.5326,9.5172,9.4595,9.3903,9.3364,9.2864,9.2402,9.2326,9.2133,9.2018,9.1556,9.1479,9.1518,9.171,9.2095,9.2287,9.2441,9.2018,9.1518,9.1441,9.1364,9.1287,9.121,9.121,9.121,9.121,9.121,9.121,9.121,9.121,9.121,9.121,9.121,9.121,9.1325,9.1689,9.2133,9.305,9.4061,9.4673,8.9919,8.9877,8.9196,8.8544,8.796,8.7916,8.7905,8.7843,8.7793,8.8623,8.9735,9.0047,9.0031,8.972,8.9359,8.9114,8.8701,8.8053,8.7566,8.7493,8.7152,8.7028,8.6921,8.6875,8.6845,8.6749,8.6693,8.6708,8.6711,8.6713,8.6675,8.6946,8.6971,8.7381,8.7986,8.8021,8.821,8.862,8.917,8.972,8.9811,9.0469,9.0844,9.0998,9.1152,9.1577,9.1627,9.1663,9.1673,9.1644,9.1531,9.15,9.15,9.147,9.1415,9.1384,9.1374,9.1341,9.1308,9.1275,9.1224,9.1206,9.1227,9.121,9.1497,9.2112,9.2553,9.2728,9.2979,9.3326,9.3633,9.3826,9.4018,9.4134,9.4287,9.4364,9.4441,9.3672,9.2864,9.2287,9.1787,9.1595,9.1556,9.1441,9.1248,9.121,9.1248,9.1287,9.1325,9.1556,9.1633,9.171,9.1595,9.1287,9.121,9.121,9.121,9.121,9.121,9.121,9.121,9.121,9.121,9.121,9.121,9.121,9.121,9.121,9.121,9.1287,9.1364,9.1748,9.1941,9.2704,9.3358,8.8682,8.8584,8.8122,8.7651,8.7213,8.7167,8.7098,8.6994,8.6968,8.75,8.8469,8.8871,8.8962,8.8764,8.8359,8.8025,8.7789,8.7249,8.704,8.6914,8.6845,8.6821,8.6754,8.6657,8.6647,8.6559,8.6544,8.6517,8.6514,8.6433,8.6419,8.6419,8.6399,8.6547,8.7048,8.7025,8.7202,8.7587,8.7788,8.7865,8.8108,8.8977,8.9701,8.9968,9.0455,9.0919,9.1175,9.1261,9.1516,9.15,9.1431,9.1384,9.1368,9.1374,9.1319,9.1308,9.1275,9.1241,9.1224,9.1245,9.121,9.121,9.121,9.121,9.121,9.1766,9.1766,9.1941,9.1979,9.2287,9.2479,9.271,9.3056,9.3249,9.3595,9.3864,9.3595,9.3018,9.2287,9.171,9.1402,9.1364,9.1325,9.1325,9.121,9.121,9.121,9.121,9.121,9.121,9.121,9.121,9.121,9.121,9.121,9.121,9.121,9.121,9.121,9.121,9.121,9.121,9.121,9.121,9.121,9.121,9.121,9.121,9.121,9.121,9.121,9.1287,9.1441,9.1595,9.2151,8.7227,8.7082,8.7081,8.7037,8.6952,8.6943,8.6884,8.676,8.6777,8.672,8.6839,8.7629,8.7487,8.7419,8.7593,8.7269,8.6993,8.6866,8.6708,8.6621,8.6584,8.6572,8.6505,8.6475,8.6447,8.6404,8.6399,8.6369,8.6354,8.6269,8.6238,8.6191,8.6143,8.6132,8.6094,8.6132,8.6357,8.6489,8.6522,8.6361,8.6948,8.7765,8.8483,8.9023,8.9509,9.0011,9.0396,9.0728,9.1191,9.1368,9.1352,9.1341,9.1308,9.1292,9.1258,9.1262,9.1245,9.1189,9.121,9.121,9.121,9.121,9.121,9.121,9.121,9.1248,9.1248,9.1287,9.1325,9.1402,9.1633,9.1825,9.2172,9.2402,9.2826,9.3133,9.271,9.2326,9.1787,9.121,9.121,9.121,9.121,9.121,9.121,9.121,9.121,9.121,9.121,9.121,9.121,9.121,9.121,9.121,9.121,9.121,9.121,9.121,9.121,9.121,9.121,9.121,9.121,9.121,9.121,9.121,9.121,9.121,9.121,9.121,9.121,9.121,9.1248,9.1364,9.1287,8.6971,8.6943,8.6894,8.6842,8.6749,8.6693,8.666,8.6623,8.6571,8.6531,8.6556,8.6591,8.666,8.6661,8.6777,8.6713,8.6713,8.6597,8.6558,8.6503,8.6447,8.6375,8.633,8.6315,8.6238,8.6207,8.6191,8.6159,8.623,8.6159,8.6126,8.6126,8.6126,8.6094,8.6094,8.6094,8.6094,8.611,8.611,8.6143,8.6406,8.7086,8.7642,8.8197,8.8699,8.9432,8.9995,9.024,9.0725,9.1077,9.1275,9.1241,9.1224,9.1245,9.1227,9.1227,9.121,9.121,9.121,9.121,9.121,9.121,9.121,9.121,9.121,9.121,9.121,9.121,9.1248,9.1248,9.1402,9.1402,9.1595,9.1595,9.1864,9.1864,9.1672,9.1595,9.1364,9.121,9.121,9.121,9.121,9.121,9.121,9.121,9.121,9.121,9.121,9.121,9.1192,9.121,9.1192,9.121,9.121,9.121,9.121,9.121,9.121,9.121,9.121,9.121,9.121,9.121,9.121,9.121,9.121,9.121,9.121,9.121,9.121,9.121,9.121,9.121,9.121]}]]